<?xml version="1.0" encoding="UTF-8" standalone="no" ?>
<gpx xmlns="http://www.topografix.com/GPX/1/1" xmlns:xsi="http://www.w3.org/2001/XMLSchema-instance" xsi:schemaLocation="http://www.topografix.com/GPX/1/1 http://www.topografix.com/GPX/1/1/gpx.xsd" version="1.1" creator="VisuGPX - https://www.visugpx.com">
  <metadata>
    <name>DT 11 le causse Séveragais</name>
  </metadata>
  <trk>
    <name><![CDATA[Séverac sur TraceDeTrail.fr]]></name>
    <trkseg>
      <trkpt lat="44.32249" lon="3.07127">
        <ele>753.2</ele>
        <time>2000-01-01T01:32:53.000Z</time>
      </trkpt>
      <trkpt lat="44.32249" lon="3.07127">
        <ele>753.2</ele>
        <time>2000-01-01T01:33:03.000Z</time>
      </trkpt>
      <trkpt lat="44.32249" lon="3.07127">
        <ele>753.2</ele>
        <time>2000-01-01T01:33:13.000Z</time>
      </trkpt>
      <trkpt lat="44.3225" lon="3.07124">
        <ele>753.6</ele>
        <time>2000-01-01T01:33:23.000Z</time>
      </trkpt>
      <trkpt lat="44.32262" lon="3.07133">
        <ele>752.2</ele>
        <time>2000-01-01T01:33:33.000Z</time>
      </trkpt>
      <trkpt lat="44.32264" lon="3.07134">
        <ele>752</ele>
        <time>2000-01-01T01:33:43.000Z</time>
      </trkpt>
      <trkpt lat="44.32276" lon="3.07143">
        <ele>750.6</ele>
        <time>2000-01-01T01:33:53.000Z</time>
      </trkpt>
      <trkpt lat="44.32291" lon="3.07153">
        <ele>749</ele>
        <time>2000-01-01T01:34:03.000Z</time>
      </trkpt>
      <trkpt lat="44.32305" lon="3.07159">
        <ele>747.8</ele>
        <time>2000-01-01T01:34:13.000Z</time>
      </trkpt>
      <trkpt lat="44.32319" lon="3.07164">
        <ele>746.8</ele>
        <time>2000-01-01T01:34:23.000Z</time>
      </trkpt>
      <trkpt lat="44.32328" lon="3.07169">
        <ele>746</ele>
        <time>2000-01-01T01:34:33.000Z</time>
      </trkpt>
      <trkpt lat="44.32333" lon="3.07172">
        <ele>745.7</ele>
        <time>2000-01-01T01:34:43.000Z</time>
      </trkpt>
      <trkpt lat="44.3234" lon="3.0718">
        <ele>744.2</ele>
        <time>2000-01-01T01:34:53.000Z</time>
      </trkpt>
      <trkpt lat="44.32345" lon="3.07187">
        <ele>743</ele>
        <time>2000-01-01T01:35:03.000Z</time>
      </trkpt>
      <trkpt lat="44.32352" lon="3.07195">
        <ele>741.4</ele>
        <time>2000-01-01T01:35:13.000Z</time>
      </trkpt>
      <trkpt lat="44.32355" lon="3.07198">
        <ele>740.7</ele>
        <time>2000-01-01T01:35:23.000Z</time>
      </trkpt>
      <trkpt lat="44.32358" lon="3.072">
        <ele>740.1</ele>
        <time>2000-01-01T01:35:33.000Z</time>
      </trkpt>
      <trkpt lat="44.32366" lon="3.072">
        <ele>738.8</ele>
        <time>2000-01-01T01:35:43.000Z</time>
      </trkpt>
      <trkpt lat="44.32372" lon="3.07198">
        <ele>738</ele>
        <time>2000-01-01T01:35:53.000Z</time>
      </trkpt>
      <trkpt lat="44.32382" lon="3.07195">
        <ele>736.7</ele>
        <time>2000-01-01T01:36:03.000Z</time>
      </trkpt>
      <trkpt lat="44.32399" lon="3.07188">
        <ele>734.7</ele>
        <time>2000-01-01T01:36:13.000Z</time>
      </trkpt>
      <trkpt lat="44.32417" lon="3.07181">
        <ele>732.6</ele>
        <time>2000-01-01T01:36:23.000Z</time>
      </trkpt>
      <trkpt lat="44.32433" lon="3.07176">
        <ele>731.4</ele>
        <time>2000-01-01T01:36:33.000Z</time>
      </trkpt>
      <trkpt lat="44.32452" lon="3.0717">
        <ele>729.9</ele>
        <time>2000-01-01T01:36:43.000Z</time>
      </trkpt>
      <trkpt lat="44.32466" lon="3.07166">
        <ele>728.7</ele>
        <time>2000-01-01T01:36:53.000Z</time>
      </trkpt>
      <trkpt lat="44.32477" lon="3.07162">
        <ele>727.7</ele>
        <time>2000-01-01T01:37:03.000Z</time>
      </trkpt>
      <trkpt lat="44.32496" lon="3.07153">
        <ele>726.1</ele>
        <time>2000-01-01T01:37:13.000Z</time>
      </trkpt>
      <trkpt lat="44.32515" lon="3.07143">
        <ele>724.2</ele>
        <time>2000-01-01T01:37:23.000Z</time>
      </trkpt>
      <trkpt lat="44.32527" lon="3.07137">
        <ele>722.9</ele>
        <time>2000-01-01T01:37:33.000Z</time>
      </trkpt>
      <trkpt lat="44.32537" lon="3.07135">
        <ele>721.6</ele>
        <time>2000-01-01T01:37:43.000Z</time>
      </trkpt>
      <trkpt lat="44.32548" lon="3.07133">
        <ele>720.3</ele>
        <time>2000-01-01T01:37:53.000Z</time>
      </trkpt>
      <trkpt lat="44.32556" lon="3.07134">
        <ele>719.2</ele>
        <time>2000-01-01T01:38:03.000Z</time>
      </trkpt>
      <trkpt lat="44.32571" lon="3.07137">
        <ele>717.1</ele>
        <time>2000-01-01T01:38:13.000Z</time>
      </trkpt>
      <trkpt lat="44.32585" lon="3.07141">
        <ele>715.1</ele>
        <time>2000-01-01T01:38:23.000Z</time>
      </trkpt>
      <trkpt lat="44.32594" lon="3.07144">
        <ele>714.3</ele>
        <time>2000-01-01T01:38:33.000Z</time>
      </trkpt>
      <trkpt lat="44.32599" lon="3.07147">
        <ele>713.8</ele>
        <time>2000-01-01T01:38:43.000Z</time>
      </trkpt>
      <trkpt lat="44.32608" lon="3.07154">
        <ele>712.8</ele>
        <time>2000-01-01T01:38:53.000Z</time>
      </trkpt>
      <trkpt lat="44.32616" lon="3.07162">
        <ele>711.9</ele>
        <time>2000-01-01T01:39:03.000Z</time>
      </trkpt>
      <trkpt lat="44.32626" lon="3.07172">
        <ele>710.9</ele>
        <time>2000-01-01T01:39:13.000Z</time>
      </trkpt>
      <trkpt lat="44.3263" lon="3.07176">
        <ele>710.5</ele>
        <time>2000-01-01T01:39:23.000Z</time>
      </trkpt>
      <trkpt lat="44.3264" lon="3.07188">
        <ele>709.5</ele>
        <time>2000-01-01T01:39:33.000Z</time>
      </trkpt>
      <trkpt lat="44.32647" lon="3.072">
        <ele>708.6</ele>
        <time>2000-01-01T01:39:43.000Z</time>
      </trkpt>
      <trkpt lat="44.32652" lon="3.07209">
        <ele>707.9</ele>
        <time>2000-01-01T01:39:53.000Z</time>
      </trkpt>
      <trkpt lat="44.32657" lon="3.07221">
        <ele>707</ele>
        <time>2000-01-01T01:40:03.000Z</time>
      </trkpt>
      <trkpt lat="44.32665" lon="3.0724">
        <ele>705.6</ele>
        <time>2000-01-01T01:40:13.000Z</time>
      </trkpt>
      <trkpt lat="44.3267" lon="3.07255">
        <ele>704.6</ele>
        <time>2000-01-01T01:40:23.000Z</time>
      </trkpt>
      <trkpt lat="44.3267" lon="3.07255">
        <ele>704.6</ele>
        <time>2000-01-01T01:40:33.000Z</time>
      </trkpt>
      <trkpt lat="44.32675" lon="3.07271">
        <ele>703.8</ele>
        <time>2000-01-01T01:40:43.000Z</time>
      </trkpt>
      <trkpt lat="44.32681" lon="3.07291">
        <ele>702.9</ele>
        <time>2000-01-01T01:40:53.000Z</time>
      </trkpt>
      <trkpt lat="44.32688" lon="3.07322">
        <ele>701.7</ele>
        <time>2000-01-01T01:41:03.000Z</time>
      </trkpt>
      <trkpt lat="44.32692" lon="3.07339">
        <ele>701.1</ele>
        <time>2000-01-01T01:41:13.000Z</time>
      </trkpt>
      <trkpt lat="44.32696" lon="3.07353">
        <ele>700.5</ele>
        <time>2000-01-01T01:41:23.000Z</time>
      </trkpt>
      <trkpt lat="44.327" lon="3.07362">
        <ele>700.1</ele>
        <time>2000-01-01T01:41:33.000Z</time>
      </trkpt>
      <trkpt lat="44.32711" lon="3.07381">
        <ele>699.3</ele>
        <time>2000-01-01T01:41:43.000Z</time>
      </trkpt>
      <trkpt lat="44.32732" lon="3.07417">
        <ele>698.4</ele>
        <time>2000-01-01T01:41:53.000Z</time>
      </trkpt>
      <trkpt lat="44.32742" lon="3.07436">
        <ele>698.4</ele>
        <time>2000-01-01T01:42:03.000Z</time>
      </trkpt>
      <trkpt lat="44.32751" lon="3.07454">
        <ele>698.4</ele>
        <time>2000-01-01T01:42:13.000Z</time>
      </trkpt>
      <trkpt lat="44.32759" lon="3.07474">
        <ele>698.5</ele>
        <time>2000-01-01T01:42:23.000Z</time>
      </trkpt>
      <trkpt lat="44.32771" lon="3.07502">
        <ele>698.8</ele>
        <time>2000-01-01T01:42:33.000Z</time>
      </trkpt>
      <trkpt lat="44.32784" lon="3.07534">
        <ele>699.6</ele>
        <time>2000-01-01T01:42:43.000Z</time>
      </trkpt>
      <trkpt lat="44.32792" lon="3.07553">
        <ele>700.1</ele>
        <time>2000-01-01T01:42:53.000Z</time>
      </trkpt>
      <trkpt lat="44.32796" lon="3.07562">
        <ele>700.3</ele>
        <time>2000-01-01T01:43:03.000Z</time>
      </trkpt>
      <trkpt lat="44.32797" lon="3.0757">
        <ele>700.6</ele>
        <time>2000-01-01T01:43:13.000Z</time>
      </trkpt>
      <trkpt lat="44.32798" lon="3.07577">
        <ele>700.8</ele>
        <time>2000-01-01T01:43:23.000Z</time>
      </trkpt>
      <trkpt lat="44.32797" lon="3.07585">
        <ele>701.1</ele>
        <time>2000-01-01T01:43:33.000Z</time>
      </trkpt>
      <trkpt lat="44.32796" lon="3.07597">
        <ele>701.7</ele>
        <time>2000-01-01T01:43:43.000Z</time>
      </trkpt>
      <trkpt lat="44.32796" lon="3.07598">
        <ele>701.8</ele>
        <time>2000-01-01T01:43:53.000Z</time>
      </trkpt>
      <trkpt lat="44.32793" lon="3.07617">
        <ele>702.8</ele>
        <time>2000-01-01T01:44:03.000Z</time>
      </trkpt>
      <trkpt lat="44.32793" lon="3.0764">
        <ele>704.1</ele>
        <time>2000-01-01T01:44:13.000Z</time>
      </trkpt>
      <trkpt lat="44.32794" lon="3.07651">
        <ele>704.7</ele>
        <time>2000-01-01T01:44:23.000Z</time>
      </trkpt>
      <trkpt lat="44.32796" lon="3.07659">
        <ele>705.1</ele>
        <time>2000-01-01T01:44:33.000Z</time>
      </trkpt>
      <trkpt lat="44.328" lon="3.07669">
        <ele>705.7</ele>
        <time>2000-01-01T01:44:43.000Z</time>
      </trkpt>
      <trkpt lat="44.32807" lon="3.07677">
        <ele>706</ele>
        <time>2000-01-01T01:44:53.000Z</time>
      </trkpt>
      <trkpt lat="44.32821" lon="3.07694">
        <ele>706.6</ele>
        <time>2000-01-01T01:45:03.000Z</time>
      </trkpt>
      <trkpt lat="44.32833" lon="3.07704">
        <ele>706.9</ele>
        <time>2000-01-01T01:45:13.000Z</time>
      </trkpt>
      <trkpt lat="44.32839" lon="3.07709">
        <ele>707.1</ele>
        <time>2000-01-01T01:45:23.000Z</time>
      </trkpt>
      <trkpt lat="44.32847" lon="3.07715">
        <ele>707.3</ele>
        <time>2000-01-01T01:45:33.000Z</time>
      </trkpt>
      <trkpt lat="44.32849" lon="3.07717">
        <ele>707.4</ele>
        <time>2000-01-01T01:45:43.000Z</time>
      </trkpt>
      <trkpt lat="44.32853" lon="3.07722">
        <ele>707.6</ele>
        <time>2000-01-01T01:45:53.000Z</time>
      </trkpt>
      <trkpt lat="44.32859" lon="3.07721">
        <ele>707.6</ele>
        <time>2000-01-01T01:46:03.000Z</time>
      </trkpt>
      <trkpt lat="44.32865" lon="3.07721">
        <ele>707.7</ele>
        <time>2000-01-01T01:46:13.000Z</time>
      </trkpt>
      <trkpt lat="44.32872" lon="3.07724">
        <ele>707.8</ele>
        <time>2000-01-01T01:46:23.000Z</time>
      </trkpt>
      <trkpt lat="44.32879" lon="3.07729">
        <ele>708</ele>
        <time>2000-01-01T01:46:33.000Z</time>
      </trkpt>
      <trkpt lat="44.32887" lon="3.07736">
        <ele>708.3</ele>
        <time>2000-01-01T01:46:43.000Z</time>
      </trkpt>
      <trkpt lat="44.32896" lon="3.07744">
        <ele>708.6</ele>
        <time>2000-01-01T01:46:53.000Z</time>
      </trkpt>
      <trkpt lat="44.32899" lon="3.0774">
        <ele>708.5</ele>
        <time>2000-01-01T01:47:03.000Z</time>
      </trkpt>
      <trkpt lat="44.329" lon="3.07739">
        <ele>708.5</ele>
        <time>2000-01-01T01:47:13.000Z</time>
      </trkpt>
      <trkpt lat="44.329" lon="3.07739">
        <ele>708.5</ele>
        <time>2000-01-01T01:47:23.000Z</time>
      </trkpt>
      <trkpt lat="44.32908" lon="3.07729">
        <ele>708.4</ele>
        <time>2000-01-01T01:47:33.000Z</time>
      </trkpt>
      <trkpt lat="44.32919" lon="3.07709">
        <ele>708.1</ele>
        <time>2000-01-01T01:47:43.000Z</time>
      </trkpt>
      <trkpt lat="44.32933" lon="3.07682">
        <ele>707.9</ele>
        <time>2000-01-01T01:47:53.000Z</time>
      </trkpt>
      <trkpt lat="44.32946" lon="3.07658">
        <ele>707.5</ele>
        <time>2000-01-01T01:48:03.000Z</time>
      </trkpt>
      <trkpt lat="44.32951" lon="3.07648">
        <ele>707.1</ele>
        <time>2000-01-01T01:48:13.000Z</time>
      </trkpt>
      <trkpt lat="44.32956" lon="3.07642">
        <ele>706.9</ele>
        <time>2000-01-01T01:48:23.000Z</time>
      </trkpt>
      <trkpt lat="44.32962" lon="3.07638">
        <ele>706.9</ele>
        <time>2000-01-01T01:48:33.000Z</time>
      </trkpt>
      <trkpt lat="44.32976" lon="3.0763">
        <ele>706.9</ele>
        <time>2000-01-01T01:48:43.000Z</time>
      </trkpt>
      <trkpt lat="44.32986" lon="3.07624">
        <ele>706.9</ele>
        <time>2000-01-01T01:48:53.000Z</time>
      </trkpt>
      <trkpt lat="44.32992" lon="3.07618">
        <ele>706.8</ele>
        <time>2000-01-01T01:49:03.000Z</time>
      </trkpt>
      <trkpt lat="44.32994" lon="3.07615">
        <ele>706.7</ele>
        <time>2000-01-01T01:49:13.000Z</time>
      </trkpt>
      <trkpt lat="44.32997" lon="3.07605">
        <ele>706.2</ele>
        <time>2000-01-01T01:49:23.000Z</time>
      </trkpt>
      <trkpt lat="44.33002" lon="3.0759">
        <ele>705.6</ele>
        <time>2000-01-01T01:49:33.000Z</time>
      </trkpt>
      <trkpt lat="44.33007" lon="3.07573">
        <ele>704.9</ele>
        <time>2000-01-01T01:49:43.000Z</time>
      </trkpt>
      <trkpt lat="44.33015" lon="3.07555">
        <ele>704.2</ele>
        <time>2000-01-01T01:49:53.000Z</time>
      </trkpt>
      <trkpt lat="44.33025" lon="3.07535">
        <ele>703.2</ele>
        <time>2000-01-01T01:50:03.000Z</time>
      </trkpt>
      <trkpt lat="44.33032" lon="3.07521">
        <ele>702.2</ele>
        <time>2000-01-01T01:50:13.000Z</time>
      </trkpt>
      <trkpt lat="44.3304" lon="3.07511">
        <ele>701.5</ele>
        <time>2000-01-01T01:50:23.000Z</time>
      </trkpt>
      <trkpt lat="44.33053" lon="3.07494">
        <ele>700.2</ele>
        <time>2000-01-01T01:50:33.000Z</time>
      </trkpt>
      <trkpt lat="44.33074" lon="3.0747">
        <ele>698.8</ele>
        <time>2000-01-01T01:50:43.000Z</time>
      </trkpt>
      <trkpt lat="44.33099" lon="3.07439">
        <ele>696.7</ele>
        <time>2000-01-01T01:50:53.000Z</time>
      </trkpt>
      <trkpt lat="44.3312" lon="3.07413">
        <ele>695.4</ele>
        <time>2000-01-01T01:51:03.000Z</time>
      </trkpt>
      <trkpt lat="44.33141" lon="3.07388">
        <ele>695.7</ele>
        <time>2000-01-01T01:51:13.000Z</time>
      </trkpt>
      <trkpt lat="44.33159" lon="3.07367">
        <ele>695.9</ele>
        <time>2000-01-01T01:51:23.000Z</time>
      </trkpt>
      <trkpt lat="44.33169" lon="3.07354">
        <ele>696.1</ele>
        <time>2000-01-01T01:51:33.000Z</time>
      </trkpt>
      <trkpt lat="44.33174" lon="3.07345">
        <ele>696.2</ele>
        <time>2000-01-01T01:51:43.000Z</time>
      </trkpt>
      <trkpt lat="44.33176" lon="3.07337">
        <ele>696.2</ele>
        <time>2000-01-01T01:51:53.000Z</time>
      </trkpt>
      <trkpt lat="44.33177" lon="3.0733">
        <ele>696.2</ele>
        <time>2000-01-01T01:52:03.000Z</time>
      </trkpt>
      <trkpt lat="44.33176" lon="3.07324">
        <ele>696</ele>
        <time>2000-01-01T01:52:13.000Z</time>
      </trkpt>
      <trkpt lat="44.33173" lon="3.07316">
        <ele>695.8</ele>
        <time>2000-01-01T01:52:23.000Z</time>
      </trkpt>
      <trkpt lat="44.33171" lon="3.07308">
        <ele>695.5</ele>
        <time>2000-01-01T01:52:33.000Z</time>
      </trkpt>
      <trkpt lat="44.33169" lon="3.07301">
        <ele>695.3</ele>
        <time>2000-01-01T01:52:43.000Z</time>
      </trkpt>
      <trkpt lat="44.33168" lon="3.07297">
        <ele>695.2</ele>
        <time>2000-01-01T01:52:53.000Z</time>
      </trkpt>
      <trkpt lat="44.33177" lon="3.07299">
        <ele>695.5</ele>
        <time>2000-01-01T01:53:03.000Z</time>
      </trkpt>
      <trkpt lat="44.33186" lon="3.07301">
        <ele>695.8</ele>
        <time>2000-01-01T01:53:13.000Z</time>
      </trkpt>
      <trkpt lat="44.33196" lon="3.07303">
        <ele>696.1</ele>
        <time>2000-01-01T01:53:23.000Z</time>
      </trkpt>
      <trkpt lat="44.33203" lon="3.07306">
        <ele>696.4</ele>
        <time>2000-01-01T01:53:33.000Z</time>
      </trkpt>
      <trkpt lat="44.33208" lon="3.0731">
        <ele>696.6</ele>
        <time>2000-01-01T01:53:43.000Z</time>
      </trkpt>
      <trkpt lat="44.33211" lon="3.07314">
        <ele>696.7</ele>
        <time>2000-01-01T01:53:53.000Z</time>
      </trkpt>
      <trkpt lat="44.3322" lon="3.07323">
        <ele>697.1</ele>
        <time>2000-01-01T01:54:03.000Z</time>
      </trkpt>
      <trkpt lat="44.33225" lon="3.07328">
        <ele>697.3</ele>
        <time>2000-01-01T01:54:13.000Z</time>
      </trkpt>
      <trkpt lat="44.33229" lon="3.07329">
        <ele>697.4</ele>
        <time>2000-01-01T01:54:23.000Z</time>
      </trkpt>
      <trkpt lat="44.33235" lon="3.0733">
        <ele>697.6</ele>
        <time>2000-01-01T01:54:33.000Z</time>
      </trkpt>
      <trkpt lat="44.33238" lon="3.07329">
        <ele>697.7</ele>
        <time>2000-01-01T01:54:43.000Z</time>
      </trkpt>
      <trkpt lat="44.33242" lon="3.07329">
        <ele>697.8</ele>
        <time>2000-01-01T01:54:53.000Z</time>
      </trkpt>
      <trkpt lat="44.33249" lon="3.07327">
        <ele>697.9</ele>
        <time>2000-01-01T01:55:03.000Z</time>
      </trkpt>
      <trkpt lat="44.33262" lon="3.07321">
        <ele>698.4</ele>
        <time>2000-01-01T01:55:13.000Z</time>
      </trkpt>
      <trkpt lat="44.33274" lon="3.07316">
        <ele>698.9</ele>
        <time>2000-01-01T01:55:23.000Z</time>
      </trkpt>
      <trkpt lat="44.33281" lon="3.07314">
        <ele>699.2</ele>
        <time>2000-01-01T01:55:33.000Z</time>
      </trkpt>
      <trkpt lat="44.33285" lon="3.07313">
        <ele>699.3</ele>
        <time>2000-01-01T01:55:43.000Z</time>
      </trkpt>
      <trkpt lat="44.33289" lon="3.07312">
        <ele>699.5</ele>
        <time>2000-01-01T01:55:53.000Z</time>
      </trkpt>
      <trkpt lat="44.333" lon="3.07313">
        <ele>700</ele>
        <time>2000-01-01T01:56:03.000Z</time>
      </trkpt>
      <trkpt lat="44.33313" lon="3.07311">
        <ele>700.6</ele>
        <time>2000-01-01T01:56:13.000Z</time>
      </trkpt>
      <trkpt lat="44.33322" lon="3.07309">
        <ele>700.9</ele>
        <time>2000-01-01T01:56:23.000Z</time>
      </trkpt>
      <trkpt lat="44.33329" lon="3.07305">
        <ele>701.1</ele>
        <time>2000-01-01T01:56:33.000Z</time>
      </trkpt>
      <trkpt lat="44.33337" lon="3.073">
        <ele>701.4</ele>
        <time>2000-01-01T01:56:43.000Z</time>
      </trkpt>
      <trkpt lat="44.33346" lon="3.07293">
        <ele>701.9</ele>
        <time>2000-01-01T01:56:53.000Z</time>
      </trkpt>
      <trkpt lat="44.33357" lon="3.07289">
        <ele>702.5</ele>
        <time>2000-01-01T01:57:03.000Z</time>
      </trkpt>
      <trkpt lat="44.33371" lon="3.07282">
        <ele>703.2</ele>
        <time>2000-01-01T01:57:13.000Z</time>
      </trkpt>
      <trkpt lat="44.33383" lon="3.07276">
        <ele>703.8</ele>
        <time>2000-01-01T01:57:23.000Z</time>
      </trkpt>
      <trkpt lat="44.33394" lon="3.07271">
        <ele>704.3</ele>
        <time>2000-01-01T01:57:33.000Z</time>
      </trkpt>
      <trkpt lat="44.33401" lon="3.07269">
        <ele>704.7</ele>
        <time>2000-01-01T01:57:43.000Z</time>
      </trkpt>
      <trkpt lat="44.33408" lon="3.07269">
        <ele>705.1</ele>
        <time>2000-01-01T01:57:53.000Z</time>
      </trkpt>
      <trkpt lat="44.33415" lon="3.07269">
        <ele>705.6</ele>
        <time>2000-01-01T01:58:03.000Z</time>
      </trkpt>
      <trkpt lat="44.33422" lon="3.07269">
        <ele>705.9</ele>
        <time>2000-01-01T01:58:13.000Z</time>
      </trkpt>
      <trkpt lat="44.33432" lon="3.07269">
        <ele>706.2</ele>
        <time>2000-01-01T01:58:23.000Z</time>
      </trkpt>
      <trkpt lat="44.3344" lon="3.07269">
        <ele>706.5</ele>
        <time>2000-01-01T01:58:33.000Z</time>
      </trkpt>
      <trkpt lat="44.33448" lon="3.07268">
        <ele>706.8</ele>
        <time>2000-01-01T01:58:43.000Z</time>
      </trkpt>
      <trkpt lat="44.33454" lon="3.07267">
        <ele>707</ele>
        <time>2000-01-01T01:58:53.000Z</time>
      </trkpt>
      <trkpt lat="44.33458" lon="3.07265">
        <ele>707</ele>
        <time>2000-01-01T01:59:03.000Z</time>
      </trkpt>
      <trkpt lat="44.33463" lon="3.07262">
        <ele>707.1</ele>
        <time>2000-01-01T01:59:13.000Z</time>
      </trkpt>
      <trkpt lat="44.33464" lon="3.07266">
        <ele>707.3</ele>
        <time>2000-01-01T01:59:23.000Z</time>
      </trkpt>
      <trkpt lat="44.33464" lon="3.07269">
        <ele>707.4</ele>
        <time>2000-01-01T01:59:33.000Z</time>
      </trkpt>
      <trkpt lat="44.33464" lon="3.07279">
        <ele>707.7</ele>
        <time>2000-01-01T01:59:43.000Z</time>
      </trkpt>
      <trkpt lat="44.33461" lon="3.07302">
        <ele>708.5</ele>
        <time>2000-01-01T01:59:53.000Z</time>
      </trkpt>
      <trkpt lat="44.33457" lon="3.07337">
        <ele>709.6</ele>
        <time>2000-01-01T02:00:03.000Z</time>
      </trkpt>
      <trkpt lat="44.33452" lon="3.07371">
        <ele>711.1</ele>
        <time>2000-01-01T02:00:13.000Z</time>
      </trkpt>
      <trkpt lat="44.33447" lon="3.07404">
        <ele>712.5</ele>
        <time>2000-01-01T02:00:23.000Z</time>
      </trkpt>
      <trkpt lat="44.33444" lon="3.07421">
        <ele>713.2</ele>
        <time>2000-01-01T02:00:33.000Z</time>
      </trkpt>
      <trkpt lat="44.33441" lon="3.07434">
        <ele>713.9</ele>
        <time>2000-01-01T02:00:43.000Z</time>
      </trkpt>
      <trkpt lat="44.33435" lon="3.07454">
        <ele>714.9</ele>
        <time>2000-01-01T02:00:53.000Z</time>
      </trkpt>
      <trkpt lat="44.33426" lon="3.07478">
        <ele>716</ele>
        <time>2000-01-01T02:01:03.000Z</time>
      </trkpt>
      <trkpt lat="44.33413" lon="3.07513">
        <ele>717.9</ele>
        <time>2000-01-01T02:01:13.000Z</time>
      </trkpt>
      <trkpt lat="44.33401" lon="3.07543">
        <ele>719.6</ele>
        <time>2000-01-01T02:01:23.000Z</time>
      </trkpt>
      <trkpt lat="44.33386" lon="3.07575">
        <ele>721</ele>
        <time>2000-01-01T02:01:33.000Z</time>
      </trkpt>
      <trkpt lat="44.33369" lon="3.0761">
        <ele>722.6</ele>
        <time>2000-01-01T02:01:43.000Z</time>
      </trkpt>
      <trkpt lat="44.33349" lon="3.07648">
        <ele>725</ele>
        <time>2000-01-01T02:01:53.000Z</time>
      </trkpt>
      <trkpt lat="44.33332" lon="3.0768">
        <ele>726.6</ele>
        <time>2000-01-01T02:02:03.000Z</time>
      </trkpt>
      <trkpt lat="44.3332" lon="3.07704">
        <ele>726.8</ele>
        <time>2000-01-01T02:02:13.000Z</time>
      </trkpt>
      <trkpt lat="44.33312" lon="3.07724">
        <ele>727.1</ele>
        <time>2000-01-01T02:02:23.000Z</time>
      </trkpt>
      <trkpt lat="44.33308" lon="3.07735">
        <ele>727.3</ele>
        <time>2000-01-01T02:02:33.000Z</time>
      </trkpt>
      <trkpt lat="44.33306" lon="3.07745">
        <ele>727.5</ele>
        <time>2000-01-01T02:02:43.000Z</time>
      </trkpt>
      <trkpt lat="44.33305" lon="3.07751">
        <ele>727.6</ele>
        <time>2000-01-01T02:02:53.000Z</time>
      </trkpt>
      <trkpt lat="44.33305" lon="3.07764">
        <ele>727.6</ele>
        <time>2000-01-01T02:03:03.000Z</time>
      </trkpt>
      <trkpt lat="44.33305" lon="3.07773">
        <ele>727.5</ele>
        <time>2000-01-01T02:03:13.000Z</time>
      </trkpt>
      <trkpt lat="44.33306" lon="3.0778">
        <ele>727.6</ele>
        <time>2000-01-01T02:03:23.000Z</time>
      </trkpt>
      <trkpt lat="44.33309" lon="3.07796">
        <ele>727.7</ele>
        <time>2000-01-01T02:03:33.000Z</time>
      </trkpt>
      <trkpt lat="44.33316" lon="3.07817">
        <ele>728.1</ele>
        <time>2000-01-01T02:03:43.000Z</time>
      </trkpt>
      <trkpt lat="44.33318" lon="3.07823">
        <ele>728.2</ele>
        <time>2000-01-01T02:03:53.000Z</time>
      </trkpt>
      <trkpt lat="44.3332" lon="3.0783">
        <ele>728.2</ele>
        <time>2000-01-01T02:04:03.000Z</time>
      </trkpt>
      <trkpt lat="44.33322" lon="3.07834">
        <ele>728.3</ele>
        <time>2000-01-01T02:04:13.000Z</time>
      </trkpt>
      <trkpt lat="44.33327" lon="3.0784">
        <ele>728.4</ele>
        <time>2000-01-01T02:04:23.000Z</time>
      </trkpt>
      <trkpt lat="44.33334" lon="3.07847">
        <ele>728.5</ele>
        <time>2000-01-01T02:04:33.000Z</time>
      </trkpt>
      <trkpt lat="44.33343" lon="3.07854">
        <ele>728.5</ele>
        <time>2000-01-01T02:04:43.000Z</time>
      </trkpt>
      <trkpt lat="44.33353" lon="3.07863">
        <ele>728.3</ele>
        <time>2000-01-01T02:04:53.000Z</time>
      </trkpt>
      <trkpt lat="44.3336" lon="3.0787">
        <ele>728.2</ele>
        <time>2000-01-01T02:05:03.000Z</time>
      </trkpt>
      <trkpt lat="44.33362" lon="3.07873">
        <ele>728.1</ele>
        <time>2000-01-01T02:05:13.000Z</time>
      </trkpt>
      <trkpt lat="44.33369" lon="3.07882">
        <ele>727.9</ele>
        <time>2000-01-01T02:05:23.000Z</time>
      </trkpt>
      <trkpt lat="44.3338" lon="3.07896">
        <ele>727.4</ele>
        <time>2000-01-01T02:05:33.000Z</time>
      </trkpt>
      <trkpt lat="44.3339" lon="3.07909">
        <ele>727</ele>
        <time>2000-01-01T02:05:43.000Z</time>
      </trkpt>
      <trkpt lat="44.33401" lon="3.07922">
        <ele>726.7</ele>
        <time>2000-01-01T02:05:53.000Z</time>
      </trkpt>
      <trkpt lat="44.3341" lon="3.0793">
        <ele>726.6</ele>
        <time>2000-01-01T02:06:03.000Z</time>
      </trkpt>
      <trkpt lat="44.33424" lon="3.07939">
        <ele>726.5</ele>
        <time>2000-01-01T02:06:13.000Z</time>
      </trkpt>
      <trkpt lat="44.33434" lon="3.07944">
        <ele>726.3</ele>
        <time>2000-01-01T02:06:23.000Z</time>
      </trkpt>
      <trkpt lat="44.33446" lon="3.07951">
        <ele>726.2</ele>
        <time>2000-01-01T02:06:33.000Z</time>
      </trkpt>
      <trkpt lat="44.33458" lon="3.07958">
        <ele>726</ele>
        <time>2000-01-01T02:06:43.000Z</time>
      </trkpt>
      <trkpt lat="44.33477" lon="3.07971">
        <ele>725.7</ele>
        <time>2000-01-01T02:06:53.000Z</time>
      </trkpt>
      <trkpt lat="44.335" lon="3.07985">
        <ele>725.4</ele>
        <time>2000-01-01T02:07:03.000Z</time>
      </trkpt>
      <trkpt lat="44.33524" lon="3.08">
        <ele>725</ele>
        <time>2000-01-01T02:07:13.000Z</time>
      </trkpt>
      <trkpt lat="44.33547" lon="3.08014">
        <ele>724.5</ele>
        <time>2000-01-01T02:07:23.000Z</time>
      </trkpt>
      <trkpt lat="44.33566" lon="3.08026">
        <ele>723.7</ele>
        <time>2000-01-01T02:07:33.000Z</time>
      </trkpt>
      <trkpt lat="44.33579" lon="3.08035">
        <ele>723</ele>
        <time>2000-01-01T02:07:43.000Z</time>
      </trkpt>
      <trkpt lat="44.3359" lon="3.08045">
        <ele>721.9</ele>
        <time>2000-01-01T02:07:53.000Z</time>
      </trkpt>
      <trkpt lat="44.33601" lon="3.08055">
        <ele>720.8</ele>
        <time>2000-01-01T02:08:03.000Z</time>
      </trkpt>
      <trkpt lat="44.33609" lon="3.08061">
        <ele>720</ele>
        <time>2000-01-01T02:08:13.000Z</time>
      </trkpt>
      <trkpt lat="44.33621" lon="3.08067">
        <ele>719.1</ele>
        <time>2000-01-01T02:08:23.000Z</time>
      </trkpt>
      <trkpt lat="44.33635" lon="3.08074">
        <ele>718</ele>
        <time>2000-01-01T02:08:33.000Z</time>
      </trkpt>
      <trkpt lat="44.33649" lon="3.08081">
        <ele>717</ele>
        <time>2000-01-01T02:08:43.000Z</time>
      </trkpt>
      <trkpt lat="44.33663" lon="3.08092">
        <ele>715.9</ele>
        <time>2000-01-01T02:08:53.000Z</time>
      </trkpt>
      <trkpt lat="44.33677" lon="3.08104">
        <ele>713.2</ele>
        <time>2000-01-01T02:09:03.000Z</time>
      </trkpt>
      <trkpt lat="44.3369" lon="3.08115">
        <ele>710.4</ele>
        <time>2000-01-01T02:09:13.000Z</time>
      </trkpt>
      <trkpt lat="44.33697" lon="3.08124">
        <ele>708.9</ele>
        <time>2000-01-01T02:09:23.000Z</time>
      </trkpt>
      <trkpt lat="44.33704" lon="3.08135">
        <ele>707.5</ele>
        <time>2000-01-01T02:09:33.000Z</time>
      </trkpt>
      <trkpt lat="44.33713" lon="3.0815">
        <ele>705.8</ele>
        <time>2000-01-01T02:09:43.000Z</time>
      </trkpt>
      <trkpt lat="44.33724" lon="3.08168">
        <ele>704.1</ele>
        <time>2000-01-01T02:09:53.000Z</time>
      </trkpt>
      <trkpt lat="44.33737" lon="3.08188">
        <ele>703.8</ele>
        <time>2000-01-01T02:10:03.000Z</time>
      </trkpt>
      <trkpt lat="44.3375" lon="3.0821">
        <ele>704.2</ele>
        <time>2000-01-01T02:10:13.000Z</time>
      </trkpt>
      <trkpt lat="44.33757" lon="3.08223">
        <ele>705.4</ele>
        <time>2000-01-01T02:10:23.000Z</time>
      </trkpt>
      <trkpt lat="44.33762" lon="3.0823">
        <ele>706</ele>
        <time>2000-01-01T02:10:33.000Z</time>
      </trkpt>
      <trkpt lat="44.33764" lon="3.08231">
        <ele>706.1</ele>
        <time>2000-01-01T02:10:43.000Z</time>
      </trkpt>
      <trkpt lat="44.33766" lon="3.08233">
        <ele>706.3</ele>
        <time>2000-01-01T02:10:53.000Z</time>
      </trkpt>
      <trkpt lat="44.3377" lon="3.08235">
        <ele>706.4</ele>
        <time>2000-01-01T02:11:03.000Z</time>
      </trkpt>
      <trkpt lat="44.33775" lon="3.08235">
        <ele>706.4</ele>
        <time>2000-01-01T02:11:13.000Z</time>
      </trkpt>
      <trkpt lat="44.33786" lon="3.08232">
        <ele>706.1</ele>
        <time>2000-01-01T02:11:23.000Z</time>
      </trkpt>
      <trkpt lat="44.33804" lon="3.08225">
        <ele>705.5</ele>
        <time>2000-01-01T02:11:33.000Z</time>
      </trkpt>
      <trkpt lat="44.33824" lon="3.08217">
        <ele>705</ele>
        <time>2000-01-01T02:11:43.000Z</time>
      </trkpt>
      <trkpt lat="44.3383" lon="3.08216">
        <ele>705</ele>
        <time>2000-01-01T02:11:53.000Z</time>
      </trkpt>
      <trkpt lat="44.33833" lon="3.08216">
        <ele>705</ele>
        <time>2000-01-01T02:12:03.000Z</time>
      </trkpt>
      <trkpt lat="44.33834" lon="3.08216">
        <ele>705.1</ele>
        <time>2000-01-01T02:12:13.000Z</time>
      </trkpt>
      <trkpt lat="44.33835" lon="3.08216">
        <ele>705.3</ele>
        <time>2000-01-01T02:12:23.000Z</time>
      </trkpt>
      <trkpt lat="44.33836" lon="3.08219">
        <ele>705.7</ele>
        <time>2000-01-01T02:12:33.000Z</time>
      </trkpt>
      <trkpt lat="44.33837" lon="3.08221">
        <ele>706.1</ele>
        <time>2000-01-01T02:12:43.000Z</time>
      </trkpt>
      <trkpt lat="44.33837" lon="3.08231">
        <ele>706.6</ele>
        <time>2000-01-01T02:12:53.000Z</time>
      </trkpt>
      <trkpt lat="44.33837" lon="3.08274">
        <ele>707.3</ele>
        <time>2000-01-01T02:13:03.000Z</time>
      </trkpt>
      <trkpt lat="44.33836" lon="3.08353">
        <ele>705.5</ele>
        <time>2000-01-01T02:13:13.000Z</time>
      </trkpt>
      <trkpt lat="44.33836" lon="3.08358">
        <ele>705.2</ele>
        <time>2000-01-01T02:13:23.000Z</time>
      </trkpt>
      <trkpt lat="44.33835" lon="3.08362">
        <ele>704.9</ele>
        <time>2000-01-01T02:13:33.000Z</time>
      </trkpt>
      <trkpt lat="44.33833" lon="3.08364">
        <ele>704.6</ele>
        <time>2000-01-01T02:13:43.000Z</time>
      </trkpt>
      <trkpt lat="44.33832" lon="3.08364">
        <ele>704.6</ele>
        <time>2000-01-01T02:13:53.000Z</time>
      </trkpt>
      <trkpt lat="44.33829" lon="3.08366">
        <ele>704.7</ele>
        <time>2000-01-01T02:14:03.000Z</time>
      </trkpt>
      <trkpt lat="44.33828" lon="3.08367">
        <ele>704.8</ele>
        <time>2000-01-01T02:14:13.000Z</time>
      </trkpt>
      <trkpt lat="44.33825" lon="3.08371">
        <ele>704.8</ele>
        <time>2000-01-01T02:14:23.000Z</time>
      </trkpt>
      <trkpt lat="44.33822" lon="3.08381">
        <ele>704.5</ele>
        <time>2000-01-01T02:14:33.000Z</time>
      </trkpt>
      <trkpt lat="44.33816" lon="3.08402">
        <ele>704</ele>
        <time>2000-01-01T02:14:43.000Z</time>
      </trkpt>
      <trkpt lat="44.33807" lon="3.08434">
        <ele>704.1</ele>
        <time>2000-01-01T02:14:53.000Z</time>
      </trkpt>
      <trkpt lat="44.33801" lon="3.08454">
        <ele>704.5</ele>
        <time>2000-01-01T02:15:03.000Z</time>
      </trkpt>
      <trkpt lat="44.33796" lon="3.0847">
        <ele>704.6</ele>
        <time>2000-01-01T02:15:13.000Z</time>
      </trkpt>
      <trkpt lat="44.33791" lon="3.08491">
        <ele>704.6</ele>
        <time>2000-01-01T02:15:23.000Z</time>
      </trkpt>
      <trkpt lat="44.3379" lon="3.08491">
        <ele>704.5</ele>
        <time>2000-01-01T02:15:33.000Z</time>
      </trkpt>
      <trkpt lat="44.33787" lon="3.08508">
        <ele>704.5</ele>
        <time>2000-01-01T02:15:43.000Z</time>
      </trkpt>
      <trkpt lat="44.33783" lon="3.08524">
        <ele>704.3</ele>
        <time>2000-01-01T02:15:53.000Z</time>
      </trkpt>
      <trkpt lat="44.33778" lon="3.08538">
        <ele>704</ele>
        <time>2000-01-01T02:16:03.000Z</time>
      </trkpt>
      <trkpt lat="44.33772" lon="3.08552">
        <ele>703.5</ele>
        <time>2000-01-01T02:16:13.000Z</time>
      </trkpt>
      <trkpt lat="44.33766" lon="3.08565">
        <ele>702.9</ele>
        <time>2000-01-01T02:16:23.000Z</time>
      </trkpt>
      <trkpt lat="44.33759" lon="3.08577">
        <ele>702</ele>
        <time>2000-01-01T02:16:33.000Z</time>
      </trkpt>
      <trkpt lat="44.33752" lon="3.08585">
        <ele>701.2</ele>
        <time>2000-01-01T02:16:43.000Z</time>
      </trkpt>
      <trkpt lat="44.33741" lon="3.08596">
        <ele>701.6</ele>
        <time>2000-01-01T02:16:53.000Z</time>
      </trkpt>
      <trkpt lat="44.33729" lon="3.08604">
        <ele>702.2</ele>
        <time>2000-01-01T02:17:03.000Z</time>
      </trkpt>
      <trkpt lat="44.33724" lon="3.08608">
        <ele>702.4</ele>
        <time>2000-01-01T02:17:13.000Z</time>
      </trkpt>
      <trkpt lat="44.33719" lon="3.08612">
        <ele>702.6</ele>
        <time>2000-01-01T02:17:23.000Z</time>
      </trkpt>
      <trkpt lat="44.33716" lon="3.08616">
        <ele>702.6</ele>
        <time>2000-01-01T02:17:33.000Z</time>
      </trkpt>
      <trkpt lat="44.3371" lon="3.08626">
        <ele>702.7</ele>
        <time>2000-01-01T02:17:43.000Z</time>
      </trkpt>
      <trkpt lat="44.33706" lon="3.08636">
        <ele>702.6</ele>
        <time>2000-01-01T02:17:53.000Z</time>
      </trkpt>
      <trkpt lat="44.337" lon="3.08652">
        <ele>702.4</ele>
        <time>2000-01-01T02:18:03.000Z</time>
      </trkpt>
      <trkpt lat="44.33692" lon="3.08668">
        <ele>702.1</ele>
        <time>2000-01-01T02:18:13.000Z</time>
      </trkpt>
      <trkpt lat="44.33684" lon="3.08682">
        <ele>702.6</ele>
        <time>2000-01-01T02:18:23.000Z</time>
      </trkpt>
      <trkpt lat="44.33681" lon="3.08688">
        <ele>702.8</ele>
        <time>2000-01-01T02:18:33.000Z</time>
      </trkpt>
      <trkpt lat="44.33677" lon="3.08691">
        <ele>702.9</ele>
        <time>2000-01-01T02:18:43.000Z</time>
      </trkpt>
      <trkpt lat="44.33674" lon="3.08693">
        <ele>703</ele>
        <time>2000-01-01T02:18:53.000Z</time>
      </trkpt>
      <trkpt lat="44.33671" lon="3.08694">
        <ele>703</ele>
        <time>2000-01-01T02:19:03.000Z</time>
      </trkpt>
      <trkpt lat="44.33664" lon="3.08696">
        <ele>703.2</ele>
        <time>2000-01-01T02:19:13.000Z</time>
      </trkpt>
      <trkpt lat="44.3366" lon="3.08698">
        <ele>703.6</ele>
        <time>2000-01-01T02:19:23.000Z</time>
      </trkpt>
      <trkpt lat="44.33656" lon="3.08702">
        <ele>703.9</ele>
        <time>2000-01-01T02:19:33.000Z</time>
      </trkpt>
      <trkpt lat="44.33652" lon="3.08707">
        <ele>704.3</ele>
        <time>2000-01-01T02:19:43.000Z</time>
      </trkpt>
      <trkpt lat="44.33647" lon="3.08716">
        <ele>704.7</ele>
        <time>2000-01-01T02:19:53.000Z</time>
      </trkpt>
      <trkpt lat="44.33644" lon="3.08725">
        <ele>704.9</ele>
        <time>2000-01-01T02:20:03.000Z</time>
      </trkpt>
      <trkpt lat="44.33641" lon="3.08737">
        <ele>705.2</ele>
        <time>2000-01-01T02:20:13.000Z</time>
      </trkpt>
      <trkpt lat="44.33638" lon="3.0875">
        <ele>705.3</ele>
        <time>2000-01-01T02:20:23.000Z</time>
      </trkpt>
      <trkpt lat="44.33637" lon="3.08768">
        <ele>706.2</ele>
        <time>2000-01-01T02:20:33.000Z</time>
      </trkpt>
      <trkpt lat="44.33635" lon="3.08789">
        <ele>707.3</ele>
        <time>2000-01-01T02:20:43.000Z</time>
      </trkpt>
      <trkpt lat="44.33634" lon="3.08814">
        <ele>708.5</ele>
        <time>2000-01-01T02:20:53.000Z</time>
      </trkpt>
      <trkpt lat="44.33632" lon="3.08848">
        <ele>710.1</ele>
        <time>2000-01-01T02:21:03.000Z</time>
      </trkpt>
      <trkpt lat="44.3363" lon="3.08877">
        <ele>711.5</ele>
        <time>2000-01-01T02:21:13.000Z</time>
      </trkpt>
      <trkpt lat="44.33628" lon="3.08897">
        <ele>712.5</ele>
        <time>2000-01-01T02:21:23.000Z</time>
      </trkpt>
      <trkpt lat="44.33626" lon="3.0892">
        <ele>713.5</ele>
        <time>2000-01-01T02:21:33.000Z</time>
      </trkpt>
      <trkpt lat="44.33623" lon="3.08943">
        <ele>714.1</ele>
        <time>2000-01-01T02:21:43.000Z</time>
      </trkpt>
      <trkpt lat="44.33619" lon="3.08968">
        <ele>714.7</ele>
        <time>2000-01-01T02:21:53.000Z</time>
      </trkpt>
      <trkpt lat="44.33614" lon="3.09001">
        <ele>715.5</ele>
        <time>2000-01-01T02:22:03.000Z</time>
      </trkpt>
      <trkpt lat="44.33611" lon="3.09033">
        <ele>716.3</ele>
        <time>2000-01-01T02:22:13.000Z</time>
      </trkpt>
      <trkpt lat="44.33606" lon="3.09066">
        <ele>717.3</ele>
        <time>2000-01-01T02:22:23.000Z</time>
      </trkpt>
      <trkpt lat="44.33601" lon="3.09101">
        <ele>718.1</ele>
        <time>2000-01-01T02:22:33.000Z</time>
      </trkpt>
      <trkpt lat="44.33596" lon="3.09136">
        <ele>718.8</ele>
        <time>2000-01-01T02:22:43.000Z</time>
      </trkpt>
      <trkpt lat="44.33591" lon="3.0917">
        <ele>719.5</ele>
        <time>2000-01-01T02:22:53.000Z</time>
      </trkpt>
      <trkpt lat="44.33586" lon="3.09198">
        <ele>719.8</ele>
        <time>2000-01-01T02:23:03.000Z</time>
      </trkpt>
      <trkpt lat="44.33582" lon="3.09229">
        <ele>719.9</ele>
        <time>2000-01-01T02:23:13.000Z</time>
      </trkpt>
      <trkpt lat="44.33578" lon="3.09257">
        <ele>719.6</ele>
        <time>2000-01-01T02:23:23.000Z</time>
      </trkpt>
      <trkpt lat="44.33572" lon="3.09282">
        <ele>718.7</ele>
        <time>2000-01-01T02:23:33.000Z</time>
      </trkpt>
      <trkpt lat="44.33569" lon="3.09298">
        <ele>718.2</ele>
        <time>2000-01-01T02:23:43.000Z</time>
      </trkpt>
      <trkpt lat="44.33567" lon="3.09304">
        <ele>717.9</ele>
        <time>2000-01-01T02:23:53.000Z</time>
      </trkpt>
      <trkpt lat="44.33564" lon="3.09311">
        <ele>717.6</ele>
        <time>2000-01-01T02:24:03.000Z</time>
      </trkpt>
      <trkpt lat="44.33562" lon="3.09314">
        <ele>717.4</ele>
        <time>2000-01-01T02:24:13.000Z</time>
      </trkpt>
      <trkpt lat="44.3356" lon="3.09323">
        <ele>717.1</ele>
        <time>2000-01-01T02:24:23.000Z</time>
      </trkpt>
      <trkpt lat="44.33555" lon="3.0935">
        <ele>716.3</ele>
        <time>2000-01-01T02:24:33.000Z</time>
      </trkpt>
      <trkpt lat="44.33549" lon="3.09389">
        <ele>715.3</ele>
        <time>2000-01-01T02:24:43.000Z</time>
      </trkpt>
      <trkpt lat="44.33538" lon="3.09441">
        <ele>714.4</ele>
        <time>2000-01-01T02:24:53.000Z</time>
      </trkpt>
      <trkpt lat="44.33531" lon="3.09477">
        <ele>714.1</ele>
        <time>2000-01-01T02:25:03.000Z</time>
      </trkpt>
      <trkpt lat="44.33526" lon="3.09495">
        <ele>713.9</ele>
        <time>2000-01-01T02:25:13.000Z</time>
      </trkpt>
      <trkpt lat="44.33523" lon="3.09508">
        <ele>713.9</ele>
        <time>2000-01-01T02:25:23.000Z</time>
      </trkpt>
      <trkpt lat="44.33526" lon="3.09522">
        <ele>714.1</ele>
        <time>2000-01-01T02:25:33.000Z</time>
      </trkpt>
      <trkpt lat="44.3353" lon="3.09537">
        <ele>714.4</ele>
        <time>2000-01-01T02:25:43.000Z</time>
      </trkpt>
      <trkpt lat="44.33535" lon="3.09557">
        <ele>714.7</ele>
        <time>2000-01-01T02:25:53.000Z</time>
      </trkpt>
      <trkpt lat="44.3354" lon="3.09575">
        <ele>714.9</ele>
        <time>2000-01-01T02:26:03.000Z</time>
      </trkpt>
      <trkpt lat="44.33547" lon="3.09593">
        <ele>715.1</ele>
        <time>2000-01-01T02:26:13.000Z</time>
      </trkpt>
      <trkpt lat="44.33552" lon="3.09604">
        <ele>715.2</ele>
        <time>2000-01-01T02:26:23.000Z</time>
      </trkpt>
      <trkpt lat="44.33553" lon="3.09607">
        <ele>715.2</ele>
        <time>2000-01-01T02:26:33.000Z</time>
      </trkpt>
      <trkpt lat="44.33557" lon="3.09615">
        <ele>715.2</ele>
        <time>2000-01-01T02:26:43.000Z</time>
      </trkpt>
      <trkpt lat="44.33565" lon="3.0963">
        <ele>715.4</ele>
        <time>2000-01-01T02:26:53.000Z</time>
      </trkpt>
      <trkpt lat="44.3357" lon="3.0964">
        <ele>715.6</ele>
        <time>2000-01-01T02:27:03.000Z</time>
      </trkpt>
      <trkpt lat="44.33573" lon="3.0965">
        <ele>715.7</ele>
        <time>2000-01-01T02:27:13.000Z</time>
      </trkpt>
      <trkpt lat="44.33577" lon="3.09665">
        <ele>715.8</ele>
        <time>2000-01-01T02:27:23.000Z</time>
      </trkpt>
      <trkpt lat="44.3358" lon="3.09678">
        <ele>716</ele>
        <time>2000-01-01T02:27:33.000Z</time>
      </trkpt>
      <trkpt lat="44.33581" lon="3.09682">
        <ele>716.1</ele>
        <time>2000-01-01T02:27:43.000Z</time>
      </trkpt>
      <trkpt lat="44.33581" lon="3.09686">
        <ele>716.1</ele>
        <time>2000-01-01T02:27:53.000Z</time>
      </trkpt>
      <trkpt lat="44.33582" lon="3.09693">
        <ele>716.3</ele>
        <time>2000-01-01T02:28:03.000Z</time>
      </trkpt>
      <trkpt lat="44.33582" lon="3.09699">
        <ele>716.3</ele>
        <time>2000-01-01T02:28:13.000Z</time>
      </trkpt>
      <trkpt lat="44.33582" lon="3.09724">
        <ele>716.6</ele>
        <time>2000-01-01T02:28:23.000Z</time>
      </trkpt>
      <trkpt lat="44.33582" lon="3.09743">
        <ele>716.9</ele>
        <time>2000-01-01T02:28:33.000Z</time>
      </trkpt>
      <trkpt lat="44.33582" lon="3.09757">
        <ele>717</ele>
        <time>2000-01-01T02:28:43.000Z</time>
      </trkpt>
      <trkpt lat="44.33582" lon="3.09764">
        <ele>717.1</ele>
        <time>2000-01-01T02:28:53.000Z</time>
      </trkpt>
      <trkpt lat="44.33581" lon="3.09768">
        <ele>717.1</ele>
        <time>2000-01-01T02:29:03.000Z</time>
      </trkpt>
      <trkpt lat="44.33579" lon="3.09773">
        <ele>717.1</ele>
        <time>2000-01-01T02:29:13.000Z</time>
      </trkpt>
      <trkpt lat="44.33577" lon="3.09777">
        <ele>717.1</ele>
        <time>2000-01-01T02:29:23.000Z</time>
      </trkpt>
      <trkpt lat="44.33574" lon="3.09784">
        <ele>717</ele>
        <time>2000-01-01T02:29:33.000Z</time>
      </trkpt>
      <trkpt lat="44.3357" lon="3.09794">
        <ele>717</ele>
        <time>2000-01-01T02:29:43.000Z</time>
      </trkpt>
      <trkpt lat="44.33565" lon="3.09805">
        <ele>716.9</ele>
        <time>2000-01-01T02:29:53.000Z</time>
      </trkpt>
      <trkpt lat="44.33564" lon="3.09812">
        <ele>716.9</ele>
        <time>2000-01-01T02:30:03.000Z</time>
      </trkpt>
      <trkpt lat="44.33563" lon="3.09817">
        <ele>716.9</ele>
        <time>2000-01-01T02:30:13.000Z</time>
      </trkpt>
      <trkpt lat="44.33563" lon="3.09827">
        <ele>717</ele>
        <time>2000-01-01T02:30:23.000Z</time>
      </trkpt>
      <trkpt lat="44.33564" lon="3.09838">
        <ele>717</ele>
        <time>2000-01-01T02:30:33.000Z</time>
      </trkpt>
      <trkpt lat="44.33564" lon="3.09851">
        <ele>716.6</ele>
        <time>2000-01-01T02:30:43.000Z</time>
      </trkpt>
      <trkpt lat="44.33565" lon="3.0986">
        <ele>716.4</ele>
        <time>2000-01-01T02:30:53.000Z</time>
      </trkpt>
      <trkpt lat="44.33566" lon="3.09867">
        <ele>716.3</ele>
        <time>2000-01-01T02:31:03.000Z</time>
      </trkpt>
      <trkpt lat="44.33569" lon="3.09879">
        <ele>716</ele>
        <time>2000-01-01T02:31:13.000Z</time>
      </trkpt>
      <trkpt lat="44.33573" lon="3.09891">
        <ele>715.8</ele>
        <time>2000-01-01T02:31:23.000Z</time>
      </trkpt>
      <trkpt lat="44.33578" lon="3.09906">
        <ele>715.4</ele>
        <time>2000-01-01T02:31:33.000Z</time>
      </trkpt>
      <trkpt lat="44.33583" lon="3.09918">
        <ele>715</ele>
        <time>2000-01-01T02:31:43.000Z</time>
      </trkpt>
      <trkpt lat="44.33588" lon="3.0993">
        <ele>714.7</ele>
        <time>2000-01-01T02:31:53.000Z</time>
      </trkpt>
      <trkpt lat="44.33596" lon="3.09946">
        <ele>714.4</ele>
        <time>2000-01-01T02:32:03.000Z</time>
      </trkpt>
      <trkpt lat="44.336" lon="3.09954">
        <ele>714.3</ele>
        <time>2000-01-01T02:32:13.000Z</time>
      </trkpt>
      <trkpt lat="44.33602" lon="3.09961">
        <ele>714.2</ele>
        <time>2000-01-01T02:32:23.000Z</time>
      </trkpt>
      <trkpt lat="44.33605" lon="3.0997">
        <ele>714.1</ele>
        <time>2000-01-01T02:32:33.000Z</time>
      </trkpt>
      <trkpt lat="44.33607" lon="3.09978">
        <ele>714.1</ele>
        <time>2000-01-01T02:32:43.000Z</time>
      </trkpt>
      <trkpt lat="44.33609" lon="3.09994">
        <ele>714</ele>
        <time>2000-01-01T02:32:53.000Z</time>
      </trkpt>
      <trkpt lat="44.33612" lon="3.10017">
        <ele>713.8</ele>
        <time>2000-01-01T02:33:03.000Z</time>
      </trkpt>
      <trkpt lat="44.33614" lon="3.10025">
        <ele>713.7</ele>
        <time>2000-01-01T02:33:13.000Z</time>
      </trkpt>
      <trkpt lat="44.33616" lon="3.10037">
        <ele>713.6</ele>
        <time>2000-01-01T02:33:23.000Z</time>
      </trkpt>
      <trkpt lat="44.33618" lon="3.10047">
        <ele>713.4</ele>
        <time>2000-01-01T02:33:33.000Z</time>
      </trkpt>
      <trkpt lat="44.33621" lon="3.10059">
        <ele>713.3</ele>
        <time>2000-01-01T02:33:43.000Z</time>
      </trkpt>
      <trkpt lat="44.33625" lon="3.10074">
        <ele>713.2</ele>
        <time>2000-01-01T02:33:53.000Z</time>
      </trkpt>
      <trkpt lat="44.33632" lon="3.10097">
        <ele>713.2</ele>
        <time>2000-01-01T02:34:03.000Z</time>
      </trkpt>
      <trkpt lat="44.33635" lon="3.10111">
        <ele>713.3</ele>
        <time>2000-01-01T02:34:13.000Z</time>
      </trkpt>
      <trkpt lat="44.33637" lon="3.10124">
        <ele>713.3</ele>
        <time>2000-01-01T02:34:23.000Z</time>
      </trkpt>
      <trkpt lat="44.33638" lon="3.10132">
        <ele>713.3</ele>
        <time>2000-01-01T02:34:33.000Z</time>
      </trkpt>
      <trkpt lat="44.33638" lon="3.10135">
        <ele>713.3</ele>
        <time>2000-01-01T02:34:43.000Z</time>
      </trkpt>
      <trkpt lat="44.33639" lon="3.10148">
        <ele>713.3</ele>
        <time>2000-01-01T02:34:53.000Z</time>
      </trkpt>
      <trkpt lat="44.33638" lon="3.10159">
        <ele>713.3</ele>
        <time>2000-01-01T02:35:03.000Z</time>
      </trkpt>
      <trkpt lat="44.33637" lon="3.10168">
        <ele>713.4</ele>
        <time>2000-01-01T02:35:13.000Z</time>
      </trkpt>
      <trkpt lat="44.33634" lon="3.1018">
        <ele>713.5</ele>
        <time>2000-01-01T02:35:23.000Z</time>
      </trkpt>
      <trkpt lat="44.33631" lon="3.10191">
        <ele>713.6</ele>
        <time>2000-01-01T02:35:33.000Z</time>
      </trkpt>
      <trkpt lat="44.33627" lon="3.10211">
        <ele>713.7</ele>
        <time>2000-01-01T02:35:43.000Z</time>
      </trkpt>
      <trkpt lat="44.33626" lon="3.10219">
        <ele>713.8</ele>
        <time>2000-01-01T02:35:53.000Z</time>
      </trkpt>
      <trkpt lat="44.33626" lon="3.10227">
        <ele>713.8</ele>
        <time>2000-01-01T02:36:03.000Z</time>
      </trkpt>
      <trkpt lat="44.33627" lon="3.10241">
        <ele>713.9</ele>
        <time>2000-01-01T02:36:13.000Z</time>
      </trkpt>
      <trkpt lat="44.3363" lon="3.10256">
        <ele>714</ele>
        <time>2000-01-01T02:36:23.000Z</time>
      </trkpt>
      <trkpt lat="44.33633" lon="3.10271">
        <ele>714.1</ele>
        <time>2000-01-01T02:36:33.000Z</time>
      </trkpt>
      <trkpt lat="44.33635" lon="3.1028">
        <ele>714.1</ele>
        <time>2000-01-01T02:36:43.000Z</time>
      </trkpt>
      <trkpt lat="44.33636" lon="3.10287">
        <ele>714.2</ele>
        <time>2000-01-01T02:36:53.000Z</time>
      </trkpt>
      <trkpt lat="44.33637" lon="3.10296">
        <ele>714.3</ele>
        <time>2000-01-01T02:37:03.000Z</time>
      </trkpt>
      <trkpt lat="44.33638" lon="3.10314">
        <ele>714.5</ele>
        <time>2000-01-01T02:37:13.000Z</time>
      </trkpt>
      <trkpt lat="44.3364" lon="3.10346">
        <ele>714.9</ele>
        <time>2000-01-01T02:37:23.000Z</time>
      </trkpt>
      <trkpt lat="44.33641" lon="3.10364">
        <ele>715.4</ele>
        <time>2000-01-01T02:37:33.000Z</time>
      </trkpt>
      <trkpt lat="44.33642" lon="3.10376">
        <ele>715.6</ele>
        <time>2000-01-01T02:37:43.000Z</time>
      </trkpt>
      <trkpt lat="44.33646" lon="3.10398">
        <ele>716</ele>
        <time>2000-01-01T02:37:53.000Z</time>
      </trkpt>
      <trkpt lat="44.33649" lon="3.10412">
        <ele>716.3</ele>
        <time>2000-01-01T02:38:03.000Z</time>
      </trkpt>
      <trkpt lat="44.3365" lon="3.1042">
        <ele>716.5</ele>
        <time>2000-01-01T02:38:13.000Z</time>
      </trkpt>
      <trkpt lat="44.3365" lon="3.10426">
        <ele>716.8</ele>
        <time>2000-01-01T02:38:23.000Z</time>
      </trkpt>
      <trkpt lat="44.3365" lon="3.10434">
        <ele>717.1</ele>
        <time>2000-01-01T02:38:33.000Z</time>
      </trkpt>
      <trkpt lat="44.3365" lon="3.10448">
        <ele>717.8</ele>
        <time>2000-01-01T02:38:43.000Z</time>
      </trkpt>
      <trkpt lat="44.3365" lon="3.10458">
        <ele>718.2</ele>
        <time>2000-01-01T02:38:53.000Z</time>
      </trkpt>
      <trkpt lat="44.33649" lon="3.10474">
        <ele>718.9</ele>
        <time>2000-01-01T02:39:03.000Z</time>
      </trkpt>
      <trkpt lat="44.3365" lon="3.10497">
        <ele>719.9</ele>
        <time>2000-01-01T02:39:13.000Z</time>
      </trkpt>
      <trkpt lat="44.33651" lon="3.10536">
        <ele>720.9</ele>
        <time>2000-01-01T02:39:23.000Z</time>
      </trkpt>
      <trkpt lat="44.33652" lon="3.10578">
        <ele>722</ele>
        <time>2000-01-01T02:39:33.000Z</time>
      </trkpt>
      <trkpt lat="44.33653" lon="3.10607">
        <ele>724.2</ele>
        <time>2000-01-01T02:39:43.000Z</time>
      </trkpt>
      <trkpt lat="44.33654" lon="3.10636">
        <ele>726.6</ele>
        <time>2000-01-01T02:39:53.000Z</time>
      </trkpt>
      <trkpt lat="44.33654" lon="3.1066">
        <ele>728.6</ele>
        <time>2000-01-01T02:40:03.000Z</time>
      </trkpt>
      <trkpt lat="44.33654" lon="3.10683">
        <ele>730.7</ele>
        <time>2000-01-01T02:40:13.000Z</time>
      </trkpt>
      <trkpt lat="44.33653" lon="3.10701">
        <ele>732.4</ele>
        <time>2000-01-01T02:40:23.000Z</time>
      </trkpt>
      <trkpt lat="44.33653" lon="3.10726">
        <ele>734.7</ele>
        <time>2000-01-01T02:40:33.000Z</time>
      </trkpt>
      <trkpt lat="44.33653" lon="3.10727">
        <ele>734.8</ele>
        <time>2000-01-01T02:40:43.000Z</time>
      </trkpt>
      <trkpt lat="44.33653" lon="3.10741">
        <ele>736.1</ele>
        <time>2000-01-01T02:40:53.000Z</time>
      </trkpt>
      <trkpt lat="44.33653" lon="3.10746">
        <ele>736.6</ele>
        <time>2000-01-01T02:41:03.000Z</time>
      </trkpt>
      <trkpt lat="44.33652" lon="3.1075">
        <ele>737.1</ele>
        <time>2000-01-01T02:41:13.000Z</time>
      </trkpt>
      <trkpt lat="44.33649" lon="3.10753">
        <ele>737.6</ele>
        <time>2000-01-01T02:41:23.000Z</time>
      </trkpt>
      <trkpt lat="44.33647" lon="3.10754">
        <ele>737.9</ele>
        <time>2000-01-01T02:41:33.000Z</time>
      </trkpt>
      <trkpt lat="44.33645" lon="3.10756">
        <ele>738.3</ele>
        <time>2000-01-01T02:41:43.000Z</time>
      </trkpt>
      <trkpt lat="44.33642" lon="3.10758">
        <ele>738.7</ele>
        <time>2000-01-01T02:41:53.000Z</time>
      </trkpt>
      <trkpt lat="44.33638" lon="3.10758">
        <ele>739</ele>
        <time>2000-01-01T02:42:03.000Z</time>
      </trkpt>
      <trkpt lat="44.33639" lon="3.10764">
        <ele>739.7</ele>
        <time>2000-01-01T02:42:13.000Z</time>
      </trkpt>
      <trkpt lat="44.33641" lon="3.1077">
        <ele>740.2</ele>
        <time>2000-01-01T02:42:23.000Z</time>
      </trkpt>
      <trkpt lat="44.33643" lon="3.10776">
        <ele>740.8</ele>
        <time>2000-01-01T02:42:33.000Z</time>
      </trkpt>
      <trkpt lat="44.33643" lon="3.1078">
        <ele>741.3</ele>
        <time>2000-01-01T02:42:43.000Z</time>
      </trkpt>
      <trkpt lat="44.33643" lon="3.10786">
        <ele>742</ele>
        <time>2000-01-01T02:42:53.000Z</time>
      </trkpt>
      <trkpt lat="44.33643" lon="3.10793">
        <ele>742.9</ele>
        <time>2000-01-01T02:43:03.000Z</time>
      </trkpt>
      <trkpt lat="44.33641" lon="3.10802">
        <ele>744.1</ele>
        <time>2000-01-01T02:43:13.000Z</time>
      </trkpt>
      <trkpt lat="44.3364" lon="3.10809">
        <ele>745</ele>
        <time>2000-01-01T02:43:23.000Z</time>
      </trkpt>
      <trkpt lat="44.33641" lon="3.10815">
        <ele>745.6</ele>
        <time>2000-01-01T02:43:33.000Z</time>
      </trkpt>
      <trkpt lat="44.33639" lon="3.10822">
        <ele>746.6</ele>
        <time>2000-01-01T02:43:43.000Z</time>
      </trkpt>
      <trkpt lat="44.33637" lon="3.10828">
        <ele>747.5</ele>
        <time>2000-01-01T02:43:53.000Z</time>
      </trkpt>
      <trkpt lat="44.33632" lon="3.10836">
        <ele>748.8</ele>
        <time>2000-01-01T02:44:03.000Z</time>
      </trkpt>
      <trkpt lat="44.33631" lon="3.10837">
        <ele>749</ele>
        <time>2000-01-01T02:44:13.000Z</time>
      </trkpt>
      <trkpt lat="44.33637" lon="3.1085">
        <ele>750.3</ele>
        <time>2000-01-01T02:44:23.000Z</time>
      </trkpt>
      <trkpt lat="44.33648" lon="3.10871">
        <ele>752.2</ele>
        <time>2000-01-01T02:44:33.000Z</time>
      </trkpt>
      <trkpt lat="44.33655" lon="3.10887">
        <ele>753.8</ele>
        <time>2000-01-01T02:44:43.000Z</time>
      </trkpt>
      <trkpt lat="44.33656" lon="3.1089">
        <ele>754.2</ele>
        <time>2000-01-01T02:44:53.000Z</time>
      </trkpt>
      <trkpt lat="44.33662" lon="3.10901">
        <ele>755.2</ele>
        <time>2000-01-01T02:45:03.000Z</time>
      </trkpt>
      <trkpt lat="44.33668" lon="3.10915">
        <ele>756.7</ele>
        <time>2000-01-01T02:45:13.000Z</time>
      </trkpt>
      <trkpt lat="44.33674" lon="3.10924">
        <ele>757.1</ele>
        <time>2000-01-01T02:45:23.000Z</time>
      </trkpt>
      <trkpt lat="44.33677" lon="3.1093">
        <ele>757.4</ele>
        <time>2000-01-01T02:45:33.000Z</time>
      </trkpt>
      <trkpt lat="44.33683" lon="3.10941">
        <ele>757.9</ele>
        <time>2000-01-01T02:45:43.000Z</time>
      </trkpt>
      <trkpt lat="44.3369" lon="3.10951">
        <ele>758.2</ele>
        <time>2000-01-01T02:45:53.000Z</time>
      </trkpt>
      <trkpt lat="44.33693" lon="3.10955">
        <ele>758.3</ele>
        <time>2000-01-01T02:46:03.000Z</time>
      </trkpt>
      <trkpt lat="44.33695" lon="3.10957">
        <ele>758.3</ele>
        <time>2000-01-01T02:46:13.000Z</time>
      </trkpt>
      <trkpt lat="44.33698" lon="3.1096">
        <ele>758.3</ele>
        <time>2000-01-01T02:46:23.000Z</time>
      </trkpt>
      <trkpt lat="44.33699" lon="3.1096">
        <ele>758.2</ele>
        <time>2000-01-01T02:46:33.000Z</time>
      </trkpt>
      <trkpt lat="44.33702" lon="3.10962">
        <ele>758.2</ele>
        <time>2000-01-01T02:46:43.000Z</time>
      </trkpt>
      <trkpt lat="44.33705" lon="3.10966">
        <ele>758.2</ele>
        <time>2000-01-01T02:46:53.000Z</time>
      </trkpt>
      <trkpt lat="44.33708" lon="3.10971">
        <ele>758.4</ele>
        <time>2000-01-01T02:47:03.000Z</time>
      </trkpt>
      <trkpt lat="44.33711" lon="3.10976">
        <ele>758.6</ele>
        <time>2000-01-01T02:47:13.000Z</time>
      </trkpt>
      <trkpt lat="44.33712" lon="3.10981">
        <ele>758.9</ele>
        <time>2000-01-01T02:47:23.000Z</time>
      </trkpt>
      <trkpt lat="44.33713" lon="3.10986">
        <ele>759.3</ele>
        <time>2000-01-01T02:47:33.000Z</time>
      </trkpt>
      <trkpt lat="44.33712" lon="3.10992">
        <ele>759.9</ele>
        <time>2000-01-01T02:47:43.000Z</time>
      </trkpt>
      <trkpt lat="44.3371" lon="3.10999">
        <ele>760.8</ele>
        <time>2000-01-01T02:47:53.000Z</time>
      </trkpt>
      <trkpt lat="44.33709" lon="3.11004">
        <ele>761.4</ele>
        <time>2000-01-01T02:48:03.000Z</time>
      </trkpt>
      <trkpt lat="44.33709" lon="3.11006">
        <ele>761.6</ele>
        <time>2000-01-01T02:48:13.000Z</time>
      </trkpt>
      <trkpt lat="44.33709" lon="3.11008">
        <ele>761.8</ele>
        <time>2000-01-01T02:48:23.000Z</time>
      </trkpt>
      <trkpt lat="44.3371" lon="3.11018">
        <ele>762.9</ele>
        <time>2000-01-01T02:48:33.000Z</time>
      </trkpt>
      <trkpt lat="44.33711" lon="3.11024">
        <ele>763.5</ele>
        <time>2000-01-01T02:48:43.000Z</time>
      </trkpt>
      <trkpt lat="44.33712" lon="3.11027">
        <ele>763.7</ele>
        <time>2000-01-01T02:48:53.000Z</time>
      </trkpt>
      <trkpt lat="44.33707" lon="3.11031">
        <ele>764.7</ele>
        <time>2000-01-01T02:49:03.000Z</time>
      </trkpt>
      <trkpt lat="44.33699" lon="3.11035">
        <ele>765.8</ele>
        <time>2000-01-01T02:49:13.000Z</time>
      </trkpt>
      <trkpt lat="44.33691" lon="3.11038">
        <ele>766.9</ele>
        <time>2000-01-01T02:49:23.000Z</time>
      </trkpt>
      <trkpt lat="44.33688" lon="3.11038">
        <ele>767.2</ele>
        <time>2000-01-01T02:49:33.000Z</time>
      </trkpt>
      <trkpt lat="44.33685" lon="3.11039">
        <ele>767.6</ele>
        <time>2000-01-01T02:49:43.000Z</time>
      </trkpt>
      <trkpt lat="44.33681" lon="3.11039">
        <ele>767.9</ele>
        <time>2000-01-01T02:49:53.000Z</time>
      </trkpt>
      <trkpt lat="44.33677" lon="3.11038">
        <ele>768.2</ele>
        <time>2000-01-01T02:50:03.000Z</time>
      </trkpt>
      <trkpt lat="44.33673" lon="3.11035">
        <ele>768.2</ele>
        <time>2000-01-01T02:50:13.000Z</time>
      </trkpt>
      <trkpt lat="44.33667" lon="3.1103">
        <ele>768.2</ele>
        <time>2000-01-01T02:50:23.000Z</time>
      </trkpt>
      <trkpt lat="44.33661" lon="3.11025">
        <ele>768</ele>
        <time>2000-01-01T02:50:33.000Z</time>
      </trkpt>
      <trkpt lat="44.33658" lon="3.11032">
        <ele>768.9</ele>
        <time>2000-01-01T02:50:43.000Z</time>
      </trkpt>
      <trkpt lat="44.33654" lon="3.11039">
        <ele>769.9</ele>
        <time>2000-01-01T02:50:53.000Z</time>
      </trkpt>
      <trkpt lat="44.33648" lon="3.11049">
        <ele>771.3</ele>
        <time>2000-01-01T02:51:03.000Z</time>
      </trkpt>
      <trkpt lat="44.33642" lon="3.1106">
        <ele>772.9</ele>
        <time>2000-01-01T02:51:13.000Z</time>
      </trkpt>
      <trkpt lat="44.33637" lon="3.11067">
        <ele>773.9</ele>
        <time>2000-01-01T02:51:23.000Z</time>
      </trkpt>
      <trkpt lat="44.33635" lon="3.11071">
        <ele>774.5</ele>
        <time>2000-01-01T02:51:33.000Z</time>
      </trkpt>
      <trkpt lat="44.33632" lon="3.11073">
        <ele>774.9</ele>
        <time>2000-01-01T02:51:43.000Z</time>
      </trkpt>
      <trkpt lat="44.33626" lon="3.11076">
        <ele>775.6</ele>
        <time>2000-01-01T02:51:53.000Z</time>
      </trkpt>
      <trkpt lat="44.3362" lon="3.1108">
        <ele>776.4</ele>
        <time>2000-01-01T02:52:03.000Z</time>
      </trkpt>
      <trkpt lat="44.33617" lon="3.11081">
        <ele>776.7</ele>
        <time>2000-01-01T02:52:13.000Z</time>
      </trkpt>
      <trkpt lat="44.3361" lon="3.11084">
        <ele>777.5</ele>
        <time>2000-01-01T02:52:23.000Z</time>
      </trkpt>
      <trkpt lat="44.33606" lon="3.11091">
        <ele>778.5</ele>
        <time>2000-01-01T02:52:33.000Z</time>
      </trkpt>
      <trkpt lat="44.33595" lon="3.11103">
        <ele>780.6</ele>
        <time>2000-01-01T02:52:43.000Z</time>
      </trkpt>
      <trkpt lat="44.3358" lon="3.11118">
        <ele>783.1</ele>
        <time>2000-01-01T02:52:53.000Z</time>
      </trkpt>
      <trkpt lat="44.33569" lon="3.11129">
        <ele>784.1</ele>
        <time>2000-01-01T02:53:03.000Z</time>
      </trkpt>
      <trkpt lat="44.33561" lon="3.1114">
        <ele>785.2</ele>
        <time>2000-01-01T02:53:13.000Z</time>
      </trkpt>
      <trkpt lat="44.33557" lon="3.11145">
        <ele>785.7</ele>
        <time>2000-01-01T02:53:23.000Z</time>
      </trkpt>
      <trkpt lat="44.33551" lon="3.11154">
        <ele>786.6</ele>
        <time>2000-01-01T02:53:33.000Z</time>
      </trkpt>
      <trkpt lat="44.33536" lon="3.11177">
        <ele>788.8</ele>
        <time>2000-01-01T02:53:43.000Z</time>
      </trkpt>
      <trkpt lat="44.33534" lon="3.1118">
        <ele>789</ele>
        <time>2000-01-01T02:53:53.000Z</time>
      </trkpt>
      <trkpt lat="44.33522" lon="3.11199">
        <ele>790.3</ele>
        <time>2000-01-01T02:54:03.000Z</time>
      </trkpt>
      <trkpt lat="44.3351" lon="3.11219">
        <ele>791.3</ele>
        <time>2000-01-01T02:54:13.000Z</time>
      </trkpt>
      <trkpt lat="44.33501" lon="3.11236">
        <ele>792.1</ele>
        <time>2000-01-01T02:54:23.000Z</time>
      </trkpt>
      <trkpt lat="44.33496" lon="3.11247">
        <ele>792.3</ele>
        <time>2000-01-01T02:54:33.000Z</time>
      </trkpt>
      <trkpt lat="44.33492" lon="3.11258">
        <ele>792.5</ele>
        <time>2000-01-01T02:54:43.000Z</time>
      </trkpt>
      <trkpt lat="44.3349" lon="3.11264">
        <ele>792.6</ele>
        <time>2000-01-01T02:54:53.000Z</time>
      </trkpt>
      <trkpt lat="44.33489" lon="3.11269">
        <ele>792.9</ele>
        <time>2000-01-01T02:55:03.000Z</time>
      </trkpt>
      <trkpt lat="44.33483" lon="3.11315">
        <ele>795.1</ele>
        <time>2000-01-01T02:55:13.000Z</time>
      </trkpt>
      <trkpt lat="44.33479" lon="3.11347">
        <ele>796</ele>
        <time>2000-01-01T02:55:23.000Z</time>
      </trkpt>
      <trkpt lat="44.33476" lon="3.11374">
        <ele>796.1</ele>
        <time>2000-01-01T02:55:33.000Z</time>
      </trkpt>
      <trkpt lat="44.33474" lon="3.11396">
        <ele>796.2</ele>
        <time>2000-01-01T02:55:43.000Z</time>
      </trkpt>
      <trkpt lat="44.33473" lon="3.11412">
        <ele>796.4</ele>
        <time>2000-01-01T02:55:53.000Z</time>
      </trkpt>
      <trkpt lat="44.33472" lon="3.11423">
        <ele>796.7</ele>
        <time>2000-01-01T02:56:03.000Z</time>
      </trkpt>
      <trkpt lat="44.33473" lon="3.11433">
        <ele>797.4</ele>
        <time>2000-01-01T02:56:13.000Z</time>
      </trkpt>
      <trkpt lat="44.33475" lon="3.11451">
        <ele>798.9</ele>
        <time>2000-01-01T02:56:23.000Z</time>
      </trkpt>
      <trkpt lat="44.33478" lon="3.11461">
        <ele>800</ele>
        <time>2000-01-01T02:56:33.000Z</time>
      </trkpt>
      <trkpt lat="44.33482" lon="3.1147">
        <ele>801.2</ele>
        <time>2000-01-01T02:56:43.000Z</time>
      </trkpt>
      <trkpt lat="44.3349" lon="3.11484">
        <ele>803.4</ele>
        <time>2000-01-01T02:56:53.000Z</time>
      </trkpt>
      <trkpt lat="44.33497" lon="3.11499">
        <ele>805.4</ele>
        <time>2000-01-01T02:57:03.000Z</time>
      </trkpt>
      <trkpt lat="44.33501" lon="3.11512">
        <ele>806.8</ele>
        <time>2000-01-01T02:57:13.000Z</time>
      </trkpt>
      <trkpt lat="44.33504" lon="3.11524">
        <ele>808</ele>
        <time>2000-01-01T02:57:23.000Z</time>
      </trkpt>
      <trkpt lat="44.33504" lon="3.11535">
        <ele>808.5</ele>
        <time>2000-01-01T02:57:33.000Z</time>
      </trkpt>
      <trkpt lat="44.33505" lon="3.11549">
        <ele>809.5</ele>
        <time>2000-01-01T02:57:43.000Z</time>
      </trkpt>
      <trkpt lat="44.33503" lon="3.11562">
        <ele>809.7</ele>
        <time>2000-01-01T02:57:53.000Z</time>
      </trkpt>
      <trkpt lat="44.33499" lon="3.1158">
        <ele>809.7</ele>
        <time>2000-01-01T02:58:03.000Z</time>
      </trkpt>
      <trkpt lat="44.33491" lon="3.11604">
        <ele>809.9</ele>
        <time>2000-01-01T02:58:13.000Z</time>
      </trkpt>
      <trkpt lat="44.33484" lon="3.11624">
        <ele>810</ele>
        <time>2000-01-01T02:58:23.000Z</time>
      </trkpt>
      <trkpt lat="44.3348" lon="3.11634">
        <ele>810</ele>
        <time>2000-01-01T02:58:33.000Z</time>
      </trkpt>
      <trkpt lat="44.33478" lon="3.11647">
        <ele>810.4</ele>
        <time>2000-01-01T02:58:43.000Z</time>
      </trkpt>
      <trkpt lat="44.33477" lon="3.11661">
        <ele>811</ele>
        <time>2000-01-01T02:58:53.000Z</time>
      </trkpt>
      <trkpt lat="44.33478" lon="3.11672">
        <ele>811.1</ele>
        <time>2000-01-01T02:59:03.000Z</time>
      </trkpt>
      <trkpt lat="44.33479" lon="3.11682">
        <ele>810.7</ele>
        <time>2000-01-01T02:59:13.000Z</time>
      </trkpt>
      <trkpt lat="44.33479" lon="3.11687">
        <ele>810.4</ele>
        <time>2000-01-01T02:59:23.000Z</time>
      </trkpt>
      <trkpt lat="44.3348" lon="3.11695">
        <ele>810.1</ele>
        <time>2000-01-01T02:59:33.000Z</time>
      </trkpt>
      <trkpt lat="44.33481" lon="3.11698">
        <ele>810.1</ele>
        <time>2000-01-01T02:59:43.000Z</time>
      </trkpt>
      <trkpt lat="44.33481" lon="3.11698">
        <ele>810.1</ele>
        <time>2000-01-01T02:59:53.000Z</time>
      </trkpt>
      <trkpt lat="44.33494" lon="3.11705">
        <ele>811.1</ele>
        <time>2000-01-01T03:00:03.000Z</time>
      </trkpt>
      <trkpt lat="44.33506" lon="3.11712">
        <ele>812.7</ele>
        <time>2000-01-01T03:00:13.000Z</time>
      </trkpt>
      <trkpt lat="44.33513" lon="3.11717">
        <ele>814.1</ele>
        <time>2000-01-01T03:00:23.000Z</time>
      </trkpt>
      <trkpt lat="44.33518" lon="3.11722">
        <ele>815</ele>
        <time>2000-01-01T03:00:33.000Z</time>
      </trkpt>
      <trkpt lat="44.33524" lon="3.11732">
        <ele>815.7</ele>
        <time>2000-01-01T03:00:43.000Z</time>
      </trkpt>
      <trkpt lat="44.33537" lon="3.11756">
        <ele>816.9</ele>
        <time>2000-01-01T03:00:53.000Z</time>
      </trkpt>
      <trkpt lat="44.33546" lon="3.11776">
        <ele>817.2</ele>
        <time>2000-01-01T03:01:03.000Z</time>
      </trkpt>
      <trkpt lat="44.3356" lon="3.11801">
        <ele>817.9</ele>
        <time>2000-01-01T03:01:13.000Z</time>
      </trkpt>
      <trkpt lat="44.33577" lon="3.11832">
        <ele>818</ele>
        <time>2000-01-01T03:01:23.000Z</time>
      </trkpt>
      <trkpt lat="44.33585" lon="3.11847">
        <ele>818.3</ele>
        <time>2000-01-01T03:01:33.000Z</time>
      </trkpt>
      <trkpt lat="44.33588" lon="3.11853">
        <ele>818.5</ele>
        <time>2000-01-01T03:01:43.000Z</time>
      </trkpt>
      <trkpt lat="44.33591" lon="3.11856">
        <ele>818.9</ele>
        <time>2000-01-01T03:01:53.000Z</time>
      </trkpt>
      <trkpt lat="44.33604" lon="3.11865">
        <ele>821.1</ele>
        <time>2000-01-01T03:02:03.000Z</time>
      </trkpt>
      <trkpt lat="44.33622" lon="3.11878">
        <ele>823.7</ele>
        <time>2000-01-01T03:02:13.000Z</time>
      </trkpt>
      <trkpt lat="44.33638" lon="3.11891">
        <ele>825.7</ele>
        <time>2000-01-01T03:02:23.000Z</time>
      </trkpt>
      <trkpt lat="44.33654" lon="3.11905">
        <ele>827.1</ele>
        <time>2000-01-01T03:02:33.000Z</time>
      </trkpt>
      <trkpt lat="44.33671" lon="3.11924">
        <ele>828.3</ele>
        <time>2000-01-01T03:02:43.000Z</time>
      </trkpt>
      <trkpt lat="44.33687" lon="3.11944">
        <ele>829.6</ele>
        <time>2000-01-01T03:02:53.000Z</time>
      </trkpt>
      <trkpt lat="44.33695" lon="3.11955">
        <ele>830.2</ele>
        <time>2000-01-01T03:03:03.000Z</time>
      </trkpt>
      <trkpt lat="44.33702" lon="3.11969">
        <ele>830.5</ele>
        <time>2000-01-01T03:03:13.000Z</time>
      </trkpt>
      <trkpt lat="44.33708" lon="3.11984">
        <ele>830.5</ele>
        <time>2000-01-01T03:03:23.000Z</time>
      </trkpt>
      <trkpt lat="44.33715" lon="3.12003">
        <ele>830.7</ele>
        <time>2000-01-01T03:03:33.000Z</time>
      </trkpt>
      <trkpt lat="44.33722" lon="3.1202">
        <ele>831.8</ele>
        <time>2000-01-01T03:03:43.000Z</time>
      </trkpt>
      <trkpt lat="44.33727" lon="3.12036">
        <ele>832.5</ele>
        <time>2000-01-01T03:03:53.000Z</time>
      </trkpt>
      <trkpt lat="44.33733" lon="3.12038">
        <ele>832.9</ele>
        <time>2000-01-01T03:04:03.000Z</time>
      </trkpt>
      <trkpt lat="44.33739" lon="3.12039">
        <ele>833.3</ele>
        <time>2000-01-01T03:04:13.000Z</time>
      </trkpt>
      <trkpt lat="44.33755" lon="3.12042">
        <ele>833.6</ele>
        <time>2000-01-01T03:04:23.000Z</time>
      </trkpt>
      <trkpt lat="44.33768" lon="3.12046">
        <ele>832.7</ele>
        <time>2000-01-01T03:04:33.000Z</time>
      </trkpt>
      <trkpt lat="44.33783" lon="3.12051">
        <ele>831.5</ele>
        <time>2000-01-01T03:04:43.000Z</time>
      </trkpt>
      <trkpt lat="44.338" lon="3.12058">
        <ele>830.2</ele>
        <time>2000-01-01T03:04:53.000Z</time>
      </trkpt>
      <trkpt lat="44.33814" lon="3.12062">
        <ele>829</ele>
        <time>2000-01-01T03:05:03.000Z</time>
      </trkpt>
      <trkpt lat="44.33821" lon="3.12063">
        <ele>828.5</ele>
        <time>2000-01-01T03:05:13.000Z</time>
      </trkpt>
      <trkpt lat="44.33833" lon="3.12062">
        <ele>827.5</ele>
        <time>2000-01-01T03:05:23.000Z</time>
      </trkpt>
      <trkpt lat="44.33847" lon="3.1206">
        <ele>826</ele>
        <time>2000-01-01T03:05:33.000Z</time>
      </trkpt>
      <trkpt lat="44.33861" lon="3.12057">
        <ele>824.5</ele>
        <time>2000-01-01T03:05:43.000Z</time>
      </trkpt>
      <trkpt lat="44.33867" lon="3.12054">
        <ele>823.9</ele>
        <time>2000-01-01T03:05:53.000Z</time>
      </trkpt>
      <trkpt lat="44.33878" lon="3.12047">
        <ele>822.8</ele>
        <time>2000-01-01T03:06:03.000Z</time>
      </trkpt>
      <trkpt lat="44.3389" lon="3.12037">
        <ele>821.6</ele>
        <time>2000-01-01T03:06:13.000Z</time>
      </trkpt>
      <trkpt lat="44.33901" lon="3.1203">
        <ele>820.5</ele>
        <time>2000-01-01T03:06:23.000Z</time>
      </trkpt>
      <trkpt lat="44.3391" lon="3.12026">
        <ele>819.5</ele>
        <time>2000-01-01T03:06:33.000Z</time>
      </trkpt>
      <trkpt lat="44.33917" lon="3.12025">
        <ele>818.7</ele>
        <time>2000-01-01T03:06:43.000Z</time>
      </trkpt>
      <trkpt lat="44.33922" lon="3.12026">
        <ele>818.6</ele>
        <time>2000-01-01T03:06:53.000Z</time>
      </trkpt>
      <trkpt lat="44.3393" lon="3.12029">
        <ele>818.5</ele>
        <time>2000-01-01T03:07:03.000Z</time>
      </trkpt>
      <trkpt lat="44.33946" lon="3.12039">
        <ele>818.3</ele>
        <time>2000-01-01T03:07:13.000Z</time>
      </trkpt>
      <trkpt lat="44.3397" lon="3.12059">
        <ele>818.4</ele>
        <time>2000-01-01T03:07:23.000Z</time>
      </trkpt>
      <trkpt lat="44.33982" lon="3.1207">
        <ele>818.6</ele>
        <time>2000-01-01T03:07:33.000Z</time>
      </trkpt>
      <trkpt lat="44.33988" lon="3.12074">
        <ele>818.7</ele>
        <time>2000-01-01T03:07:43.000Z</time>
      </trkpt>
      <trkpt lat="44.33995" lon="3.12077">
        <ele>818.8</ele>
        <time>2000-01-01T03:07:53.000Z</time>
      </trkpt>
      <trkpt lat="44.34006" lon="3.12081">
        <ele>819.5</ele>
        <time>2000-01-01T03:08:03.000Z</time>
      </trkpt>
      <trkpt lat="44.34022" lon="3.12086">
        <ele>821.1</ele>
        <time>2000-01-01T03:08:13.000Z</time>
      </trkpt>
      <trkpt lat="44.34035" lon="3.12092">
        <ele>822.4</ele>
        <time>2000-01-01T03:08:23.000Z</time>
      </trkpt>
      <trkpt lat="44.34044" lon="3.12098">
        <ele>823.4</ele>
        <time>2000-01-01T03:08:33.000Z</time>
      </trkpt>
      <trkpt lat="44.34059" lon="3.12109">
        <ele>825.2</ele>
        <time>2000-01-01T03:08:43.000Z</time>
      </trkpt>
      <trkpt lat="44.34077" lon="3.12123">
        <ele>827.7</ele>
        <time>2000-01-01T03:08:53.000Z</time>
      </trkpt>
      <trkpt lat="44.3409" lon="3.12132">
        <ele>829.3</ele>
        <time>2000-01-01T03:09:03.000Z</time>
      </trkpt>
      <trkpt lat="44.34097" lon="3.12136">
        <ele>830</ele>
        <time>2000-01-01T03:09:13.000Z</time>
      </trkpt>
      <trkpt lat="44.34103" lon="3.12138">
        <ele>830.5</ele>
        <time>2000-01-01T03:09:23.000Z</time>
      </trkpt>
      <trkpt lat="44.34115" lon="3.12139">
        <ele>831.5</ele>
        <time>2000-01-01T03:09:33.000Z</time>
      </trkpt>
      <trkpt lat="44.3413" lon="3.12143">
        <ele>833</ele>
        <time>2000-01-01T03:09:43.000Z</time>
      </trkpt>
      <trkpt lat="44.34153" lon="3.12151">
        <ele>835.5</ele>
        <time>2000-01-01T03:09:53.000Z</time>
      </trkpt>
      <trkpt lat="44.34171" lon="3.12162">
        <ele>838</ele>
        <time>2000-01-01T03:10:03.000Z</time>
      </trkpt>
      <trkpt lat="44.34181" lon="3.12171">
        <ele>839.8</ele>
        <time>2000-01-01T03:10:13.000Z</time>
      </trkpt>
      <trkpt lat="44.34193" lon="3.12185">
        <ele>842.5</ele>
        <time>2000-01-01T03:10:23.000Z</time>
      </trkpt>
      <trkpt lat="44.34203" lon="3.12196">
        <ele>845</ele>
        <time>2000-01-01T03:10:33.000Z</time>
      </trkpt>
      <trkpt lat="44.34213" lon="3.12205">
        <ele>847.5</ele>
        <time>2000-01-01T03:10:43.000Z</time>
      </trkpt>
      <trkpt lat="44.34231" lon="3.12225">
        <ele>853.2</ele>
        <time>2000-01-01T03:10:53.000Z</time>
      </trkpt>
      <trkpt lat="44.34235" lon="3.12229">
        <ele>854.6</ele>
        <time>2000-01-01T03:11:03.000Z</time>
      </trkpt>
      <trkpt lat="44.34238" lon="3.12231">
        <ele>855.4</ele>
        <time>2000-01-01T03:11:13.000Z</time>
      </trkpt>
      <trkpt lat="44.34241" lon="3.12232">
        <ele>856.1</ele>
        <time>2000-01-01T03:11:23.000Z</time>
      </trkpt>
      <trkpt lat="44.34246" lon="3.12232">
        <ele>857</ele>
        <time>2000-01-01T03:11:33.000Z</time>
      </trkpt>
      <trkpt lat="44.34252" lon="3.1223">
        <ele>857.8</ele>
        <time>2000-01-01T03:11:43.000Z</time>
      </trkpt>
      <trkpt lat="44.34269" lon="3.12221">
        <ele>859.1</ele>
        <time>2000-01-01T03:11:53.000Z</time>
      </trkpt>
      <trkpt lat="44.34285" lon="3.12214">
        <ele>860.6</ele>
        <time>2000-01-01T03:12:03.000Z</time>
      </trkpt>
      <trkpt lat="44.34296" lon="3.12212">
        <ele>862.2</ele>
        <time>2000-01-01T03:12:13.000Z</time>
      </trkpt>
      <trkpt lat="44.34309" lon="3.12212">
        <ele>864.5</ele>
        <time>2000-01-01T03:12:23.000Z</time>
      </trkpt>
      <trkpt lat="44.34322" lon="3.12214">
        <ele>867.1</ele>
        <time>2000-01-01T03:12:33.000Z</time>
      </trkpt>
      <trkpt lat="44.34334" lon="3.12218">
        <ele>869.9</ele>
        <time>2000-01-01T03:12:43.000Z</time>
      </trkpt>
      <trkpt lat="44.3434" lon="3.12219">
        <ele>870.7</ele>
        <time>2000-01-01T03:12:53.000Z</time>
      </trkpt>
      <trkpt lat="44.34346" lon="3.12219">
        <ele>871.2</ele>
        <time>2000-01-01T03:13:03.000Z</time>
      </trkpt>
      <trkpt lat="44.34358" lon="3.12216">
        <ele>871.9</ele>
        <time>2000-01-01T03:13:13.000Z</time>
      </trkpt>
      <trkpt lat="44.34374" lon="3.12213">
        <ele>872.9</ele>
        <time>2000-01-01T03:13:23.000Z</time>
      </trkpt>
      <trkpt lat="44.34382" lon="3.12212">
        <ele>873.5</ele>
        <time>2000-01-01T03:13:33.000Z</time>
      </trkpt>
      <trkpt lat="44.34396" lon="3.12207">
        <ele>874.2</ele>
        <time>2000-01-01T03:13:43.000Z</time>
      </trkpt>
      <trkpt lat="44.34414" lon="3.12203">
        <ele>875.5</ele>
        <time>2000-01-01T03:13:53.000Z</time>
      </trkpt>
      <trkpt lat="44.34415" lon="3.122">
        <ele>875.2</ele>
        <time>2000-01-01T03:14:03.000Z</time>
      </trkpt>
      <trkpt lat="44.34417" lon="3.12198">
        <ele>875.2</ele>
        <time>2000-01-01T03:14:13.000Z</time>
      </trkpt>
      <trkpt lat="44.34422" lon="3.12196">
        <ele>875.1</ele>
        <time>2000-01-01T03:14:23.000Z</time>
      </trkpt>
      <trkpt lat="44.34417" lon="3.12198">
        <ele>875.2</ele>
        <time>2000-01-01T03:14:33.000Z</time>
      </trkpt>
      <trkpt lat="44.34415" lon="3.122">
        <ele>875.2</ele>
        <time>2000-01-01T03:14:43.000Z</time>
      </trkpt>
      <trkpt lat="44.34414" lon="3.12203">
        <ele>875.5</ele>
        <time>2000-01-01T03:14:53.000Z</time>
      </trkpt>
      <trkpt lat="44.34427" lon="3.12202">
        <ele>876.1</ele>
        <time>2000-01-01T03:15:03.000Z</time>
      </trkpt>
      <trkpt lat="44.34444" lon="3.12204">
        <ele>877.1</ele>
        <time>2000-01-01T03:15:13.000Z</time>
      </trkpt>
      <trkpt lat="44.34467" lon="3.12209">
        <ele>878.7</ele>
        <time>2000-01-01T03:15:23.000Z</time>
      </trkpt>
      <trkpt lat="44.34487" lon="3.12217">
        <ele>880.3</ele>
        <time>2000-01-01T03:15:33.000Z</time>
      </trkpt>
      <trkpt lat="44.345" lon="3.12222">
        <ele>881.3</ele>
        <time>2000-01-01T03:15:43.000Z</time>
      </trkpt>
      <trkpt lat="44.34512" lon="3.12229">
        <ele>882.8</ele>
        <time>2000-01-01T03:15:53.000Z</time>
      </trkpt>
      <trkpt lat="44.34524" lon="3.12237">
        <ele>884.1</ele>
        <time>2000-01-01T03:16:03.000Z</time>
      </trkpt>
      <trkpt lat="44.34541" lon="3.12251">
        <ele>885.6</ele>
        <time>2000-01-01T03:16:13.000Z</time>
      </trkpt>
      <trkpt lat="44.34554" lon="3.12261">
        <ele>887.4</ele>
        <time>2000-01-01T03:16:23.000Z</time>
      </trkpt>
      <trkpt lat="44.34564" lon="3.1227">
        <ele>888.7</ele>
        <time>2000-01-01T03:16:33.000Z</time>
      </trkpt>
      <trkpt lat="44.34578" lon="3.12278">
        <ele>889.7</ele>
        <time>2000-01-01T03:16:43.000Z</time>
      </trkpt>
      <trkpt lat="44.34594" lon="3.12288">
        <ele>891.7</ele>
        <time>2000-01-01T03:16:53.000Z</time>
      </trkpt>
      <trkpt lat="44.34611" lon="3.12296">
        <ele>893.9</ele>
        <time>2000-01-01T03:17:03.000Z</time>
      </trkpt>
      <trkpt lat="44.34631" lon="3.12305">
        <ele>895.8</ele>
        <time>2000-01-01T03:17:13.000Z</time>
      </trkpt>
      <trkpt lat="44.34641" lon="3.12311">
        <ele>896.5</ele>
        <time>2000-01-01T03:17:23.000Z</time>
      </trkpt>
      <trkpt lat="44.34656" lon="3.12321">
        <ele>897.1</ele>
        <time>2000-01-01T03:17:33.000Z</time>
      </trkpt>
      <trkpt lat="44.34674" lon="3.1233">
        <ele>896.8</ele>
        <time>2000-01-01T03:17:43.000Z</time>
      </trkpt>
      <trkpt lat="44.34687" lon="3.1234">
        <ele>896.8</ele>
        <time>2000-01-01T03:17:53.000Z</time>
      </trkpt>
      <trkpt lat="44.34702" lon="3.12353">
        <ele>897.4</ele>
        <time>2000-01-01T03:18:03.000Z</time>
      </trkpt>
      <trkpt lat="44.34713" lon="3.12369">
        <ele>898.3</ele>
        <time>2000-01-01T03:18:13.000Z</time>
      </trkpt>
      <trkpt lat="44.34726" lon="3.12391">
        <ele>899.6</ele>
        <time>2000-01-01T03:18:23.000Z</time>
      </trkpt>
      <trkpt lat="44.34737" lon="3.12413">
        <ele>900.8</ele>
        <time>2000-01-01T03:18:33.000Z</time>
      </trkpt>
      <trkpt lat="44.34744" lon="3.12426">
        <ele>900.8</ele>
        <time>2000-01-01T03:18:43.000Z</time>
      </trkpt>
      <trkpt lat="44.3475" lon="3.12433">
        <ele>900.6</ele>
        <time>2000-01-01T03:18:53.000Z</time>
      </trkpt>
      <trkpt lat="44.34759" lon="3.12437">
        <ele>900.4</ele>
        <time>2000-01-01T03:19:03.000Z</time>
      </trkpt>
      <trkpt lat="44.3477" lon="3.12442">
        <ele>900.1</ele>
        <time>2000-01-01T03:19:13.000Z</time>
      </trkpt>
      <trkpt lat="44.34778" lon="3.12447">
        <ele>900</ele>
        <time>2000-01-01T03:19:23.000Z</time>
      </trkpt>
      <trkpt lat="44.34783" lon="3.12455">
        <ele>900.2</ele>
        <time>2000-01-01T03:19:33.000Z</time>
      </trkpt>
      <trkpt lat="44.34787" lon="3.12467">
        <ele>900.6</ele>
        <time>2000-01-01T03:19:43.000Z</time>
      </trkpt>
      <trkpt lat="44.34792" lon="3.12484">
        <ele>901.2</ele>
        <time>2000-01-01T03:19:53.000Z</time>
      </trkpt>
      <trkpt lat="44.34797" lon="3.12497">
        <ele>901.7</ele>
        <time>2000-01-01T03:20:03.000Z</time>
      </trkpt>
      <trkpt lat="44.34804" lon="3.12506">
        <ele>902.2</ele>
        <time>2000-01-01T03:20:13.000Z</time>
      </trkpt>
      <trkpt lat="44.34813" lon="3.12513">
        <ele>902.4</ele>
        <time>2000-01-01T03:20:23.000Z</time>
      </trkpt>
      <trkpt lat="44.34826" lon="3.12516">
        <ele>902.2</ele>
        <time>2000-01-01T03:20:33.000Z</time>
      </trkpt>
      <trkpt lat="44.3484" lon="3.12516">
        <ele>901.9</ele>
        <time>2000-01-01T03:20:43.000Z</time>
      </trkpt>
      <trkpt lat="44.34857" lon="3.12518">
        <ele>902</ele>
        <time>2000-01-01T03:20:53.000Z</time>
      </trkpt>
      <trkpt lat="44.34869" lon="3.1252">
        <ele>902.2</ele>
        <time>2000-01-01T03:21:03.000Z</time>
      </trkpt>
      <trkpt lat="44.34882" lon="3.12518">
        <ele>902</ele>
        <time>2000-01-01T03:21:13.000Z</time>
      </trkpt>
      <trkpt lat="44.349" lon="3.12517">
        <ele>901.9</ele>
        <time>2000-01-01T03:21:23.000Z</time>
      </trkpt>
      <trkpt lat="44.34917" lon="3.12519">
        <ele>902</ele>
        <time>2000-01-01T03:21:33.000Z</time>
      </trkpt>
      <trkpt lat="44.3493" lon="3.12519">
        <ele>901.6</ele>
        <time>2000-01-01T03:21:43.000Z</time>
      </trkpt>
      <trkpt lat="44.34946" lon="3.12524">
        <ele>901.6</ele>
        <time>2000-01-01T03:21:53.000Z</time>
      </trkpt>
      <trkpt lat="44.34962" lon="3.1253">
        <ele>901.8</ele>
        <time>2000-01-01T03:22:03.000Z</time>
      </trkpt>
      <trkpt lat="44.34979" lon="3.12539">
        <ele>902.3</ele>
        <time>2000-01-01T03:22:13.000Z</time>
      </trkpt>
      <trkpt lat="44.34992" lon="3.12549">
        <ele>903.1</ele>
        <time>2000-01-01T03:22:23.000Z</time>
      </trkpt>
      <trkpt lat="44.35006" lon="3.12561">
        <ele>904</ele>
        <time>2000-01-01T03:22:33.000Z</time>
      </trkpt>
      <trkpt lat="44.35019" lon="3.12567">
        <ele>903.9</ele>
        <time>2000-01-01T03:22:43.000Z</time>
      </trkpt>
      <trkpt lat="44.35031" lon="3.12574">
        <ele>903.9</ele>
        <time>2000-01-01T03:22:53.000Z</time>
      </trkpt>
      <trkpt lat="44.35042" lon="3.12575">
        <ele>903.2</ele>
        <time>2000-01-01T03:23:03.000Z</time>
      </trkpt>
      <trkpt lat="44.3505" lon="3.12579">
        <ele>903</ele>
        <time>2000-01-01T03:23:13.000Z</time>
      </trkpt>
      <trkpt lat="44.35054" lon="3.1258">
        <ele>902.8</ele>
        <time>2000-01-01T03:23:23.000Z</time>
      </trkpt>
      <trkpt lat="44.35067" lon="3.12585">
        <ele>902.2</ele>
        <time>2000-01-01T03:23:33.000Z</time>
      </trkpt>
      <trkpt lat="44.35079" lon="3.12588">
        <ele>901.3</ele>
        <time>2000-01-01T03:23:43.000Z</time>
      </trkpt>
      <trkpt lat="44.3509" lon="3.12589">
        <ele>901.9</ele>
        <time>2000-01-01T03:23:53.000Z</time>
      </trkpt>
      <trkpt lat="44.35105" lon="3.1259">
        <ele>904</ele>
        <time>2000-01-01T03:24:03.000Z</time>
      </trkpt>
      <trkpt lat="44.35124" lon="3.12591">
        <ele>906.6</ele>
        <time>2000-01-01T03:24:13.000Z</time>
      </trkpt>
      <trkpt lat="44.35144" lon="3.12588">
        <ele>909.2</ele>
        <time>2000-01-01T03:24:23.000Z</time>
      </trkpt>
      <trkpt lat="44.35164" lon="3.12587">
        <ele>911.9</ele>
        <time>2000-01-01T03:24:33.000Z</time>
      </trkpt>
      <trkpt lat="44.35182" lon="3.12588">
        <ele>914.7</ele>
        <time>2000-01-01T03:24:43.000Z</time>
      </trkpt>
      <trkpt lat="44.35204" lon="3.12594">
        <ele>918.5</ele>
        <time>2000-01-01T03:24:53.000Z</time>
      </trkpt>
      <trkpt lat="44.35225" lon="3.12605">
        <ele>922.4</ele>
        <time>2000-01-01T03:25:03.000Z</time>
      </trkpt>
      <trkpt lat="44.35241" lon="3.12617">
        <ele>925.6</ele>
        <time>2000-01-01T03:25:13.000Z</time>
      </trkpt>
      <trkpt lat="44.3525" lon="3.12622">
        <ele>927.3</ele>
        <time>2000-01-01T03:25:23.000Z</time>
      </trkpt>
      <trkpt lat="44.35257" lon="3.12624">
        <ele>928.1</ele>
        <time>2000-01-01T03:25:33.000Z</time>
      </trkpt>
      <trkpt lat="44.3527" lon="3.12622">
        <ele>929.3</ele>
        <time>2000-01-01T03:25:43.000Z</time>
      </trkpt>
      <trkpt lat="44.35287" lon="3.12618">
        <ele>930.7</ele>
        <time>2000-01-01T03:25:53.000Z</time>
      </trkpt>
      <trkpt lat="44.35303" lon="3.12614">
        <ele>932.1</ele>
        <time>2000-01-01T03:26:03.000Z</time>
      </trkpt>
      <trkpt lat="44.35318" lon="3.12613">
        <ele>933.5</ele>
        <time>2000-01-01T03:26:13.000Z</time>
      </trkpt>
      <trkpt lat="44.35328" lon="3.12612">
        <ele>934.5</ele>
        <time>2000-01-01T03:26:23.000Z</time>
      </trkpt>
      <trkpt lat="44.35342" lon="3.1261">
        <ele>934.6</ele>
        <time>2000-01-01T03:26:33.000Z</time>
      </trkpt>
      <trkpt lat="44.35355" lon="3.12609">
        <ele>934.1</ele>
        <time>2000-01-01T03:26:43.000Z</time>
      </trkpt>
      <trkpt lat="44.35374" lon="3.12606">
        <ele>933.4</ele>
        <time>2000-01-01T03:26:53.000Z</time>
      </trkpt>
      <trkpt lat="44.35388" lon="3.12603">
        <ele>932.7</ele>
        <time>2000-01-01T03:27:03.000Z</time>
      </trkpt>
      <trkpt lat="44.35397" lon="3.12597">
        <ele>932.2</ele>
        <time>2000-01-01T03:27:13.000Z</time>
      </trkpt>
      <trkpt lat="44.35409" lon="3.12589">
        <ele>931.5</ele>
        <time>2000-01-01T03:27:23.000Z</time>
      </trkpt>
      <trkpt lat="44.35415" lon="3.12588">
        <ele>931.2</ele>
        <time>2000-01-01T03:27:33.000Z</time>
      </trkpt>
      <trkpt lat="44.35422" lon="3.12588">
        <ele>930.1</ele>
        <time>2000-01-01T03:27:43.000Z</time>
      </trkpt>
      <trkpt lat="44.35432" lon="3.12593">
        <ele>928.3</ele>
        <time>2000-01-01T03:27:53.000Z</time>
      </trkpt>
      <trkpt lat="44.35442" lon="3.12598">
        <ele>926.6</ele>
        <time>2000-01-01T03:28:03.000Z</time>
      </trkpt>
      <trkpt lat="44.3545" lon="3.12599">
        <ele>925.1</ele>
        <time>2000-01-01T03:28:13.000Z</time>
      </trkpt>
      <trkpt lat="44.35451" lon="3.12598">
        <ele>924.8</ele>
        <time>2000-01-01T03:28:23.000Z</time>
      </trkpt>
      <trkpt lat="44.3545" lon="3.12599">
        <ele>925.1</ele>
        <time>2000-01-01T03:28:33.000Z</time>
      </trkpt>
      <trkpt lat="44.35459" lon="3.1261">
        <ele>924</ele>
        <time>2000-01-01T03:28:43.000Z</time>
      </trkpt>
      <trkpt lat="44.35469" lon="3.1262">
        <ele>922.7</ele>
        <time>2000-01-01T03:28:53.000Z</time>
      </trkpt>
      <trkpt lat="44.35479" lon="3.12631">
        <ele>921.7</ele>
        <time>2000-01-01T03:29:03.000Z</time>
      </trkpt>
      <trkpt lat="44.35486" lon="3.12642">
        <ele>921.3</ele>
        <time>2000-01-01T03:29:13.000Z</time>
      </trkpt>
      <trkpt lat="44.35495" lon="3.12658">
        <ele>921.1</ele>
        <time>2000-01-01T03:29:23.000Z</time>
      </trkpt>
      <trkpt lat="44.35503" lon="3.12678">
        <ele>921.7</ele>
        <time>2000-01-01T03:29:33.000Z</time>
      </trkpt>
      <trkpt lat="44.35509" lon="3.12691">
        <ele>922.1</ele>
        <time>2000-01-01T03:29:43.000Z</time>
      </trkpt>
      <trkpt lat="44.35519" lon="3.12705">
        <ele>921.9</ele>
        <time>2000-01-01T03:29:53.000Z</time>
      </trkpt>
      <trkpt lat="44.35529" lon="3.12713">
        <ele>921.1</ele>
        <time>2000-01-01T03:30:03.000Z</time>
      </trkpt>
      <trkpt lat="44.35554" lon="3.12732">
        <ele>919.2</ele>
        <time>2000-01-01T03:30:13.000Z</time>
      </trkpt>
      <trkpt lat="44.35568" lon="3.12744">
        <ele>918.6</ele>
        <time>2000-01-01T03:30:23.000Z</time>
      </trkpt>
      <trkpt lat="44.35578" lon="3.12751">
        <ele>918</ele>
        <time>2000-01-01T03:30:33.000Z</time>
      </trkpt>
      <trkpt lat="44.35593" lon="3.12762">
        <ele>917.5</ele>
        <time>2000-01-01T03:30:43.000Z</time>
      </trkpt>
      <trkpt lat="44.35608" lon="3.12775">
        <ele>917.3</ele>
        <time>2000-01-01T03:30:53.000Z</time>
      </trkpt>
      <trkpt lat="44.35622" lon="3.12788">
        <ele>917.1</ele>
        <time>2000-01-01T03:31:03.000Z</time>
      </trkpt>
      <trkpt lat="44.35632" lon="3.12799">
        <ele>917.3</ele>
        <time>2000-01-01T03:31:13.000Z</time>
      </trkpt>
      <trkpt lat="44.35643" lon="3.1281">
        <ele>917.3</ele>
        <time>2000-01-01T03:31:23.000Z</time>
      </trkpt>
      <trkpt lat="44.35666" lon="3.12839">
        <ele>918</ele>
        <time>2000-01-01T03:31:33.000Z</time>
      </trkpt>
      <trkpt lat="44.35682" lon="3.12859">
        <ele>919.7</ele>
        <time>2000-01-01T03:31:43.000Z</time>
      </trkpt>
      <trkpt lat="44.35691" lon="3.12871">
        <ele>920.7</ele>
        <time>2000-01-01T03:31:53.000Z</time>
      </trkpt>
      <trkpt lat="44.357" lon="3.12882">
        <ele>921.5</ele>
        <time>2000-01-01T03:32:03.000Z</time>
      </trkpt>
      <trkpt lat="44.35704" lon="3.12886">
        <ele>921.7</ele>
        <time>2000-01-01T03:32:13.000Z</time>
      </trkpt>
      <trkpt lat="44.35712" lon="3.12893">
        <ele>921.9</ele>
        <time>2000-01-01T03:32:23.000Z</time>
      </trkpt>
      <trkpt lat="44.35727" lon="3.12905">
        <ele>922</ele>
        <time>2000-01-01T03:32:33.000Z</time>
      </trkpt>
      <trkpt lat="44.35743" lon="3.12916">
        <ele>921.7</ele>
        <time>2000-01-01T03:32:43.000Z</time>
      </trkpt>
      <trkpt lat="44.35754" lon="3.12926">
        <ele>921.9</ele>
        <time>2000-01-01T03:32:53.000Z</time>
      </trkpt>
      <trkpt lat="44.3577" lon="3.12942">
        <ele>922.5</ele>
        <time>2000-01-01T03:33:03.000Z</time>
      </trkpt>
      <trkpt lat="44.35791" lon="3.12963">
        <ele>923.1</ele>
        <time>2000-01-01T03:33:13.000Z</time>
      </trkpt>
      <trkpt lat="44.35807" lon="3.12978">
        <ele>923.3</ele>
        <time>2000-01-01T03:33:23.000Z</time>
      </trkpt>
      <trkpt lat="44.35811" lon="3.12982">
        <ele>923.4</ele>
        <time>2000-01-01T03:33:33.000Z</time>
      </trkpt>
      <trkpt lat="44.35807" lon="3.12978">
        <ele>923.3</ele>
        <time>2000-01-01T03:33:43.000Z</time>
      </trkpt>
      <trkpt lat="44.35816" lon="3.12957">
        <ele>920</ele>
        <time>2000-01-01T03:33:53.000Z</time>
      </trkpt>
      <trkpt lat="44.35829" lon="3.12925">
        <ele>915.3</ele>
        <time>2000-01-01T03:34:03.000Z</time>
      </trkpt>
      <trkpt lat="44.3584" lon="3.12899">
        <ele>911.9</ele>
        <time>2000-01-01T03:34:13.000Z</time>
      </trkpt>
      <trkpt lat="44.3585" lon="3.12876">
        <ele>908.9</ele>
        <time>2000-01-01T03:34:23.000Z</time>
      </trkpt>
      <trkpt lat="44.35863" lon="3.12843">
        <ele>904.4</ele>
        <time>2000-01-01T03:34:33.000Z</time>
      </trkpt>
      <trkpt lat="44.35871" lon="3.12822">
        <ele>901.3</ele>
        <time>2000-01-01T03:34:43.000Z</time>
      </trkpt>
      <trkpt lat="44.35872" lon="3.1282">
        <ele>901</ele>
        <time>2000-01-01T03:34:53.000Z</time>
      </trkpt>
      <trkpt lat="44.3588" lon="3.12801">
        <ele>898.2</ele>
        <time>2000-01-01T03:35:03.000Z</time>
      </trkpt>
      <trkpt lat="44.35886" lon="3.12779">
        <ele>895.4</ele>
        <time>2000-01-01T03:35:13.000Z</time>
      </trkpt>
      <trkpt lat="44.35895" lon="3.12757">
        <ele>892.5</ele>
        <time>2000-01-01T03:35:23.000Z</time>
      </trkpt>
      <trkpt lat="44.35903" lon="3.12739">
        <ele>890.3</ele>
        <time>2000-01-01T03:35:33.000Z</time>
      </trkpt>
      <trkpt lat="44.35911" lon="3.1272">
        <ele>888.3</ele>
        <time>2000-01-01T03:35:43.000Z</time>
      </trkpt>
      <trkpt lat="44.35924" lon="3.12696">
        <ele>884.8</ele>
        <time>2000-01-01T03:35:53.000Z</time>
      </trkpt>
      <trkpt lat="44.35936" lon="3.12675">
        <ele>880.9</ele>
        <time>2000-01-01T03:36:03.000Z</time>
      </trkpt>
      <trkpt lat="44.35943" lon="3.12664">
        <ele>878.6</ele>
        <time>2000-01-01T03:36:13.000Z</time>
      </trkpt>
      <trkpt lat="44.35949" lon="3.1265">
        <ele>875.5</ele>
        <time>2000-01-01T03:36:23.000Z</time>
      </trkpt>
      <trkpt lat="44.35955" lon="3.12639">
        <ele>872.9</ele>
        <time>2000-01-01T03:36:33.000Z</time>
      </trkpt>
      <trkpt lat="44.35965" lon="3.12618">
        <ele>868.5</ele>
        <time>2000-01-01T03:36:43.000Z</time>
      </trkpt>
      <trkpt lat="44.35972" lon="3.12605">
        <ele>865.7</ele>
        <time>2000-01-01T03:36:53.000Z</time>
      </trkpt>
      <trkpt lat="44.35981" lon="3.12593">
        <ele>862.9</ele>
        <time>2000-01-01T03:37:03.000Z</time>
      </trkpt>
      <trkpt lat="44.35989" lon="3.12582">
        <ele>860.5</ele>
        <time>2000-01-01T03:37:13.000Z</time>
      </trkpt>
      <trkpt lat="44.35996" lon="3.12568">
        <ele>858.4</ele>
        <time>2000-01-01T03:37:23.000Z</time>
      </trkpt>
      <trkpt lat="44.36001" lon="3.12567">
        <ele>857.8</ele>
        <time>2000-01-01T03:37:33.000Z</time>
      </trkpt>
      <trkpt lat="44.3601" lon="3.12568">
        <ele>857.3</ele>
        <time>2000-01-01T03:37:43.000Z</time>
      </trkpt>
      <trkpt lat="44.36015" lon="3.12571">
        <ele>857.3</ele>
        <time>2000-01-01T03:37:53.000Z</time>
      </trkpt>
      <trkpt lat="44.36019" lon="3.12572">
        <ele>857.1</ele>
        <time>2000-01-01T03:38:03.000Z</time>
      </trkpt>
      <trkpt lat="44.36036" lon="3.12582">
        <ele>856.8</ele>
        <time>2000-01-01T03:38:13.000Z</time>
      </trkpt>
      <trkpt lat="44.36045" lon="3.12591">
        <ele>856.9</ele>
        <time>2000-01-01T03:38:23.000Z</time>
      </trkpt>
      <trkpt lat="44.36057" lon="3.12604">
        <ele>857</ele>
        <time>2000-01-01T03:38:33.000Z</time>
      </trkpt>
      <trkpt lat="44.36063" lon="3.1261">
        <ele>856.9</ele>
        <time>2000-01-01T03:38:43.000Z</time>
      </trkpt>
      <trkpt lat="44.36067" lon="3.12612">
        <ele>856.7</ele>
        <time>2000-01-01T03:38:53.000Z</time>
      </trkpt>
      <trkpt lat="44.36072" lon="3.12613">
        <ele>856.3</ele>
        <time>2000-01-01T03:39:03.000Z</time>
      </trkpt>
      <trkpt lat="44.3608" lon="3.12611">
        <ele>855.6</ele>
        <time>2000-01-01T03:39:13.000Z</time>
      </trkpt>
      <trkpt lat="44.36088" lon="3.12605">
        <ele>855.6</ele>
        <time>2000-01-01T03:39:23.000Z</time>
      </trkpt>
      <trkpt lat="44.36095" lon="3.12599">
        <ele>856.1</ele>
        <time>2000-01-01T03:39:33.000Z</time>
      </trkpt>
      <trkpt lat="44.36104" lon="3.12587">
        <ele>856.4</ele>
        <time>2000-01-01T03:39:43.000Z</time>
      </trkpt>
      <trkpt lat="44.36114" lon="3.12577">
        <ele>856.9</ele>
        <time>2000-01-01T03:39:53.000Z</time>
      </trkpt>
      <trkpt lat="44.36128" lon="3.12567">
        <ele>857.6</ele>
        <time>2000-01-01T03:40:03.000Z</time>
      </trkpt>
      <trkpt lat="44.36143" lon="3.12556">
        <ele>858.2</ele>
        <time>2000-01-01T03:40:13.000Z</time>
      </trkpt>
      <trkpt lat="44.36151" lon="3.12547">
        <ele>858.1</ele>
        <time>2000-01-01T03:40:23.000Z</time>
      </trkpt>
      <trkpt lat="44.3616" lon="3.12534">
        <ele>857.7</ele>
        <time>2000-01-01T03:40:33.000Z</time>
      </trkpt>
      <trkpt lat="44.3617" lon="3.12516">
        <ele>856.8</ele>
        <time>2000-01-01T03:40:43.000Z</time>
      </trkpt>
      <trkpt lat="44.36177" lon="3.12502">
        <ele>856.1</ele>
        <time>2000-01-01T03:40:53.000Z</time>
      </trkpt>
      <trkpt lat="44.36185" lon="3.12488">
        <ele>855.5</ele>
        <time>2000-01-01T03:41:03.000Z</time>
      </trkpt>
      <trkpt lat="44.36193" lon="3.12473">
        <ele>854.8</ele>
        <time>2000-01-01T03:41:13.000Z</time>
      </trkpt>
      <trkpt lat="44.36194" lon="3.12471">
        <ele>854.7</ele>
        <time>2000-01-01T03:41:23.000Z</time>
      </trkpt>
      <trkpt lat="44.36202" lon="3.12454">
        <ele>854</ele>
        <time>2000-01-01T03:41:33.000Z</time>
      </trkpt>
      <trkpt lat="44.36218" lon="3.12421">
        <ele>852.9</ele>
        <time>2000-01-01T03:41:43.000Z</time>
      </trkpt>
      <trkpt lat="44.36228" lon="3.124">
        <ele>853.2</ele>
        <time>2000-01-01T03:41:53.000Z</time>
      </trkpt>
      <trkpt lat="44.36232" lon="3.12393">
        <ele>853.4</ele>
        <time>2000-01-01T03:42:03.000Z</time>
      </trkpt>
      <trkpt lat="44.36236" lon="3.12385">
        <ele>853.7</ele>
        <time>2000-01-01T03:42:13.000Z</time>
      </trkpt>
      <trkpt lat="44.36238" lon="3.12381">
        <ele>853.8</ele>
        <time>2000-01-01T03:42:23.000Z</time>
      </trkpt>
      <trkpt lat="44.36246" lon="3.12361">
        <ele>854.2</ele>
        <time>2000-01-01T03:42:33.000Z</time>
      </trkpt>
      <trkpt lat="44.36253" lon="3.12338">
        <ele>854.7</ele>
        <time>2000-01-01T03:42:43.000Z</time>
      </trkpt>
      <trkpt lat="44.3626" lon="3.1232">
        <ele>856.1</ele>
        <time>2000-01-01T03:42:53.000Z</time>
      </trkpt>
      <trkpt lat="44.36264" lon="3.12308">
        <ele>857</ele>
        <time>2000-01-01T03:43:03.000Z</time>
      </trkpt>
      <trkpt lat="44.36264" lon="3.12298">
        <ele>857</ele>
        <time>2000-01-01T03:43:13.000Z</time>
      </trkpt>
      <trkpt lat="44.36261" lon="3.12288">
        <ele>856.3</ele>
        <time>2000-01-01T03:43:23.000Z</time>
      </trkpt>
      <trkpt lat="44.3625" lon="3.12259">
        <ele>853.1</ele>
        <time>2000-01-01T03:43:33.000Z</time>
      </trkpt>
      <trkpt lat="44.36239" lon="3.12242">
        <ele>851.1</ele>
        <time>2000-01-01T03:43:43.000Z</time>
      </trkpt>
      <trkpt lat="44.36226" lon="3.12222">
        <ele>848.8</ele>
        <time>2000-01-01T03:43:53.000Z</time>
      </trkpt>
      <trkpt lat="44.36213" lon="3.12201">
        <ele>846.3</ele>
        <time>2000-01-01T03:44:03.000Z</time>
      </trkpt>
      <trkpt lat="44.36202" lon="3.12183">
        <ele>844</ele>
        <time>2000-01-01T03:44:13.000Z</time>
      </trkpt>
      <trkpt lat="44.36188" lon="3.12162">
        <ele>840.9</ele>
        <time>2000-01-01T03:44:23.000Z</time>
      </trkpt>
      <trkpt lat="44.3618" lon="3.12146">
        <ele>838.8</ele>
        <time>2000-01-01T03:44:33.000Z</time>
      </trkpt>
      <trkpt lat="44.3617" lon="3.12132">
        <ele>836.4</ele>
        <time>2000-01-01T03:44:43.000Z</time>
      </trkpt>
      <trkpt lat="44.3617" lon="3.12131">
        <ele>836.3</ele>
        <time>2000-01-01T03:44:53.000Z</time>
      </trkpt>
      <trkpt lat="44.36165" lon="3.12121">
        <ele>835.3</ele>
        <time>2000-01-01T03:45:03.000Z</time>
      </trkpt>
      <trkpt lat="44.36176" lon="3.12107">
        <ele>836.6</ele>
        <time>2000-01-01T03:45:13.000Z</time>
      </trkpt>
      <trkpt lat="44.36187" lon="3.12092">
        <ele>838</ele>
        <time>2000-01-01T03:45:23.000Z</time>
      </trkpt>
      <trkpt lat="44.36206" lon="3.12073">
        <ele>840.5</ele>
        <time>2000-01-01T03:45:33.000Z</time>
      </trkpt>
      <trkpt lat="44.36224" lon="3.12054">
        <ele>842.7</ele>
        <time>2000-01-01T03:45:43.000Z</time>
      </trkpt>
      <trkpt lat="44.36241" lon="3.12043">
        <ele>845</ele>
        <time>2000-01-01T03:45:53.000Z</time>
      </trkpt>
      <trkpt lat="44.3626" lon="3.12023">
        <ele>847</ele>
        <time>2000-01-01T03:46:03.000Z</time>
      </trkpt>
      <trkpt lat="44.36276" lon="3.12006">
        <ele>848.5</ele>
        <time>2000-01-01T03:46:13.000Z</time>
      </trkpt>
      <trkpt lat="44.36288" lon="3.11994">
        <ele>849.4</ele>
        <time>2000-01-01T03:46:23.000Z</time>
      </trkpt>
      <trkpt lat="44.36309" lon="3.11983">
        <ele>851.5</ele>
        <time>2000-01-01T03:46:33.000Z</time>
      </trkpt>
      <trkpt lat="44.36312" lon="3.11981">
        <ele>851.8</ele>
        <time>2000-01-01T03:46:43.000Z</time>
      </trkpt>
      <trkpt lat="44.36326" lon="3.11974">
        <ele>853.1</ele>
        <time>2000-01-01T03:46:53.000Z</time>
      </trkpt>
      <trkpt lat="44.36353" lon="3.11958">
        <ele>853.4</ele>
        <time>2000-01-01T03:47:03.000Z</time>
      </trkpt>
      <trkpt lat="44.36367" lon="3.11951">
        <ele>853.2</ele>
        <time>2000-01-01T03:47:13.000Z</time>
      </trkpt>
      <trkpt lat="44.36375" lon="3.11946">
        <ele>852.9</ele>
        <time>2000-01-01T03:47:23.000Z</time>
      </trkpt>
      <trkpt lat="44.36389" lon="3.1194">
        <ele>852.6</ele>
        <time>2000-01-01T03:47:33.000Z</time>
      </trkpt>
      <trkpt lat="44.364" lon="3.11938">
        <ele>852.7</ele>
        <time>2000-01-01T03:47:43.000Z</time>
      </trkpt>
      <trkpt lat="44.3641" lon="3.11939">
        <ele>853.2</ele>
        <time>2000-01-01T03:47:53.000Z</time>
      </trkpt>
      <trkpt lat="44.36414" lon="3.1194">
        <ele>853.5</ele>
        <time>2000-01-01T03:48:03.000Z</time>
      </trkpt>
      <trkpt lat="44.36426" lon="3.11941">
        <ele>854.4</ele>
        <time>2000-01-01T03:48:13.000Z</time>
      </trkpt>
      <trkpt lat="44.36444" lon="3.11943">
        <ele>856</ele>
        <time>2000-01-01T03:48:23.000Z</time>
      </trkpt>
      <trkpt lat="44.36469" lon="3.11949">
        <ele>858.5</ele>
        <time>2000-01-01T03:48:33.000Z</time>
      </trkpt>
      <trkpt lat="44.36494" lon="3.11953">
        <ele>860.5</ele>
        <time>2000-01-01T03:48:43.000Z</time>
      </trkpt>
      <trkpt lat="44.36527" lon="3.11962">
        <ele>862.1</ele>
        <time>2000-01-01T03:48:53.000Z</time>
      </trkpt>
      <trkpt lat="44.3655" lon="3.11969">
        <ele>863</ele>
        <time>2000-01-01T03:49:03.000Z</time>
      </trkpt>
      <trkpt lat="44.36577" lon="3.11974">
        <ele>863.8</ele>
        <time>2000-01-01T03:49:13.000Z</time>
      </trkpt>
      <trkpt lat="44.36597" lon="3.11985">
        <ele>866</ele>
        <time>2000-01-01T03:49:23.000Z</time>
      </trkpt>
      <trkpt lat="44.36634" lon="3.12007">
        <ele>871</ele>
        <time>2000-01-01T03:49:33.000Z</time>
      </trkpt>
      <trkpt lat="44.36653" lon="3.1202">
        <ele>873.7</ele>
        <time>2000-01-01T03:49:43.000Z</time>
      </trkpt>
      <trkpt lat="44.3667" lon="3.1203">
        <ele>875.6</ele>
        <time>2000-01-01T03:49:53.000Z</time>
      </trkpt>
      <trkpt lat="44.36687" lon="3.12042">
        <ele>877.2</ele>
        <time>2000-01-01T03:50:03.000Z</time>
      </trkpt>
      <trkpt lat="44.36702" lon="3.12055">
        <ele>878.7</ele>
        <time>2000-01-01T03:50:13.000Z</time>
      </trkpt>
      <trkpt lat="44.36714" lon="3.12067">
        <ele>880.2</ele>
        <time>2000-01-01T03:50:23.000Z</time>
      </trkpt>
      <trkpt lat="44.36729" lon="3.12083">
        <ele>882</ele>
        <time>2000-01-01T03:50:33.000Z</time>
      </trkpt>
      <trkpt lat="44.36738" lon="3.12094">
        <ele>883.4</ele>
        <time>2000-01-01T03:50:43.000Z</time>
      </trkpt>
      <trkpt lat="44.36752" lon="3.12104">
        <ele>884.5</ele>
        <time>2000-01-01T03:50:53.000Z</time>
      </trkpt>
      <trkpt lat="44.36761" lon="3.1211">
        <ele>885.2</ele>
        <time>2000-01-01T03:51:03.000Z</time>
      </trkpt>
      <trkpt lat="44.3677" lon="3.12113">
        <ele>885.6</ele>
        <time>2000-01-01T03:51:13.000Z</time>
      </trkpt>
      <trkpt lat="44.36783" lon="3.12117">
        <ele>886.2</ele>
        <time>2000-01-01T03:51:23.000Z</time>
      </trkpt>
      <trkpt lat="44.36804" lon="3.12128">
        <ele>887.7</ele>
        <time>2000-01-01T03:51:33.000Z</time>
      </trkpt>
      <trkpt lat="44.36816" lon="3.12136">
        <ele>888.8</ele>
        <time>2000-01-01T03:51:43.000Z</time>
      </trkpt>
      <trkpt lat="44.36827" lon="3.12138">
        <ele>889.2</ele>
        <time>2000-01-01T03:51:53.000Z</time>
      </trkpt>
      <trkpt lat="44.36842" lon="3.12138">
        <ele>889.8</ele>
        <time>2000-01-01T03:52:03.000Z</time>
      </trkpt>
      <trkpt lat="44.36863" lon="3.1214">
        <ele>891.6</ele>
        <time>2000-01-01T03:52:13.000Z</time>
      </trkpt>
      <trkpt lat="44.36883" lon="3.12135">
        <ele>892.5</ele>
        <time>2000-01-01T03:52:23.000Z</time>
      </trkpt>
      <trkpt lat="44.36898" lon="3.12133">
        <ele>893.4</ele>
        <time>2000-01-01T03:52:33.000Z</time>
      </trkpt>
      <trkpt lat="44.36914" lon="3.12138">
        <ele>895.1</ele>
        <time>2000-01-01T03:52:43.000Z</time>
      </trkpt>
      <trkpt lat="44.36929" lon="3.12145">
        <ele>896.1</ele>
        <time>2000-01-01T03:52:53.000Z</time>
      </trkpt>
      <trkpt lat="44.36941" lon="3.12154">
        <ele>897.1</ele>
        <time>2000-01-01T03:53:03.000Z</time>
      </trkpt>
      <trkpt lat="44.36956" lon="3.12171">
        <ele>898.8</ele>
        <time>2000-01-01T03:53:13.000Z</time>
      </trkpt>
      <trkpt lat="44.36965" lon="3.12184">
        <ele>899.6</ele>
        <time>2000-01-01T03:53:23.000Z</time>
      </trkpt>
      <trkpt lat="44.36969" lon="3.12196">
        <ele>900.3</ele>
        <time>2000-01-01T03:53:33.000Z</time>
      </trkpt>
      <trkpt lat="44.36973" lon="3.12212">
        <ele>901.2</ele>
        <time>2000-01-01T03:53:43.000Z</time>
      </trkpt>
      <trkpt lat="44.36977" lon="3.12226">
        <ele>901.8</ele>
        <time>2000-01-01T03:53:53.000Z</time>
      </trkpt>
      <trkpt lat="44.36984" lon="3.12236">
        <ele>902.1</ele>
        <time>2000-01-01T03:54:03.000Z</time>
      </trkpt>
      <trkpt lat="44.36998" lon="3.12256">
        <ele>902.5</ele>
        <time>2000-01-01T03:54:13.000Z</time>
      </trkpt>
      <trkpt lat="44.37009" lon="3.12273">
        <ele>901.8</ele>
        <time>2000-01-01T03:54:23.000Z</time>
      </trkpt>
      <trkpt lat="44.37022" lon="3.12285">
        <ele>900.3</ele>
        <time>2000-01-01T03:54:33.000Z</time>
      </trkpt>
      <trkpt lat="44.3704" lon="3.123">
        <ele>898.5</ele>
        <time>2000-01-01T03:54:43.000Z</time>
      </trkpt>
      <trkpt lat="44.3706" lon="3.12319">
        <ele>897</ele>
        <time>2000-01-01T03:54:53.000Z</time>
      </trkpt>
      <trkpt lat="44.37076" lon="3.12331">
        <ele>895.8</ele>
        <time>2000-01-01T03:55:03.000Z</time>
      </trkpt>
      <trkpt lat="44.37091" lon="3.12327">
        <ele>893.9</ele>
        <time>2000-01-01T03:55:13.000Z</time>
      </trkpt>
      <trkpt lat="44.37107" lon="3.12323">
        <ele>892.7</ele>
        <time>2000-01-01T03:55:23.000Z</time>
      </trkpt>
      <trkpt lat="44.37124" lon="3.12319">
        <ele>891.4</ele>
        <time>2000-01-01T03:55:33.000Z</time>
      </trkpt>
      <trkpt lat="44.37138" lon="3.12311">
        <ele>889.8</ele>
        <time>2000-01-01T03:55:43.000Z</time>
      </trkpt>
      <trkpt lat="44.37156" lon="3.12304">
        <ele>888</ele>
        <time>2000-01-01T03:55:53.000Z</time>
      </trkpt>
      <trkpt lat="44.37168" lon="3.123">
        <ele>886.9</ele>
        <time>2000-01-01T03:56:03.000Z</time>
      </trkpt>
      <trkpt lat="44.37181" lon="3.12293">
        <ele>885.4</ele>
        <time>2000-01-01T03:56:13.000Z</time>
      </trkpt>
      <trkpt lat="44.37202" lon="3.12285">
        <ele>883.5</ele>
        <time>2000-01-01T03:56:23.000Z</time>
      </trkpt>
      <trkpt lat="44.37215" lon="3.12277">
        <ele>882.1</ele>
        <time>2000-01-01T03:56:33.000Z</time>
      </trkpt>
      <trkpt lat="44.3723" lon="3.12267">
        <ele>880.7</ele>
        <time>2000-01-01T03:56:43.000Z</time>
      </trkpt>
      <trkpt lat="44.37243" lon="3.12261">
        <ele>879.9</ele>
        <time>2000-01-01T03:56:53.000Z</time>
      </trkpt>
      <trkpt lat="44.37258" lon="3.12253">
        <ele>878.4</ele>
        <time>2000-01-01T03:57:03.000Z</time>
      </trkpt>
      <trkpt lat="44.37278" lon="3.12245">
        <ele>875.8</ele>
        <time>2000-01-01T03:57:13.000Z</time>
      </trkpt>
      <trkpt lat="44.37297" lon="3.12236">
        <ele>873.1</ele>
        <time>2000-01-01T03:57:23.000Z</time>
      </trkpt>
      <trkpt lat="44.37324" lon="3.12229">
        <ele>869.9</ele>
        <time>2000-01-01T03:57:33.000Z</time>
      </trkpt>
      <trkpt lat="44.37348" lon="3.1222">
        <ele>866.8</ele>
        <time>2000-01-01T03:57:43.000Z</time>
      </trkpt>
      <trkpt lat="44.37351" lon="3.1222">
        <ele>866.5</ele>
        <time>2000-01-01T03:57:53.000Z</time>
      </trkpt>
      <trkpt lat="44.37342" lon="3.12194">
        <ele>864.8</ele>
        <time>2000-01-01T03:58:03.000Z</time>
      </trkpt>
      <trkpt lat="44.37322" lon="3.12164">
        <ele>863.5</ele>
        <time>2000-01-01T03:58:13.000Z</time>
      </trkpt>
      <trkpt lat="44.37299" lon="3.12143">
        <ele>861.8</ele>
        <time>2000-01-01T03:58:23.000Z</time>
      </trkpt>
      <trkpt lat="44.37278" lon="3.12124">
        <ele>860.1</ele>
        <time>2000-01-01T03:58:33.000Z</time>
      </trkpt>
      <trkpt lat="44.37265" lon="3.12104">
        <ele>857.6</ele>
        <time>2000-01-01T03:58:43.000Z</time>
      </trkpt>
      <trkpt lat="44.37253" lon="3.12075">
        <ele>853.4</ele>
        <time>2000-01-01T03:58:53.000Z</time>
      </trkpt>
      <trkpt lat="44.37241" lon="3.12045">
        <ele>850</ele>
        <time>2000-01-01T03:59:03.000Z</time>
      </trkpt>
      <trkpt lat="44.37228" lon="3.12019">
        <ele>848.1</ele>
        <time>2000-01-01T03:59:13.000Z</time>
      </trkpt>
      <trkpt lat="44.37214" lon="3.12001">
        <ele>848.1</ele>
        <time>2000-01-01T03:59:23.000Z</time>
      </trkpt>
      <trkpt lat="44.37211" lon="3.11986">
        <ele>846.9</ele>
        <time>2000-01-01T03:59:33.000Z</time>
      </trkpt>
      <trkpt lat="44.37211" lon="3.11972">
        <ele>845.3</ele>
        <time>2000-01-01T03:59:43.000Z</time>
      </trkpt>
      <trkpt lat="44.37204" lon="3.11961">
        <ele>845.4</ele>
        <time>2000-01-01T03:59:53.000Z</time>
      </trkpt>
      <trkpt lat="44.37192" lon="3.11956">
        <ele>847</ele>
        <time>2000-01-01T04:00:03.000Z</time>
      </trkpt>
      <trkpt lat="44.37178" lon="3.11951">
        <ele>849</ele>
        <time>2000-01-01T04:00:13.000Z</time>
      </trkpt>
      <trkpt lat="44.37165" lon="3.11932">
        <ele>849.1</ele>
        <time>2000-01-01T04:00:23.000Z</time>
      </trkpt>
      <trkpt lat="44.3716" lon="3.11924">
        <ele>849</ele>
        <time>2000-01-01T04:00:33.000Z</time>
      </trkpt>
      <trkpt lat="44.37149" lon="3.11907">
        <ele>848.8</ele>
        <time>2000-01-01T04:00:43.000Z</time>
      </trkpt>
      <trkpt lat="44.37165" lon="3.11885">
        <ele>843.5</ele>
        <time>2000-01-01T04:00:53.000Z</time>
      </trkpt>
      <trkpt lat="44.37183" lon="3.11853">
        <ele>837.5</ele>
        <time>2000-01-01T04:01:03.000Z</time>
      </trkpt>
      <trkpt lat="44.37194" lon="3.11825">
        <ele>833.3</ele>
        <time>2000-01-01T04:01:13.000Z</time>
      </trkpt>
      <trkpt lat="44.372" lon="3.118">
        <ele>829.6</ele>
        <time>2000-01-01T04:01:23.000Z</time>
      </trkpt>
      <trkpt lat="44.37205" lon="3.11774">
        <ele>825.8</ele>
        <time>2000-01-01T04:01:33.000Z</time>
      </trkpt>
      <trkpt lat="44.37209" lon="3.11751">
        <ele>822.6</ele>
        <time>2000-01-01T04:01:43.000Z</time>
      </trkpt>
      <trkpt lat="44.37209" lon="3.11743">
        <ele>821.6</ele>
        <time>2000-01-01T04:01:53.000Z</time>
      </trkpt>
      <trkpt lat="44.37202" lon="3.1172">
        <ele>819.2</ele>
        <time>2000-01-01T04:02:03.000Z</time>
      </trkpt>
      <trkpt lat="44.37201" lon="3.11708">
        <ele>817.8</ele>
        <time>2000-01-01T04:02:13.000Z</time>
      </trkpt>
      <trkpt lat="44.37203" lon="3.11698">
        <ele>816.4</ele>
        <time>2000-01-01T04:02:23.000Z</time>
      </trkpt>
      <trkpt lat="44.3721" lon="3.11686">
        <ele>814.3</ele>
        <time>2000-01-01T04:02:33.000Z</time>
      </trkpt>
      <trkpt lat="44.37216" lon="3.11675">
        <ele>812.5</ele>
        <time>2000-01-01T04:02:43.000Z</time>
      </trkpt>
      <trkpt lat="44.37219" lon="3.11667">
        <ele>811.3</ele>
        <time>2000-01-01T04:02:53.000Z</time>
      </trkpt>
      <trkpt lat="44.3722" lon="3.11654">
        <ele>809.8</ele>
        <time>2000-01-01T04:03:03.000Z</time>
      </trkpt>
      <trkpt lat="44.37221" lon="3.11625">
        <ele>806.7</ele>
        <time>2000-01-01T04:03:13.000Z</time>
      </trkpt>
      <trkpt lat="44.3722" lon="3.11601">
        <ele>804.3</ele>
        <time>2000-01-01T04:03:23.000Z</time>
      </trkpt>
      <trkpt lat="44.37221" lon="3.11579">
        <ele>802.1</ele>
        <time>2000-01-01T04:03:33.000Z</time>
      </trkpt>
      <trkpt lat="44.37224" lon="3.1156">
        <ele>800.8</ele>
        <time>2000-01-01T04:03:43.000Z</time>
      </trkpt>
      <trkpt lat="44.3723" lon="3.11539">
        <ele>799.3</ele>
        <time>2000-01-01T04:03:53.000Z</time>
      </trkpt>
      <trkpt lat="44.37236" lon="3.11527">
        <ele>798.3</ele>
        <time>2000-01-01T04:04:03.000Z</time>
      </trkpt>
      <trkpt lat="44.3724" lon="3.11517">
        <ele>797.5</ele>
        <time>2000-01-01T04:04:13.000Z</time>
      </trkpt>
      <trkpt lat="44.37242" lon="3.11505">
        <ele>796.7</ele>
        <time>2000-01-01T04:04:23.000Z</time>
      </trkpt>
      <trkpt lat="44.37243" lon="3.11498">
        <ele>796.4</ele>
        <time>2000-01-01T04:04:33.000Z</time>
      </trkpt>
      <trkpt lat="44.37243" lon="3.11494">
        <ele>796.5</ele>
        <time>2000-01-01T04:04:43.000Z</time>
      </trkpt>
      <trkpt lat="44.37242" lon="3.11484">
        <ele>796.7</ele>
        <time>2000-01-01T04:04:53.000Z</time>
      </trkpt>
      <trkpt lat="44.37241" lon="3.11472">
        <ele>797</ele>
        <time>2000-01-01T04:05:03.000Z</time>
      </trkpt>
      <trkpt lat="44.3724" lon="3.1146">
        <ele>797.2</ele>
        <time>2000-01-01T04:05:13.000Z</time>
      </trkpt>
      <trkpt lat="44.37239" lon="3.11449">
        <ele>797.4</ele>
        <time>2000-01-01T04:05:23.000Z</time>
      </trkpt>
      <trkpt lat="44.37238" lon="3.1144">
        <ele>797.6</ele>
        <time>2000-01-01T04:05:33.000Z</time>
      </trkpt>
      <trkpt lat="44.37238" lon="3.11436">
        <ele>797.7</ele>
        <time>2000-01-01T04:05:43.000Z</time>
      </trkpt>
      <trkpt lat="44.37239" lon="3.11427">
        <ele>797.8</ele>
        <time>2000-01-01T04:05:53.000Z</time>
      </trkpt>
      <trkpt lat="44.37241" lon="3.11419">
        <ele>798</ele>
        <time>2000-01-01T04:06:03.000Z</time>
      </trkpt>
      <trkpt lat="44.37245" lon="3.11403">
        <ele>797.8</ele>
        <time>2000-01-01T04:06:13.000Z</time>
      </trkpt>
      <trkpt lat="44.37253" lon="3.11386">
        <ele>797.5</ele>
        <time>2000-01-01T04:06:23.000Z</time>
      </trkpt>
      <trkpt lat="44.37255" lon="3.11375">
        <ele>797.4</ele>
        <time>2000-01-01T04:06:33.000Z</time>
      </trkpt>
      <trkpt lat="44.37257" lon="3.11361">
        <ele>797.1</ele>
        <time>2000-01-01T04:06:43.000Z</time>
      </trkpt>
      <trkpt lat="44.37258" lon="3.11346">
        <ele>796.9</ele>
        <time>2000-01-01T04:06:53.000Z</time>
      </trkpt>
      <trkpt lat="44.3726" lon="3.11326">
        <ele>796.5</ele>
        <time>2000-01-01T04:07:03.000Z</time>
      </trkpt>
      <trkpt lat="44.3726" lon="3.11307">
        <ele>796</ele>
        <time>2000-01-01T04:07:13.000Z</time>
      </trkpt>
      <trkpt lat="44.37259" lon="3.11294">
        <ele>795.8</ele>
        <time>2000-01-01T04:07:23.000Z</time>
      </trkpt>
      <trkpt lat="44.37256" lon="3.1128">
        <ele>795.6</ele>
        <time>2000-01-01T04:07:33.000Z</time>
      </trkpt>
      <trkpt lat="44.37262" lon="3.11279">
        <ele>795.4</ele>
        <time>2000-01-01T04:07:43.000Z</time>
      </trkpt>
      <trkpt lat="44.3726" lon="3.11262">
        <ele>795</ele>
        <time>2000-01-01T04:07:53.000Z</time>
      </trkpt>
      <trkpt lat="44.37259" lon="3.11247">
        <ele>794.8</ele>
        <time>2000-01-01T04:08:03.000Z</time>
      </trkpt>
      <trkpt lat="44.37256" lon="3.11227">
        <ele>794.9</ele>
        <time>2000-01-01T04:08:13.000Z</time>
      </trkpt>
      <trkpt lat="44.37253" lon="3.11202">
        <ele>795</ele>
        <time>2000-01-01T04:08:23.000Z</time>
      </trkpt>
      <trkpt lat="44.37249" lon="3.11176">
        <ele>795</ele>
        <time>2000-01-01T04:08:33.000Z</time>
      </trkpt>
      <trkpt lat="44.37245" lon="3.11147">
        <ele>795.7</ele>
        <time>2000-01-01T04:08:43.000Z</time>
      </trkpt>
      <trkpt lat="44.37241" lon="3.11113">
        <ele>796.8</ele>
        <time>2000-01-01T04:08:53.000Z</time>
      </trkpt>
      <trkpt lat="44.37239" lon="3.11094">
        <ele>797.4</ele>
        <time>2000-01-01T04:09:03.000Z</time>
      </trkpt>
      <trkpt lat="44.37238" lon="3.11071">
        <ele>797.9</ele>
        <time>2000-01-01T04:09:13.000Z</time>
      </trkpt>
      <trkpt lat="44.37236" lon="3.1105">
        <ele>798.3</ele>
        <time>2000-01-01T04:09:23.000Z</time>
      </trkpt>
      <trkpt lat="44.37236" lon="3.11033">
        <ele>798.6</ele>
        <time>2000-01-01T04:09:33.000Z</time>
      </trkpt>
      <trkpt lat="44.37236" lon="3.11018">
        <ele>798.8</ele>
        <time>2000-01-01T04:09:43.000Z</time>
      </trkpt>
      <trkpt lat="44.37234" lon="3.11011">
        <ele>798.9</ele>
        <time>2000-01-01T04:09:53.000Z</time>
      </trkpt>
      <trkpt lat="44.37231" lon="3.11006">
        <ele>798.8</ele>
        <time>2000-01-01T04:10:03.000Z</time>
      </trkpt>
      <trkpt lat="44.37225" lon="3.10995">
        <ele>798.6</ele>
        <time>2000-01-01T04:10:13.000Z</time>
      </trkpt>
      <trkpt lat="44.37217" lon="3.10981">
        <ele>798.4</ele>
        <time>2000-01-01T04:10:23.000Z</time>
      </trkpt>
      <trkpt lat="44.37209" lon="3.10967">
        <ele>798.1</ele>
        <time>2000-01-01T04:10:33.000Z</time>
      </trkpt>
      <trkpt lat="44.37201" lon="3.1095">
        <ele>797.9</ele>
        <time>2000-01-01T04:10:43.000Z</time>
      </trkpt>
      <trkpt lat="44.37195" lon="3.10939">
        <ele>797.7</ele>
        <time>2000-01-01T04:10:53.000Z</time>
      </trkpt>
      <trkpt lat="44.37188" lon="3.10919">
        <ele>797.5</ele>
        <time>2000-01-01T04:11:03.000Z</time>
      </trkpt>
      <trkpt lat="44.37182" lon="3.109">
        <ele>797.7</ele>
        <time>2000-01-01T04:11:13.000Z</time>
      </trkpt>
      <trkpt lat="44.37177" lon="3.10889">
        <ele>797.6</ele>
        <time>2000-01-01T04:11:23.000Z</time>
      </trkpt>
      <trkpt lat="44.37172" lon="3.10872">
        <ele>797.6</ele>
        <time>2000-01-01T04:11:33.000Z</time>
      </trkpt>
      <trkpt lat="44.37168" lon="3.10863">
        <ele>797.4</ele>
        <time>2000-01-01T04:11:43.000Z</time>
      </trkpt>
      <trkpt lat="44.37163" lon="3.10855">
        <ele>797.5</ele>
        <time>2000-01-01T04:11:53.000Z</time>
      </trkpt>
      <trkpt lat="44.37155" lon="3.10845">
        <ele>797.7</ele>
        <time>2000-01-01T04:12:03.000Z</time>
      </trkpt>
      <trkpt lat="44.37146" lon="3.10832">
        <ele>797.9</ele>
        <time>2000-01-01T04:12:13.000Z</time>
      </trkpt>
      <trkpt lat="44.37138" lon="3.10821">
        <ele>798.5</ele>
        <time>2000-01-01T04:12:23.000Z</time>
      </trkpt>
      <trkpt lat="44.37124" lon="3.10804">
        <ele>799.2</ele>
        <time>2000-01-01T04:12:33.000Z</time>
      </trkpt>
      <trkpt lat="44.37114" lon="3.10791">
        <ele>799.5</ele>
        <time>2000-01-01T04:12:43.000Z</time>
      </trkpt>
      <trkpt lat="44.37105" lon="3.1078">
        <ele>799.5</ele>
        <time>2000-01-01T04:12:53.000Z</time>
      </trkpt>
      <trkpt lat="44.37096" lon="3.10765">
        <ele>799.5</ele>
        <time>2000-01-01T04:13:03.000Z</time>
      </trkpt>
      <trkpt lat="44.3709" lon="3.10753">
        <ele>799.5</ele>
        <time>2000-01-01T04:13:13.000Z</time>
      </trkpt>
      <trkpt lat="44.37081" lon="3.10739">
        <ele>799.6</ele>
        <time>2000-01-01T04:13:23.000Z</time>
      </trkpt>
      <trkpt lat="44.37067" lon="3.10719">
        <ele>801.1</ele>
        <time>2000-01-01T04:13:33.000Z</time>
      </trkpt>
      <trkpt lat="44.37059" lon="3.10708">
        <ele>801.8</ele>
        <time>2000-01-01T04:13:43.000Z</time>
      </trkpt>
      <trkpt lat="44.37052" lon="3.10696">
        <ele>802.5</ele>
        <time>2000-01-01T04:13:53.000Z</time>
      </trkpt>
      <trkpt lat="44.37043" lon="3.10681">
        <ele>803.2</ele>
        <time>2000-01-01T04:14:03.000Z</time>
      </trkpt>
      <trkpt lat="44.37034" lon="3.10664">
        <ele>803.8</ele>
        <time>2000-01-01T04:14:13.000Z</time>
      </trkpt>
      <trkpt lat="44.37028" lon="3.1065">
        <ele>804.3</ele>
        <time>2000-01-01T04:14:23.000Z</time>
      </trkpt>
      <trkpt lat="44.37022" lon="3.10634">
        <ele>804.8</ele>
        <time>2000-01-01T04:14:33.000Z</time>
      </trkpt>
      <trkpt lat="44.3702" lon="3.10624">
        <ele>805</ele>
        <time>2000-01-01T04:14:43.000Z</time>
      </trkpt>
      <trkpt lat="44.37017" lon="3.106">
        <ele>805.5</ele>
        <time>2000-01-01T04:14:53.000Z</time>
      </trkpt>
      <trkpt lat="44.37012" lon="3.1058">
        <ele>805.9</ele>
        <time>2000-01-01T04:15:03.000Z</time>
      </trkpt>
      <trkpt lat="44.37009" lon="3.10565">
        <ele>806</ele>
        <time>2000-01-01T04:15:13.000Z</time>
      </trkpt>
      <trkpt lat="44.37005" lon="3.10542">
        <ele>806.1</ele>
        <time>2000-01-01T04:15:23.000Z</time>
      </trkpt>
      <trkpt lat="44.37002" lon="3.1053">
        <ele>806</ele>
        <time>2000-01-01T04:15:33.000Z</time>
      </trkpt>
      <trkpt lat="44.36998" lon="3.10521">
        <ele>806.2</ele>
        <time>2000-01-01T04:15:43.000Z</time>
      </trkpt>
      <trkpt lat="44.36992" lon="3.10512">
        <ele>806.9</ele>
        <time>2000-01-01T04:15:53.000Z</time>
      </trkpt>
      <trkpt lat="44.36985" lon="3.10504">
        <ele>807.6</ele>
        <time>2000-01-01T04:16:03.000Z</time>
      </trkpt>
      <trkpt lat="44.36977" lon="3.10499">
        <ele>808.5</ele>
        <time>2000-01-01T04:16:13.000Z</time>
      </trkpt>
      <trkpt lat="44.3697" lon="3.10494">
        <ele>809.1</ele>
        <time>2000-01-01T04:16:23.000Z</time>
      </trkpt>
      <trkpt lat="44.36961" lon="3.10488">
        <ele>810.1</ele>
        <time>2000-01-01T04:16:33.000Z</time>
      </trkpt>
      <trkpt lat="44.36951" lon="3.10481">
        <ele>811.1</ele>
        <time>2000-01-01T04:16:43.000Z</time>
      </trkpt>
      <trkpt lat="44.36942" lon="3.10473">
        <ele>812.1</ele>
        <time>2000-01-01T04:16:53.000Z</time>
      </trkpt>
      <trkpt lat="44.36932" lon="3.10461">
        <ele>813.2</ele>
        <time>2000-01-01T04:17:03.000Z</time>
      </trkpt>
      <trkpt lat="44.36925" lon="3.10452">
        <ele>814</ele>
        <time>2000-01-01T04:17:13.000Z</time>
      </trkpt>
      <trkpt lat="44.36922" lon="3.10443">
        <ele>814.3</ele>
        <time>2000-01-01T04:17:23.000Z</time>
      </trkpt>
      <trkpt lat="44.3692" lon="3.10433">
        <ele>814.6</ele>
        <time>2000-01-01T04:17:33.000Z</time>
      </trkpt>
      <trkpt lat="44.3692" lon="3.10418">
        <ele>814.6</ele>
        <time>2000-01-01T04:17:43.000Z</time>
      </trkpt>
      <trkpt lat="44.36919" lon="3.104">
        <ele>814.7</ele>
        <time>2000-01-01T04:17:53.000Z</time>
      </trkpt>
      <trkpt lat="44.3692" lon="3.1038">
        <ele>814.6</ele>
        <time>2000-01-01T04:18:03.000Z</time>
      </trkpt>
      <trkpt lat="44.36918" lon="3.10358">
        <ele>814.8</ele>
        <time>2000-01-01T04:18:13.000Z</time>
      </trkpt>
      <trkpt lat="44.36917" lon="3.10345">
        <ele>815</ele>
        <time>2000-01-01T04:18:23.000Z</time>
      </trkpt>
      <trkpt lat="44.36913" lon="3.10327">
        <ele>815.7</ele>
        <time>2000-01-01T04:18:33.000Z</time>
      </trkpt>
      <trkpt lat="44.36907" lon="3.10309">
        <ele>816.2</ele>
        <time>2000-01-01T04:18:43.000Z</time>
      </trkpt>
      <trkpt lat="44.36899" lon="3.10292">
        <ele>817.3</ele>
        <time>2000-01-01T04:18:53.000Z</time>
      </trkpt>
      <trkpt lat="44.3689" lon="3.1027">
        <ele>818</ele>
        <time>2000-01-01T04:19:03.000Z</time>
      </trkpt>
      <trkpt lat="44.36883" lon="3.10252">
        <ele>818.4</ele>
        <time>2000-01-01T04:19:13.000Z</time>
      </trkpt>
      <trkpt lat="44.36876" lon="3.10237">
        <ele>819</ele>
        <time>2000-01-01T04:19:23.000Z</time>
      </trkpt>
      <trkpt lat="44.36868" lon="3.1022">
        <ele>819.5</ele>
        <time>2000-01-01T04:19:33.000Z</time>
      </trkpt>
      <trkpt lat="44.36859" lon="3.10201">
        <ele>819.6</ele>
        <time>2000-01-01T04:19:43.000Z</time>
      </trkpt>
      <trkpt lat="44.3685" lon="3.10185">
        <ele>819.6</ele>
        <time>2000-01-01T04:19:53.000Z</time>
      </trkpt>
      <trkpt lat="44.36842" lon="3.10169">
        <ele>819.2</ele>
        <time>2000-01-01T04:20:03.000Z</time>
      </trkpt>
      <trkpt lat="44.36834" lon="3.1015">
        <ele>818.3</ele>
        <time>2000-01-01T04:20:13.000Z</time>
      </trkpt>
      <trkpt lat="44.36827" lon="3.10133">
        <ele>818.1</ele>
        <time>2000-01-01T04:20:23.000Z</time>
      </trkpt>
      <trkpt lat="44.3682" lon="3.10117">
        <ele>817.9</ele>
        <time>2000-01-01T04:20:33.000Z</time>
      </trkpt>
      <trkpt lat="44.36814" lon="3.10104">
        <ele>817.8</ele>
        <time>2000-01-01T04:20:43.000Z</time>
      </trkpt>
      <trkpt lat="44.36806" lon="3.1009">
        <ele>817.9</ele>
        <time>2000-01-01T04:20:53.000Z</time>
      </trkpt>
      <trkpt lat="44.36801" lon="3.1008">
        <ele>818</ele>
        <time>2000-01-01T04:21:03.000Z</time>
      </trkpt>
      <trkpt lat="44.36793" lon="3.1007">
        <ele>818.6</ele>
        <time>2000-01-01T04:21:13.000Z</time>
      </trkpt>
      <trkpt lat="44.36788" lon="3.10064">
        <ele>818.9</ele>
        <time>2000-01-01T04:21:23.000Z</time>
      </trkpt>
      <trkpt lat="44.36782" lon="3.10059">
        <ele>819.3</ele>
        <time>2000-01-01T04:21:33.000Z</time>
      </trkpt>
      <trkpt lat="44.36774" lon="3.10051">
        <ele>819.6</ele>
        <time>2000-01-01T04:21:43.000Z</time>
      </trkpt>
      <trkpt lat="44.36766" lon="3.10044">
        <ele>819.8</ele>
        <time>2000-01-01T04:21:53.000Z</time>
      </trkpt>
      <trkpt lat="44.36758" lon="3.10037">
        <ele>819.8</ele>
        <time>2000-01-01T04:22:03.000Z</time>
      </trkpt>
      <trkpt lat="44.3675" lon="3.1003">
        <ele>819.7</ele>
        <time>2000-01-01T04:22:13.000Z</time>
      </trkpt>
      <trkpt lat="44.36741" lon="3.10021">
        <ele>819.9</ele>
        <time>2000-01-01T04:22:23.000Z</time>
      </trkpt>
      <trkpt lat="44.36732" lon="3.10013">
        <ele>820.4</ele>
        <time>2000-01-01T04:22:33.000Z</time>
      </trkpt>
      <trkpt lat="44.36721" lon="3.10002">
        <ele>820.9</ele>
        <time>2000-01-01T04:22:43.000Z</time>
      </trkpt>
      <trkpt lat="44.36713" lon="3.0999">
        <ele>821.4</ele>
        <time>2000-01-01T04:22:53.000Z</time>
      </trkpt>
      <trkpt lat="44.36702" lon="3.09978">
        <ele>822.4</ele>
        <time>2000-01-01T04:23:03.000Z</time>
      </trkpt>
      <trkpt lat="44.36691" lon="3.09964">
        <ele>822.9</ele>
        <time>2000-01-01T04:23:13.000Z</time>
      </trkpt>
      <trkpt lat="44.36682" lon="3.09949">
        <ele>822.7</ele>
        <time>2000-01-01T04:23:23.000Z</time>
      </trkpt>
      <trkpt lat="44.36672" lon="3.09933">
        <ele>822.3</ele>
        <time>2000-01-01T04:23:33.000Z</time>
      </trkpt>
      <trkpt lat="44.36664" lon="3.09917">
        <ele>821.4</ele>
        <time>2000-01-01T04:23:43.000Z</time>
      </trkpt>
      <trkpt lat="44.36655" lon="3.09901">
        <ele>822</ele>
        <time>2000-01-01T04:23:53.000Z</time>
      </trkpt>
      <trkpt lat="44.36646" lon="3.09881">
        <ele>822.1</ele>
        <time>2000-01-01T04:24:03.000Z</time>
      </trkpt>
      <trkpt lat="44.3664" lon="3.09863">
        <ele>821.8</ele>
        <time>2000-01-01T04:24:13.000Z</time>
      </trkpt>
      <trkpt lat="44.36637" lon="3.09853">
        <ele>821.5</ele>
        <time>2000-01-01T04:24:23.000Z</time>
      </trkpt>
      <trkpt lat="44.36636" lon="3.0985">
        <ele>821.4</ele>
        <time>2000-01-01T04:24:33.000Z</time>
      </trkpt>
      <trkpt lat="44.36635" lon="3.09839">
        <ele>820.8</ele>
        <time>2000-01-01T04:24:43.000Z</time>
      </trkpt>
      <trkpt lat="44.36634" lon="3.09829">
        <ele>820.7</ele>
        <time>2000-01-01T04:24:53.000Z</time>
      </trkpt>
      <trkpt lat="44.36634" lon="3.09826">
        <ele>820.8</ele>
        <time>2000-01-01T04:25:03.000Z</time>
      </trkpt>
      <trkpt lat="44.36632" lon="3.09813">
        <ele>821.2</ele>
        <time>2000-01-01T04:25:13.000Z</time>
      </trkpt>
      <trkpt lat="44.36629" lon="3.09804">
        <ele>821.5</ele>
        <time>2000-01-01T04:25:23.000Z</time>
      </trkpt>
      <trkpt lat="44.36624" lon="3.09792">
        <ele>821.8</ele>
        <time>2000-01-01T04:25:33.000Z</time>
      </trkpt>
      <trkpt lat="44.36614" lon="3.0977">
        <ele>822</ele>
        <time>2000-01-01T04:25:43.000Z</time>
      </trkpt>
      <trkpt lat="44.36606" lon="3.09755">
        <ele>821.8</ele>
        <time>2000-01-01T04:25:53.000Z</time>
      </trkpt>
      <trkpt lat="44.36596" lon="3.09734">
        <ele>821.6</ele>
        <time>2000-01-01T04:26:03.000Z</time>
      </trkpt>
      <trkpt lat="44.36586" lon="3.09714">
        <ele>821.2</ele>
        <time>2000-01-01T04:26:13.000Z</time>
      </trkpt>
      <trkpt lat="44.36576" lon="3.09689">
        <ele>821.2</ele>
        <time>2000-01-01T04:26:23.000Z</time>
      </trkpt>
      <trkpt lat="44.36568" lon="3.09677">
        <ele>821.4</ele>
        <time>2000-01-01T04:26:33.000Z</time>
      </trkpt>
      <trkpt lat="44.3655" lon="3.09657">
        <ele>822</ele>
        <time>2000-01-01T04:26:43.000Z</time>
      </trkpt>
      <trkpt lat="44.3654" lon="3.09644">
        <ele>822.4</ele>
        <time>2000-01-01T04:26:53.000Z</time>
      </trkpt>
      <trkpt lat="44.36532" lon="3.09632">
        <ele>822.6</ele>
        <time>2000-01-01T04:27:03.000Z</time>
      </trkpt>
      <trkpt lat="44.36524" lon="3.09619">
        <ele>822.7</ele>
        <time>2000-01-01T04:27:13.000Z</time>
      </trkpt>
      <trkpt lat="44.36521" lon="3.09612">
        <ele>822.7</ele>
        <time>2000-01-01T04:27:23.000Z</time>
      </trkpt>
      <trkpt lat="44.36517" lon="3.09594">
        <ele>822.6</ele>
        <time>2000-01-01T04:27:33.000Z</time>
      </trkpt>
      <trkpt lat="44.36512" lon="3.09578">
        <ele>822.7</ele>
        <time>2000-01-01T04:27:43.000Z</time>
      </trkpt>
      <trkpt lat="44.36507" lon="3.09562">
        <ele>823.1</ele>
        <time>2000-01-01T04:27:53.000Z</time>
      </trkpt>
      <trkpt lat="44.365" lon="3.09536">
        <ele>823.7</ele>
        <time>2000-01-01T04:28:03.000Z</time>
      </trkpt>
      <trkpt lat="44.36494" lon="3.09513">
        <ele>824.6</ele>
        <time>2000-01-01T04:28:13.000Z</time>
      </trkpt>
      <trkpt lat="44.36486" lon="3.09487">
        <ele>825.7</ele>
        <time>2000-01-01T04:28:23.000Z</time>
      </trkpt>
      <trkpt lat="44.36479" lon="3.09464">
        <ele>826.7</ele>
        <time>2000-01-01T04:28:33.000Z</time>
      </trkpt>
      <trkpt lat="44.36472" lon="3.09432">
        <ele>828.1</ele>
        <time>2000-01-01T04:28:43.000Z</time>
      </trkpt>
      <trkpt lat="44.3647" lon="3.09415">
        <ele>828.8</ele>
        <time>2000-01-01T04:28:53.000Z</time>
      </trkpt>
      <trkpt lat="44.36466" lon="3.09392">
        <ele>829.8</ele>
        <time>2000-01-01T04:29:03.000Z</time>
      </trkpt>
      <trkpt lat="44.36461" lon="3.09371">
        <ele>831</ele>
        <time>2000-01-01T04:29:13.000Z</time>
      </trkpt>
      <trkpt lat="44.36456" lon="3.09349">
        <ele>832.4</ele>
        <time>2000-01-01T04:29:23.000Z</time>
      </trkpt>
      <trkpt lat="44.36452" lon="3.09329">
        <ele>833.7</ele>
        <time>2000-01-01T04:29:33.000Z</time>
      </trkpt>
      <trkpt lat="44.36448" lon="3.0931">
        <ele>834.7</ele>
        <time>2000-01-01T04:29:43.000Z</time>
      </trkpt>
      <trkpt lat="44.36446" lon="3.09294">
        <ele>835.3</ele>
        <time>2000-01-01T04:29:53.000Z</time>
      </trkpt>
      <trkpt lat="44.36444" lon="3.09269">
        <ele>836.2</ele>
        <time>2000-01-01T04:30:03.000Z</time>
      </trkpt>
      <trkpt lat="44.36441" lon="3.09253">
        <ele>836.9</ele>
        <time>2000-01-01T04:30:13.000Z</time>
      </trkpt>
      <trkpt lat="44.36436" lon="3.09228">
        <ele>837.9</ele>
        <time>2000-01-01T04:30:23.000Z</time>
      </trkpt>
      <trkpt lat="44.36432" lon="3.09207">
        <ele>838.7</ele>
        <time>2000-01-01T04:30:33.000Z</time>
      </trkpt>
      <trkpt lat="44.36429" lon="3.09187">
        <ele>839.5</ele>
        <time>2000-01-01T04:30:43.000Z</time>
      </trkpt>
      <trkpt lat="44.36426" lon="3.09169">
        <ele>840.2</ele>
        <time>2000-01-01T04:30:53.000Z</time>
      </trkpt>
      <trkpt lat="44.36426" lon="3.0916">
        <ele>840.4</ele>
        <time>2000-01-01T04:31:03.000Z</time>
      </trkpt>
      <trkpt lat="44.36429" lon="3.09149">
        <ele>840.5</ele>
        <time>2000-01-01T04:31:13.000Z</time>
      </trkpt>
      <trkpt lat="44.36434" lon="3.09131">
        <ele>840.6</ele>
        <time>2000-01-01T04:31:23.000Z</time>
      </trkpt>
      <trkpt lat="44.36436" lon="3.09117">
        <ele>840.9</ele>
        <time>2000-01-01T04:31:33.000Z</time>
      </trkpt>
      <trkpt lat="44.36436" lon="3.09115">
        <ele>840.9</ele>
        <time>2000-01-01T04:31:43.000Z</time>
      </trkpt>
      <trkpt lat="44.36437" lon="3.091">
        <ele>841.3</ele>
        <time>2000-01-01T04:31:53.000Z</time>
      </trkpt>
      <trkpt lat="44.36437" lon="3.09085">
        <ele>841.8</ele>
        <time>2000-01-01T04:32:03.000Z</time>
      </trkpt>
      <trkpt lat="44.36435" lon="3.09069">
        <ele>842.1</ele>
        <time>2000-01-01T04:32:13.000Z</time>
      </trkpt>
      <trkpt lat="44.36432" lon="3.09058">
        <ele>842.5</ele>
        <time>2000-01-01T04:32:23.000Z</time>
      </trkpt>
      <trkpt lat="44.36428" lon="3.09049">
        <ele>843.1</ele>
        <time>2000-01-01T04:32:33.000Z</time>
      </trkpt>
      <trkpt lat="44.36424" lon="3.09032">
        <ele>843.7</ele>
        <time>2000-01-01T04:32:43.000Z</time>
      </trkpt>
      <trkpt lat="44.36422" lon="3.09027">
        <ele>844</ele>
        <time>2000-01-01T04:32:53.000Z</time>
      </trkpt>
      <trkpt lat="44.36422" lon="3.09014">
        <ele>844.1</ele>
        <time>2000-01-01T04:33:03.000Z</time>
      </trkpt>
      <trkpt lat="44.36419" lon="3.08996">
        <ele>844.8</ele>
        <time>2000-01-01T04:33:13.000Z</time>
      </trkpt>
      <trkpt lat="44.36416" lon="3.08974">
        <ele>845.7</ele>
        <time>2000-01-01T04:33:23.000Z</time>
      </trkpt>
      <trkpt lat="44.36414" lon="3.08953">
        <ele>846.5</ele>
        <time>2000-01-01T04:33:33.000Z</time>
      </trkpt>
      <trkpt lat="44.36411" lon="3.08935">
        <ele>847.3</ele>
        <time>2000-01-01T04:33:43.000Z</time>
      </trkpt>
      <trkpt lat="44.36408" lon="3.08918">
        <ele>848</ele>
        <time>2000-01-01T04:33:53.000Z</time>
      </trkpt>
      <trkpt lat="44.36403" lon="3.08902">
        <ele>847.2</ele>
        <time>2000-01-01T04:34:03.000Z</time>
      </trkpt>
      <trkpt lat="44.36398" lon="3.08886">
        <ele>846.2</ele>
        <time>2000-01-01T04:34:13.000Z</time>
      </trkpt>
      <trkpt lat="44.36388" lon="3.08859">
        <ele>844.7</ele>
        <time>2000-01-01T04:34:23.000Z</time>
      </trkpt>
      <trkpt lat="44.36383" lon="3.08842">
        <ele>843.5</ele>
        <time>2000-01-01T04:34:33.000Z</time>
      </trkpt>
      <trkpt lat="44.36376" lon="3.08823">
        <ele>843</ele>
        <time>2000-01-01T04:34:43.000Z</time>
      </trkpt>
      <trkpt lat="44.36372" lon="3.08806">
        <ele>842.6</ele>
        <time>2000-01-01T04:34:53.000Z</time>
      </trkpt>
      <trkpt lat="44.36366" lon="3.08786">
        <ele>842.3</ele>
        <time>2000-01-01T04:35:03.000Z</time>
      </trkpt>
      <trkpt lat="44.36361" lon="3.08766">
        <ele>841.8</ele>
        <time>2000-01-01T04:35:13.000Z</time>
      </trkpt>
      <trkpt lat="44.36356" lon="3.08752">
        <ele>841.5</ele>
        <time>2000-01-01T04:35:23.000Z</time>
      </trkpt>
      <trkpt lat="44.36349" lon="3.08733">
        <ele>842.4</ele>
        <time>2000-01-01T04:35:33.000Z</time>
      </trkpt>
      <trkpt lat="44.3634" lon="3.08713">
        <ele>843.5</ele>
        <time>2000-01-01T04:35:43.000Z</time>
      </trkpt>
      <trkpt lat="44.36331" lon="3.08691">
        <ele>844.8</ele>
        <time>2000-01-01T04:35:53.000Z</time>
      </trkpt>
      <trkpt lat="44.36322" lon="3.08671">
        <ele>846.8</ele>
        <time>2000-01-01T04:36:03.000Z</time>
      </trkpt>
      <trkpt lat="44.36315" lon="3.08654">
        <ele>849.3</ele>
        <time>2000-01-01T04:36:13.000Z</time>
      </trkpt>
      <trkpt lat="44.36309" lon="3.08638">
        <ele>851.7</ele>
        <time>2000-01-01T04:36:23.000Z</time>
      </trkpt>
      <trkpt lat="44.36305" lon="3.08625">
        <ele>853.6</ele>
        <time>2000-01-01T04:36:33.000Z</time>
      </trkpt>
      <trkpt lat="44.36302" lon="3.08611">
        <ele>855.4</ele>
        <time>2000-01-01T04:36:43.000Z</time>
      </trkpt>
      <trkpt lat="44.36298" lon="3.08591">
        <ele>857.8</ele>
        <time>2000-01-01T04:36:53.000Z</time>
      </trkpt>
      <trkpt lat="44.36293" lon="3.08567">
        <ele>860.3</ele>
        <time>2000-01-01T04:37:03.000Z</time>
      </trkpt>
      <trkpt lat="44.36289" lon="3.08548">
        <ele>862</ele>
        <time>2000-01-01T04:37:13.000Z</time>
      </trkpt>
      <trkpt lat="44.36285" lon="3.08522">
        <ele>863.9</ele>
        <time>2000-01-01T04:37:23.000Z</time>
      </trkpt>
      <trkpt lat="44.36281" lon="3.08501">
        <ele>865.3</ele>
        <time>2000-01-01T04:37:33.000Z</time>
      </trkpt>
      <trkpt lat="44.3628" lon="3.08493">
        <ele>865.6</ele>
        <time>2000-01-01T04:37:43.000Z</time>
      </trkpt>
      <trkpt lat="44.36271" lon="3.08452">
        <ele>866.8</ele>
        <time>2000-01-01T04:37:53.000Z</time>
      </trkpt>
      <trkpt lat="44.36266" lon="3.08426">
        <ele>867.3</ele>
        <time>2000-01-01T04:38:03.000Z</time>
      </trkpt>
      <trkpt lat="44.3626" lon="3.08402">
        <ele>868.7</ele>
        <time>2000-01-01T04:38:13.000Z</time>
      </trkpt>
      <trkpt lat="44.36255" lon="3.08374">
        <ele>870.8</ele>
        <time>2000-01-01T04:38:23.000Z</time>
      </trkpt>
      <trkpt lat="44.3625" lon="3.08352">
        <ele>872.7</ele>
        <time>2000-01-01T04:38:33.000Z</time>
      </trkpt>
      <trkpt lat="44.36246" lon="3.08334">
        <ele>874.8</ele>
        <time>2000-01-01T04:38:43.000Z</time>
      </trkpt>
      <trkpt lat="44.36245" lon="3.08317">
        <ele>876.4</ele>
        <time>2000-01-01T04:38:53.000Z</time>
      </trkpt>
      <trkpt lat="44.36243" lon="3.08306">
        <ele>877.8</ele>
        <time>2000-01-01T04:39:03.000Z</time>
      </trkpt>
      <trkpt lat="44.3624" lon="3.08299">
        <ele>879</ele>
        <time>2000-01-01T04:39:13.000Z</time>
      </trkpt>
      <trkpt lat="44.36233" lon="3.08293">
        <ele>881</ele>
        <time>2000-01-01T04:39:23.000Z</time>
      </trkpt>
      <trkpt lat="44.36231" lon="3.08291">
        <ele>881.5</ele>
        <time>2000-01-01T04:39:33.000Z</time>
      </trkpt>
      <trkpt lat="44.36221" lon="3.08279">
        <ele>884.7</ele>
        <time>2000-01-01T04:39:43.000Z</time>
      </trkpt>
      <trkpt lat="44.36215" lon="3.08272">
        <ele>886.6</ele>
        <time>2000-01-01T04:39:53.000Z</time>
      </trkpt>
      <trkpt lat="44.36204" lon="3.08257">
        <ele>890.3</ele>
        <time>2000-01-01T04:40:03.000Z</time>
      </trkpt>
      <trkpt lat="44.36192" lon="3.08241">
        <ele>894</ele>
        <time>2000-01-01T04:40:13.000Z</time>
      </trkpt>
      <trkpt lat="44.3618" lon="3.08225">
        <ele>896.9</ele>
        <time>2000-01-01T04:40:23.000Z</time>
      </trkpt>
      <trkpt lat="44.36169" lon="3.08209">
        <ele>899.1</ele>
        <time>2000-01-01T04:40:33.000Z</time>
      </trkpt>
      <trkpt lat="44.36153" lon="3.08192">
        <ele>902.3</ele>
        <time>2000-01-01T04:40:43.000Z</time>
      </trkpt>
      <trkpt lat="44.36135" lon="3.08167">
        <ele>906.1</ele>
        <time>2000-01-01T04:40:53.000Z</time>
      </trkpt>
      <trkpt lat="44.36124" lon="3.08149">
        <ele>909.9</ele>
        <time>2000-01-01T04:41:03.000Z</time>
      </trkpt>
      <trkpt lat="44.36119" lon="3.08141">
        <ele>911.5</ele>
        <time>2000-01-01T04:41:13.000Z</time>
      </trkpt>
      <trkpt lat="44.36114" lon="3.08138">
        <ele>912.6</ele>
        <time>2000-01-01T04:41:23.000Z</time>
      </trkpt>
      <trkpt lat="44.3611" lon="3.08141">
        <ele>913</ele>
        <time>2000-01-01T04:41:33.000Z</time>
      </trkpt>
      <trkpt lat="44.36096" lon="3.08162">
        <ele>913.9</ele>
        <time>2000-01-01T04:41:43.000Z</time>
      </trkpt>
      <trkpt lat="44.3608" lon="3.08193">
        <ele>916.2</ele>
        <time>2000-01-01T04:41:53.000Z</time>
      </trkpt>
      <trkpt lat="44.36067" lon="3.08217">
        <ele>918</ele>
        <time>2000-01-01T04:42:03.000Z</time>
      </trkpt>
      <trkpt lat="44.36052" lon="3.08242">
        <ele>920</ele>
        <time>2000-01-01T04:42:13.000Z</time>
      </trkpt>
      <trkpt lat="44.36049" lon="3.08245">
        <ele>920.4</ele>
        <time>2000-01-01T04:42:23.000Z</time>
      </trkpt>
      <trkpt lat="44.36045" lon="3.08245">
        <ele>921.1</ele>
        <time>2000-01-01T04:42:33.000Z</time>
      </trkpt>
      <trkpt lat="44.36043" lon="3.08242">
        <ele>921.4</ele>
        <time>2000-01-01T04:42:43.000Z</time>
      </trkpt>
      <trkpt lat="44.36042" lon="3.08238">
        <ele>921.7</ele>
        <time>2000-01-01T04:42:53.000Z</time>
      </trkpt>
      <trkpt lat="44.3604" lon="3.08229">
        <ele>922.1</ele>
        <time>2000-01-01T04:43:03.000Z</time>
      </trkpt>
      <trkpt lat="44.36038" lon="3.08219">
        <ele>922.6</ele>
        <time>2000-01-01T04:43:13.000Z</time>
      </trkpt>
      <trkpt lat="44.36034" lon="3.08207">
        <ele>923.5</ele>
        <time>2000-01-01T04:43:23.000Z</time>
      </trkpt>
      <trkpt lat="44.36026" lon="3.08195">
        <ele>925.1</ele>
        <time>2000-01-01T04:43:33.000Z</time>
      </trkpt>
      <trkpt lat="44.36017" lon="3.08184">
        <ele>926.8</ele>
        <time>2000-01-01T04:43:43.000Z</time>
      </trkpt>
      <trkpt lat="44.36" lon="3.0816">
        <ele>929.9</ele>
        <time>2000-01-01T04:43:53.000Z</time>
      </trkpt>
      <trkpt lat="44.35988" lon="3.08148">
        <ele>929.6</ele>
        <time>2000-01-01T04:44:03.000Z</time>
      </trkpt>
      <trkpt lat="44.35984" lon="3.08143">
        <ele>929.5</ele>
        <time>2000-01-01T04:44:13.000Z</time>
      </trkpt>
      <trkpt lat="44.3598" lon="3.08136">
        <ele>929.3</ele>
        <time>2000-01-01T04:44:23.000Z</time>
      </trkpt>
      <trkpt lat="44.35979" lon="3.08129">
        <ele>929.1</ele>
        <time>2000-01-01T04:44:33.000Z</time>
      </trkpt>
      <trkpt lat="44.3598" lon="3.08118">
        <ele>928.9</ele>
        <time>2000-01-01T04:44:43.000Z</time>
      </trkpt>
      <trkpt lat="44.35981" lon="3.08109">
        <ele>928.7</ele>
        <time>2000-01-01T04:44:53.000Z</time>
      </trkpt>
      <trkpt lat="44.3598" lon="3.08103">
        <ele>928.5</ele>
        <time>2000-01-01T04:45:03.000Z</time>
      </trkpt>
      <trkpt lat="44.35979" lon="3.081">
        <ele>928.4</ele>
        <time>2000-01-01T04:45:13.000Z</time>
      </trkpt>
      <trkpt lat="44.35967" lon="3.08098">
        <ele>927.9</ele>
        <time>2000-01-01T04:45:23.000Z</time>
      </trkpt>
      <trkpt lat="44.35955" lon="3.08096">
        <ele>927.3</ele>
        <time>2000-01-01T04:45:33.000Z</time>
      </trkpt>
      <trkpt lat="44.35936" lon="3.08093">
        <ele>926.4</ele>
        <time>2000-01-01T04:45:43.000Z</time>
      </trkpt>
      <trkpt lat="44.35915" lon="3.08092">
        <ele>925.3</ele>
        <time>2000-01-01T04:45:53.000Z</time>
      </trkpt>
      <trkpt lat="44.35891" lon="3.08088">
        <ele>921.6</ele>
        <time>2000-01-01T04:46:03.000Z</time>
      </trkpt>
      <trkpt lat="44.35867" lon="3.08084">
        <ele>917.9</ele>
        <time>2000-01-01T04:46:13.000Z</time>
      </trkpt>
      <trkpt lat="44.3584" lon="3.0808">
        <ele>913.6</ele>
        <time>2000-01-01T04:46:23.000Z</time>
      </trkpt>
      <trkpt lat="44.35827" lon="3.08078">
        <ele>912.1</ele>
        <time>2000-01-01T04:46:33.000Z</time>
      </trkpt>
      <trkpt lat="44.35814" lon="3.08077">
        <ele>911.3</ele>
        <time>2000-01-01T04:46:43.000Z</time>
      </trkpt>
      <trkpt lat="44.35803" lon="3.08076">
        <ele>910.6</ele>
        <time>2000-01-01T04:46:53.000Z</time>
      </trkpt>
      <trkpt lat="44.35788" lon="3.08075">
        <ele>909.7</ele>
        <time>2000-01-01T04:47:03.000Z</time>
      </trkpt>
      <trkpt lat="44.35774" lon="3.08073">
        <ele>908.6</ele>
        <time>2000-01-01T04:47:13.000Z</time>
      </trkpt>
      <trkpt lat="44.35772" lon="3.08073">
        <ele>908.5</ele>
        <time>2000-01-01T04:47:23.000Z</time>
      </trkpt>
      <trkpt lat="44.35757" lon="3.0807">
        <ele>907.2</ele>
        <time>2000-01-01T04:47:33.000Z</time>
      </trkpt>
      <trkpt lat="44.35732" lon="3.08065">
        <ele>905.4</ele>
        <time>2000-01-01T04:47:43.000Z</time>
      </trkpt>
      <trkpt lat="44.35706" lon="3.08061">
        <ele>903.9</ele>
        <time>2000-01-01T04:47:53.000Z</time>
      </trkpt>
      <trkpt lat="44.35679" lon="3.08057">
        <ele>902.6</ele>
        <time>2000-01-01T04:48:03.000Z</time>
      </trkpt>
      <trkpt lat="44.35654" lon="3.08053">
        <ele>901.3</ele>
        <time>2000-01-01T04:48:13.000Z</time>
      </trkpt>
      <trkpt lat="44.35635" lon="3.0805">
        <ele>900.4</ele>
        <time>2000-01-01T04:48:23.000Z</time>
      </trkpt>
      <trkpt lat="44.35628" lon="3.08049">
        <ele>900</ele>
        <time>2000-01-01T04:48:33.000Z</time>
      </trkpt>
      <trkpt lat="44.35623" lon="3.08046">
        <ele>899.5</ele>
        <time>2000-01-01T04:48:43.000Z</time>
      </trkpt>
      <trkpt lat="44.35617" lon="3.08042">
        <ele>898.9</ele>
        <time>2000-01-01T04:48:53.000Z</time>
      </trkpt>
      <trkpt lat="44.3561" lon="3.08036">
        <ele>897.9</ele>
        <time>2000-01-01T04:49:03.000Z</time>
      </trkpt>
      <trkpt lat="44.35599" lon="3.08024">
        <ele>896.2</ele>
        <time>2000-01-01T04:49:13.000Z</time>
      </trkpt>
      <trkpt lat="44.35586" lon="3.08011">
        <ele>894.4</ele>
        <time>2000-01-01T04:49:23.000Z</time>
      </trkpt>
      <trkpt lat="44.35569" lon="3.07993">
        <ele>893.9</ele>
        <time>2000-01-01T04:49:33.000Z</time>
      </trkpt>
      <trkpt lat="44.35548" lon="3.07969">
        <ele>893.6</ele>
        <time>2000-01-01T04:49:43.000Z</time>
      </trkpt>
      <trkpt lat="44.35517" lon="3.07936">
        <ele>892.3</ele>
        <time>2000-01-01T04:49:53.000Z</time>
      </trkpt>
      <trkpt lat="44.355" lon="3.07919">
        <ele>891.3</ele>
        <time>2000-01-01T04:50:03.000Z</time>
      </trkpt>
      <trkpt lat="44.35482" lon="3.07899">
        <ele>890.9</ele>
        <time>2000-01-01T04:50:13.000Z</time>
      </trkpt>
      <trkpt lat="44.35469" lon="3.07884">
        <ele>890.5</ele>
        <time>2000-01-01T04:50:23.000Z</time>
      </trkpt>
      <trkpt lat="44.35459" lon="3.07872">
        <ele>890.1</ele>
        <time>2000-01-01T04:50:33.000Z</time>
      </trkpt>
      <trkpt lat="44.35449" lon="3.07855">
        <ele>888.9</ele>
        <time>2000-01-01T04:50:43.000Z</time>
      </trkpt>
      <trkpt lat="44.35438" lon="3.07836">
        <ele>887.5</ele>
        <time>2000-01-01T04:50:53.000Z</time>
      </trkpt>
      <trkpt lat="44.35428" lon="3.07819">
        <ele>885.8</ele>
        <time>2000-01-01T04:51:03.000Z</time>
      </trkpt>
      <trkpt lat="44.35415" lon="3.07795">
        <ele>883</ele>
        <time>2000-01-01T04:51:13.000Z</time>
      </trkpt>
      <trkpt lat="44.35404" lon="3.07772">
        <ele>879.5</ele>
        <time>2000-01-01T04:51:23.000Z</time>
      </trkpt>
      <trkpt lat="44.3539" lon="3.07748">
        <ele>876</ele>
        <time>2000-01-01T04:51:33.000Z</time>
      </trkpt>
      <trkpt lat="44.35378" lon="3.07726">
        <ele>873</ele>
        <time>2000-01-01T04:51:43.000Z</time>
      </trkpt>
      <trkpt lat="44.35365" lon="3.07703">
        <ele>870</ele>
        <time>2000-01-01T04:51:53.000Z</time>
      </trkpt>
      <trkpt lat="44.35354" lon="3.07682">
        <ele>867.4</ele>
        <time>2000-01-01T04:52:03.000Z</time>
      </trkpt>
      <trkpt lat="44.35346" lon="3.07667">
        <ele>865.6</ele>
        <time>2000-01-01T04:52:13.000Z</time>
      </trkpt>
      <trkpt lat="44.35343" lon="3.07662">
        <ele>865.1</ele>
        <time>2000-01-01T04:52:23.000Z</time>
      </trkpt>
      <trkpt lat="44.35334" lon="3.07644">
        <ele>863.5</ele>
        <time>2000-01-01T04:52:33.000Z</time>
      </trkpt>
      <trkpt lat="44.3532" lon="3.07619">
        <ele>862.1</ele>
        <time>2000-01-01T04:52:43.000Z</time>
      </trkpt>
      <trkpt lat="44.35307" lon="3.07597">
        <ele>861</ele>
        <time>2000-01-01T04:52:53.000Z</time>
      </trkpt>
      <trkpt lat="44.35292" lon="3.07571">
        <ele>859.7</ele>
        <time>2000-01-01T04:53:03.000Z</time>
      </trkpt>
      <trkpt lat="44.35278" lon="3.07545">
        <ele>858.5</ele>
        <time>2000-01-01T04:53:13.000Z</time>
      </trkpt>
      <trkpt lat="44.35261" lon="3.07516">
        <ele>857.4</ele>
        <time>2000-01-01T04:53:23.000Z</time>
      </trkpt>
      <trkpt lat="44.35246" lon="3.07488">
        <ele>857.7</ele>
        <time>2000-01-01T04:53:33.000Z</time>
      </trkpt>
      <trkpt lat="44.35232" lon="3.07463">
        <ele>860.4</ele>
        <time>2000-01-01T04:53:43.000Z</time>
      </trkpt>
      <trkpt lat="44.35223" lon="3.07448">
        <ele>861.9</ele>
        <time>2000-01-01T04:53:53.000Z</time>
      </trkpt>
      <trkpt lat="44.35219" lon="3.07439">
        <ele>862.5</ele>
        <time>2000-01-01T04:54:03.000Z</time>
      </trkpt>
      <trkpt lat="44.35219" lon="3.07432">
        <ele>862.3</ele>
        <time>2000-01-01T04:54:13.000Z</time>
      </trkpt>
      <trkpt lat="44.35218" lon="3.07424">
        <ele>862.2</ele>
        <time>2000-01-01T04:54:23.000Z</time>
      </trkpt>
      <trkpt lat="44.3522" lon="3.0741">
        <ele>861</ele>
        <time>2000-01-01T04:54:33.000Z</time>
      </trkpt>
      <trkpt lat="44.35223" lon="3.07384">
        <ele>858.4</ele>
        <time>2000-01-01T04:54:43.000Z</time>
      </trkpt>
      <trkpt lat="44.35226" lon="3.07363">
        <ele>856.2</ele>
        <time>2000-01-01T04:54:53.000Z</time>
      </trkpt>
      <trkpt lat="44.35228" lon="3.0735">
        <ele>854.9</ele>
        <time>2000-01-01T04:55:03.000Z</time>
      </trkpt>
      <trkpt lat="44.35228" lon="3.07341">
        <ele>854.3</ele>
        <time>2000-01-01T04:55:13.000Z</time>
      </trkpt>
      <trkpt lat="44.35228" lon="3.07325">
        <ele>853.4</ele>
        <time>2000-01-01T04:55:23.000Z</time>
      </trkpt>
      <trkpt lat="44.35229" lon="3.07317">
        <ele>852.9</ele>
        <time>2000-01-01T04:55:33.000Z</time>
      </trkpt>
      <trkpt lat="44.35231" lon="3.07309">
        <ele>852.3</ele>
        <time>2000-01-01T04:55:43.000Z</time>
      </trkpt>
      <trkpt lat="44.35236" lon="3.07296">
        <ele>851</ele>
        <time>2000-01-01T04:55:53.000Z</time>
      </trkpt>
      <trkpt lat="44.35241" lon="3.07283">
        <ele>849.7</ele>
        <time>2000-01-01T04:56:03.000Z</time>
      </trkpt>
      <trkpt lat="44.35247" lon="3.07271">
        <ele>848.3</ele>
        <time>2000-01-01T04:56:13.000Z</time>
      </trkpt>
      <trkpt lat="44.35252" lon="3.07259">
        <ele>847.1</ele>
        <time>2000-01-01T04:56:23.000Z</time>
      </trkpt>
      <trkpt lat="44.35256" lon="3.07254">
        <ele>846.5</ele>
        <time>2000-01-01T04:56:33.000Z</time>
      </trkpt>
      <trkpt lat="44.35262" lon="3.07248">
        <ele>845.6</ele>
        <time>2000-01-01T04:56:43.000Z</time>
      </trkpt>
      <trkpt lat="44.35271" lon="3.07243">
        <ele>844.2</ele>
        <time>2000-01-01T04:56:53.000Z</time>
      </trkpt>
      <trkpt lat="44.35285" lon="3.07239">
        <ele>842.3</ele>
        <time>2000-01-01T04:57:03.000Z</time>
      </trkpt>
      <trkpt lat="44.35305" lon="3.07234">
        <ele>839.7</ele>
        <time>2000-01-01T04:57:13.000Z</time>
      </trkpt>
      <trkpt lat="44.35329" lon="3.0723">
        <ele>836.6</ele>
        <time>2000-01-01T04:57:23.000Z</time>
      </trkpt>
      <trkpt lat="44.35354" lon="3.07223">
        <ele>836.2</ele>
        <time>2000-01-01T04:57:33.000Z</time>
      </trkpt>
      <trkpt lat="44.35362" lon="3.07219">
        <ele>836.1</ele>
        <time>2000-01-01T04:57:43.000Z</time>
      </trkpt>
      <trkpt lat="44.35365" lon="3.07217">
        <ele>836</ele>
        <time>2000-01-01T04:57:53.000Z</time>
      </trkpt>
      <trkpt lat="44.35367" lon="3.07214">
        <ele>835.8</ele>
        <time>2000-01-01T04:58:03.000Z</time>
      </trkpt>
      <trkpt lat="44.35368" lon="3.07211">
        <ele>835.5</ele>
        <time>2000-01-01T04:58:13.000Z</time>
      </trkpt>
      <trkpt lat="44.35367" lon="3.07205">
        <ele>834.9</ele>
        <time>2000-01-01T04:58:23.000Z</time>
      </trkpt>
      <trkpt lat="44.35364" lon="3.07196">
        <ele>833.9</ele>
        <time>2000-01-01T04:58:33.000Z</time>
      </trkpt>
      <trkpt lat="44.35356" lon="3.07176">
        <ele>831.7</ele>
        <time>2000-01-01T04:58:43.000Z</time>
      </trkpt>
      <trkpt lat="44.35347" lon="3.07155">
        <ele>830</ele>
        <time>2000-01-01T04:58:53.000Z</time>
      </trkpt>
      <trkpt lat="44.35342" lon="3.07139">
        <ele>829.2</ele>
        <time>2000-01-01T04:59:03.000Z</time>
      </trkpt>
      <trkpt lat="44.35338" lon="3.07129">
        <ele>828.8</ele>
        <time>2000-01-01T04:59:13.000Z</time>
      </trkpt>
      <trkpt lat="44.35338" lon="3.07126">
        <ele>828.6</ele>
        <time>2000-01-01T04:59:23.000Z</time>
      </trkpt>
      <trkpt lat="44.35336" lon="3.07116">
        <ele>828.2</ele>
        <time>2000-01-01T04:59:33.000Z</time>
      </trkpt>
      <trkpt lat="44.35333" lon="3.07097">
        <ele>827.5</ele>
        <time>2000-01-01T04:59:43.000Z</time>
      </trkpt>
      <trkpt lat="44.35329" lon="3.07074">
        <ele>827.4</ele>
        <time>2000-01-01T04:59:53.000Z</time>
      </trkpt>
      <trkpt lat="44.35326" lon="3.07051">
        <ele>827.4</ele>
        <time>2000-01-01T05:00:03.000Z</time>
      </trkpt>
      <trkpt lat="44.35324" lon="3.07036">
        <ele>827.3</ele>
        <time>2000-01-01T05:00:13.000Z</time>
      </trkpt>
      <trkpt lat="44.35322" lon="3.07019">
        <ele>827.2</ele>
        <time>2000-01-01T05:00:23.000Z</time>
      </trkpt>
      <trkpt lat="44.35321" lon="3.06993">
        <ele>826.8</ele>
        <time>2000-01-01T05:00:33.000Z</time>
      </trkpt>
      <trkpt lat="44.35318" lon="3.06963">
        <ele>826.7</ele>
        <time>2000-01-01T05:00:43.000Z</time>
      </trkpt>
      <trkpt lat="44.35316" lon="3.06943">
        <ele>826.6</ele>
        <time>2000-01-01T05:00:53.000Z</time>
      </trkpt>
      <trkpt lat="44.35312" lon="3.06923">
        <ele>826.6</ele>
        <time>2000-01-01T05:01:03.000Z</time>
      </trkpt>
      <trkpt lat="44.35307" lon="3.06901">
        <ele>826.3</ele>
        <time>2000-01-01T05:01:13.000Z</time>
      </trkpt>
      <trkpt lat="44.35301" lon="3.06882">
        <ele>825.9</ele>
        <time>2000-01-01T05:01:23.000Z</time>
      </trkpt>
      <trkpt lat="44.35292" lon="3.06862">
        <ele>825.4</ele>
        <time>2000-01-01T05:01:33.000Z</time>
      </trkpt>
      <trkpt lat="44.35283" lon="3.06843">
        <ele>824.7</ele>
        <time>2000-01-01T05:01:43.000Z</time>
      </trkpt>
      <trkpt lat="44.35272" lon="3.06828">
        <ele>824.2</ele>
        <time>2000-01-01T05:01:53.000Z</time>
      </trkpt>
      <trkpt lat="44.35258" lon="3.06812">
        <ele>823.6</ele>
        <time>2000-01-01T05:02:03.000Z</time>
      </trkpt>
      <trkpt lat="44.35246" lon="3.06797">
        <ele>823</ele>
        <time>2000-01-01T05:02:13.000Z</time>
      </trkpt>
      <trkpt lat="44.35239" lon="3.06787">
        <ele>822.6</ele>
        <time>2000-01-01T05:02:23.000Z</time>
      </trkpt>
      <trkpt lat="44.35234" lon="3.06779">
        <ele>822.2</ele>
        <time>2000-01-01T05:02:33.000Z</time>
      </trkpt>
      <trkpt lat="44.35229" lon="3.06769">
        <ele>821.5</ele>
        <time>2000-01-01T05:02:43.000Z</time>
      </trkpt>
      <trkpt lat="44.35223" lon="3.06756">
        <ele>820.5</ele>
        <time>2000-01-01T05:02:53.000Z</time>
      </trkpt>
      <trkpt lat="44.35217" lon="3.06741">
        <ele>819.8</ele>
        <time>2000-01-01T05:03:03.000Z</time>
      </trkpt>
      <trkpt lat="44.35208" lon="3.06717">
        <ele>819.4</ele>
        <time>2000-01-01T05:03:13.000Z</time>
      </trkpt>
      <trkpt lat="44.352" lon="3.06691">
        <ele>818.9</ele>
        <time>2000-01-01T05:03:23.000Z</time>
      </trkpt>
      <trkpt lat="44.35191" lon="3.06661">
        <ele>818.3</ele>
        <time>2000-01-01T05:03:33.000Z</time>
      </trkpt>
      <trkpt lat="44.35184" lon="3.0664">
        <ele>818.5</ele>
        <time>2000-01-01T05:03:43.000Z</time>
      </trkpt>
      <trkpt lat="44.35181" lon="3.06633">
        <ele>818.5</ele>
        <time>2000-01-01T05:03:53.000Z</time>
      </trkpt>
      <trkpt lat="44.35176" lon="3.06615">
        <ele>818.7</ele>
        <time>2000-01-01T05:04:03.000Z</time>
      </trkpt>
      <trkpt lat="44.35172" lon="3.06603">
        <ele>818.8</ele>
        <time>2000-01-01T05:04:13.000Z</time>
      </trkpt>
      <trkpt lat="44.35177" lon="3.06608">
        <ele>818.7</ele>
        <time>2000-01-01T05:04:23.000Z</time>
      </trkpt>
      <trkpt lat="44.3519" lon="3.0662">
        <ele>818.7</ele>
        <time>2000-01-01T05:04:33.000Z</time>
      </trkpt>
      <trkpt lat="44.35206" lon="3.06631">
        <ele>818.7</ele>
        <time>2000-01-01T05:04:43.000Z</time>
      </trkpt>
      <trkpt lat="44.35221" lon="3.06642">
        <ele>818.8</ele>
        <time>2000-01-01T05:04:53.000Z</time>
      </trkpt>
      <trkpt lat="44.35234" lon="3.0665">
        <ele>818.8</ele>
        <time>2000-01-01T05:05:03.000Z</time>
      </trkpt>
      <trkpt lat="44.35241" lon="3.06653">
        <ele>818.9</ele>
        <time>2000-01-01T05:05:13.000Z</time>
      </trkpt>
      <trkpt lat="44.3525" lon="3.06657">
        <ele>819</ele>
        <time>2000-01-01T05:05:23.000Z</time>
      </trkpt>
      <trkpt lat="44.35264" lon="3.0666">
        <ele>819</ele>
        <time>2000-01-01T05:05:33.000Z</time>
      </trkpt>
      <trkpt lat="44.35286" lon="3.06664">
        <ele>819</ele>
        <time>2000-01-01T05:05:43.000Z</time>
      </trkpt>
      <trkpt lat="44.35314" lon="3.06669">
        <ele>819</ele>
        <time>2000-01-01T05:05:53.000Z</time>
      </trkpt>
      <trkpt lat="44.35337" lon="3.06672">
        <ele>819</ele>
        <time>2000-01-01T05:06:03.000Z</time>
      </trkpt>
      <trkpt lat="44.35357" lon="3.06675">
        <ele>819</ele>
        <time>2000-01-01T05:06:13.000Z</time>
      </trkpt>
      <trkpt lat="44.35378" lon="3.06677">
        <ele>819.1</ele>
        <time>2000-01-01T05:06:23.000Z</time>
      </trkpt>
      <trkpt lat="44.35398" lon="3.06679">
        <ele>819.1</ele>
        <time>2000-01-01T05:06:33.000Z</time>
      </trkpt>
      <trkpt lat="44.35419" lon="3.0668">
        <ele>819.3</ele>
        <time>2000-01-01T05:06:43.000Z</time>
      </trkpt>
      <trkpt lat="44.35442" lon="3.06679">
        <ele>820.1</ele>
        <time>2000-01-01T05:06:53.000Z</time>
      </trkpt>
      <trkpt lat="44.35462" lon="3.06679">
        <ele>820.9</ele>
        <time>2000-01-01T05:07:03.000Z</time>
      </trkpt>
      <trkpt lat="44.35479" lon="3.06679">
        <ele>821.6</ele>
        <time>2000-01-01T05:07:13.000Z</time>
      </trkpt>
      <trkpt lat="44.35494" lon="3.06679">
        <ele>822.2</ele>
        <time>2000-01-01T05:07:23.000Z</time>
      </trkpt>
      <trkpt lat="44.35511" lon="3.0668">
        <ele>823.5</ele>
        <time>2000-01-01T05:07:33.000Z</time>
      </trkpt>
      <trkpt lat="44.35526" lon="3.0668">
        <ele>824.9</ele>
        <time>2000-01-01T05:07:43.000Z</time>
      </trkpt>
      <trkpt lat="44.35536" lon="3.06679">
        <ele>825.7</ele>
        <time>2000-01-01T05:07:53.000Z</time>
      </trkpt>
      <trkpt lat="44.35548" lon="3.06677">
        <ele>826.7</ele>
        <time>2000-01-01T05:08:03.000Z</time>
      </trkpt>
      <trkpt lat="44.3556" lon="3.06675">
        <ele>827.6</ele>
        <time>2000-01-01T05:08:13.000Z</time>
      </trkpt>
      <trkpt lat="44.35574" lon="3.06673">
        <ele>828.7</ele>
        <time>2000-01-01T05:08:23.000Z</time>
      </trkpt>
      <trkpt lat="44.35585" lon="3.06672">
        <ele>829.4</ele>
        <time>2000-01-01T05:08:33.000Z</time>
      </trkpt>
      <trkpt lat="44.35603" lon="3.06672">
        <ele>829.3</ele>
        <time>2000-01-01T05:08:43.000Z</time>
      </trkpt>
      <trkpt lat="44.35617" lon="3.06672">
        <ele>829.2</ele>
        <time>2000-01-01T05:08:53.000Z</time>
      </trkpt>
      <trkpt lat="44.35629" lon="3.06674">
        <ele>829.3</ele>
        <time>2000-01-01T05:09:03.000Z</time>
      </trkpt>
      <trkpt lat="44.35643" lon="3.06678">
        <ele>829.7</ele>
        <time>2000-01-01T05:09:13.000Z</time>
      </trkpt>
      <trkpt lat="44.35654" lon="3.06682">
        <ele>830.2</ele>
        <time>2000-01-01T05:09:23.000Z</time>
      </trkpt>
      <trkpt lat="44.35671" lon="3.0669">
        <ele>831.1</ele>
        <time>2000-01-01T05:09:33.000Z</time>
      </trkpt>
      <trkpt lat="44.35685" lon="3.06697">
        <ele>831.1</ele>
        <time>2000-01-01T05:09:43.000Z</time>
      </trkpt>
      <trkpt lat="44.35698" lon="3.06703">
        <ele>831</ele>
        <time>2000-01-01T05:09:53.000Z</time>
      </trkpt>
      <trkpt lat="44.35713" lon="3.06709">
        <ele>830.8</ele>
        <time>2000-01-01T05:10:03.000Z</time>
      </trkpt>
      <trkpt lat="44.35733" lon="3.06717">
        <ele>830.3</ele>
        <time>2000-01-01T05:10:13.000Z</time>
      </trkpt>
      <trkpt lat="44.35748" lon="3.06724">
        <ele>830</ele>
        <time>2000-01-01T05:10:23.000Z</time>
      </trkpt>
      <trkpt lat="44.3576" lon="3.06732">
        <ele>829.9</ele>
        <time>2000-01-01T05:10:33.000Z</time>
      </trkpt>
      <trkpt lat="44.35777" lon="3.06743">
        <ele>829.4</ele>
        <time>2000-01-01T05:10:43.000Z</time>
      </trkpt>
      <trkpt lat="44.35797" lon="3.06755">
        <ele>828.6</ele>
        <time>2000-01-01T05:10:53.000Z</time>
      </trkpt>
      <trkpt lat="44.35817" lon="3.06767">
        <ele>828.1</ele>
        <time>2000-01-01T05:11:03.000Z</time>
      </trkpt>
      <trkpt lat="44.35845" lon="3.06783">
        <ele>828.2</ele>
        <time>2000-01-01T05:11:13.000Z</time>
      </trkpt>
      <trkpt lat="44.35873" lon="3.06799">
        <ele>829.3</ele>
        <time>2000-01-01T05:11:23.000Z</time>
      </trkpt>
      <trkpt lat="44.35898" lon="3.06812">
        <ele>829.5</ele>
        <time>2000-01-01T05:11:33.000Z</time>
      </trkpt>
      <trkpt lat="44.35924" lon="3.06827">
        <ele>829.8</ele>
        <time>2000-01-01T05:11:43.000Z</time>
      </trkpt>
      <trkpt lat="44.35945" lon="3.06839">
        <ele>831</ele>
        <time>2000-01-01T05:11:53.000Z</time>
      </trkpt>
      <trkpt lat="44.35967" lon="3.0685">
        <ele>832.2</ele>
        <time>2000-01-01T05:12:03.000Z</time>
      </trkpt>
      <trkpt lat="44.35982" lon="3.06856">
        <ele>832.7</ele>
        <time>2000-01-01T05:12:13.000Z</time>
      </trkpt>
      <trkpt lat="44.35992" lon="3.06858">
        <ele>832.8</ele>
        <time>2000-01-01T05:12:23.000Z</time>
      </trkpt>
      <trkpt lat="44.36" lon="3.06862">
        <ele>833.1</ele>
        <time>2000-01-01T05:12:33.000Z</time>
      </trkpt>
      <trkpt lat="44.36003" lon="3.06852">
        <ele>832.7</ele>
        <time>2000-01-01T05:12:43.000Z</time>
      </trkpt>
      <trkpt lat="44.36003" lon="3.06849">
        <ele>832.5</ele>
        <time>2000-01-01T05:12:53.000Z</time>
      </trkpt>
      <trkpt lat="44.36004" lon="3.06844">
        <ele>832.2</ele>
        <time>2000-01-01T05:13:03.000Z</time>
      </trkpt>
      <trkpt lat="44.36004" lon="3.06837">
        <ele>831.8</ele>
        <time>2000-01-01T05:13:13.000Z</time>
      </trkpt>
      <trkpt lat="44.36004" lon="3.06831">
        <ele>831.6</ele>
        <time>2000-01-01T05:13:23.000Z</time>
      </trkpt>
      <trkpt lat="44.36003" lon="3.06823">
        <ele>831.7</ele>
        <time>2000-01-01T05:13:33.000Z</time>
      </trkpt>
      <trkpt lat="44.36" lon="3.06814">
        <ele>831.5</ele>
        <time>2000-01-01T05:13:43.000Z</time>
      </trkpt>
      <trkpt lat="44.35996" lon="3.06802">
        <ele>831.6</ele>
        <time>2000-01-01T05:13:53.000Z</time>
      </trkpt>
      <trkpt lat="44.35992" lon="3.06794">
        <ele>831.5</ele>
        <time>2000-01-01T05:14:03.000Z</time>
      </trkpt>
      <trkpt lat="44.35987" lon="3.06785">
        <ele>831.4</ele>
        <time>2000-01-01T05:14:13.000Z</time>
      </trkpt>
      <trkpt lat="44.35981" lon="3.06778">
        <ele>831</ele>
        <time>2000-01-01T05:14:23.000Z</time>
      </trkpt>
      <trkpt lat="44.35973" lon="3.06769">
        <ele>830.5</ele>
        <time>2000-01-01T05:14:33.000Z</time>
      </trkpt>
      <trkpt lat="44.35956" lon="3.06757">
        <ele>828.9</ele>
        <time>2000-01-01T05:14:43.000Z</time>
      </trkpt>
      <trkpt lat="44.35938" lon="3.06743">
        <ele>827.3</ele>
        <time>2000-01-01T05:14:53.000Z</time>
      </trkpt>
      <trkpt lat="44.35926" lon="3.06733">
        <ele>826.4</ele>
        <time>2000-01-01T05:15:03.000Z</time>
      </trkpt>
      <trkpt lat="44.35915" lon="3.06724">
        <ele>825.6</ele>
        <time>2000-01-01T05:15:13.000Z</time>
      </trkpt>
      <trkpt lat="44.35907" lon="3.06715">
        <ele>825.4</ele>
        <time>2000-01-01T05:15:23.000Z</time>
      </trkpt>
      <trkpt lat="44.35901" lon="3.06705">
        <ele>825.3</ele>
        <time>2000-01-01T05:15:33.000Z</time>
      </trkpt>
      <trkpt lat="44.35893" lon="3.0669">
        <ele>824.9</ele>
        <time>2000-01-01T05:15:43.000Z</time>
      </trkpt>
      <trkpt lat="44.35883" lon="3.06669">
        <ele>824.2</ele>
        <time>2000-01-01T05:15:53.000Z</time>
      </trkpt>
      <trkpt lat="44.35872" lon="3.06642">
        <ele>823.8</ele>
        <time>2000-01-01T05:16:03.000Z</time>
      </trkpt>
      <trkpt lat="44.35864" lon="3.06618">
        <ele>823.4</ele>
        <time>2000-01-01T05:16:13.000Z</time>
      </trkpt>
      <trkpt lat="44.35858" lon="3.066">
        <ele>823</ele>
        <time>2000-01-01T05:16:23.000Z</time>
      </trkpt>
      <trkpt lat="44.35853" lon="3.06581">
        <ele>822.6</ele>
        <time>2000-01-01T05:16:33.000Z</time>
      </trkpt>
      <trkpt lat="44.35851" lon="3.06569">
        <ele>822.3</ele>
        <time>2000-01-01T05:16:43.000Z</time>
      </trkpt>
      <trkpt lat="44.35849" lon="3.0656">
        <ele>821.9</ele>
        <time>2000-01-01T05:16:53.000Z</time>
      </trkpt>
      <trkpt lat="44.35849" lon="3.0655">
        <ele>821.9</ele>
        <time>2000-01-01T05:17:03.000Z</time>
      </trkpt>
      <trkpt lat="44.35848" lon="3.06532">
        <ele>821.6</ele>
        <time>2000-01-01T05:17:13.000Z</time>
      </trkpt>
      <trkpt lat="44.35848" lon="3.06513">
        <ele>821.5</ele>
        <time>2000-01-01T05:17:23.000Z</time>
      </trkpt>
      <trkpt lat="44.35848" lon="3.06493">
        <ele>821.3</ele>
        <time>2000-01-01T05:17:33.000Z</time>
      </trkpt>
      <trkpt lat="44.35849" lon="3.06472">
        <ele>821</ele>
        <time>2000-01-01T05:17:43.000Z</time>
      </trkpt>
      <trkpt lat="44.35849" lon="3.06449">
        <ele>820.5</ele>
        <time>2000-01-01T05:17:53.000Z</time>
      </trkpt>
      <trkpt lat="44.35849" lon="3.0643">
        <ele>820.1</ele>
        <time>2000-01-01T05:18:03.000Z</time>
      </trkpt>
      <trkpt lat="44.35849" lon="3.06412">
        <ele>819.8</ele>
        <time>2000-01-01T05:18:13.000Z</time>
      </trkpt>
      <trkpt lat="44.35849" lon="3.06402">
        <ele>819.7</ele>
        <time>2000-01-01T05:18:23.000Z</time>
      </trkpt>
      <trkpt lat="44.35848" lon="3.06389">
        <ele>819.5</ele>
        <time>2000-01-01T05:18:33.000Z</time>
      </trkpt>
      <trkpt lat="44.35846" lon="3.06371">
        <ele>819</ele>
        <time>2000-01-01T05:18:43.000Z</time>
      </trkpt>
      <trkpt lat="44.35844" lon="3.06348">
        <ele>818.6</ele>
        <time>2000-01-01T05:18:53.000Z</time>
      </trkpt>
      <trkpt lat="44.35841" lon="3.06323">
        <ele>818.2</ele>
        <time>2000-01-01T05:19:03.000Z</time>
      </trkpt>
      <trkpt lat="44.3584" lon="3.0631">
        <ele>818.2</ele>
        <time>2000-01-01T05:19:13.000Z</time>
      </trkpt>
      <trkpt lat="44.3584" lon="3.06297">
        <ele>818.3</ele>
        <time>2000-01-01T05:19:23.000Z</time>
      </trkpt>
      <trkpt lat="44.3584" lon="3.06286">
        <ele>818.3</ele>
        <time>2000-01-01T05:19:33.000Z</time>
      </trkpt>
      <trkpt lat="44.35838" lon="3.06276">
        <ele>818.2</ele>
        <time>2000-01-01T05:19:43.000Z</time>
      </trkpt>
      <trkpt lat="44.35836" lon="3.06266">
        <ele>818.1</ele>
        <time>2000-01-01T05:19:53.000Z</time>
      </trkpt>
      <trkpt lat="44.35833" lon="3.06257">
        <ele>817.9</ele>
        <time>2000-01-01T05:20:03.000Z</time>
      </trkpt>
      <trkpt lat="44.3583" lon="3.06246">
        <ele>817.8</ele>
        <time>2000-01-01T05:20:13.000Z</time>
      </trkpt>
      <trkpt lat="44.35824" lon="3.06233">
        <ele>817.5</ele>
        <time>2000-01-01T05:20:23.000Z</time>
      </trkpt>
      <trkpt lat="44.35821" lon="3.06225">
        <ele>817.4</ele>
        <time>2000-01-01T05:20:33.000Z</time>
      </trkpt>
      <trkpt lat="44.35815" lon="3.06215">
        <ele>817.1</ele>
        <time>2000-01-01T05:20:43.000Z</time>
      </trkpt>
      <trkpt lat="44.3581" lon="3.06206">
        <ele>816.8</ele>
        <time>2000-01-01T05:20:53.000Z</time>
      </trkpt>
      <trkpt lat="44.35803" lon="3.06196">
        <ele>816.5</ele>
        <time>2000-01-01T05:21:03.000Z</time>
      </trkpt>
      <trkpt lat="44.35796" lon="3.06187">
        <ele>816.1</ele>
        <time>2000-01-01T05:21:13.000Z</time>
      </trkpt>
      <trkpt lat="44.35791" lon="3.06181">
        <ele>815.8</ele>
        <time>2000-01-01T05:21:23.000Z</time>
      </trkpt>
      <trkpt lat="44.35783" lon="3.06174">
        <ele>815.3</ele>
        <time>2000-01-01T05:21:33.000Z</time>
      </trkpt>
      <trkpt lat="44.35772" lon="3.06165">
        <ele>814.6</ele>
        <time>2000-01-01T05:21:43.000Z</time>
      </trkpt>
      <trkpt lat="44.35756" lon="3.06153">
        <ele>813.6</ele>
        <time>2000-01-01T05:21:53.000Z</time>
      </trkpt>
      <trkpt lat="44.3574" lon="3.0614">
        <ele>813.1</ele>
        <time>2000-01-01T05:22:03.000Z</time>
      </trkpt>
      <trkpt lat="44.3573" lon="3.06132">
        <ele>813</ele>
        <time>2000-01-01T05:22:13.000Z</time>
      </trkpt>
      <trkpt lat="44.35721" lon="3.06124">
        <ele>813</ele>
        <time>2000-01-01T05:22:23.000Z</time>
      </trkpt>
      <trkpt lat="44.35714" lon="3.06117">
        <ele>813</ele>
        <time>2000-01-01T05:22:33.000Z</time>
      </trkpt>
      <trkpt lat="44.35709" lon="3.06112">
        <ele>813</ele>
        <time>2000-01-01T05:22:43.000Z</time>
      </trkpt>
      <trkpt lat="44.35703" lon="3.06104">
        <ele>813</ele>
        <time>2000-01-01T05:22:53.000Z</time>
      </trkpt>
      <trkpt lat="44.35697" lon="3.06096">
        <ele>813.1</ele>
        <time>2000-01-01T05:23:03.000Z</time>
      </trkpt>
      <trkpt lat="44.35688" lon="3.06083">
        <ele>813.3</ele>
        <time>2000-01-01T05:23:13.000Z</time>
      </trkpt>
      <trkpt lat="44.35676" lon="3.06066">
        <ele>813.3</ele>
        <time>2000-01-01T05:23:23.000Z</time>
      </trkpt>
      <trkpt lat="44.35659" lon="3.06041">
        <ele>813.9</ele>
        <time>2000-01-01T05:23:33.000Z</time>
      </trkpt>
      <trkpt lat="44.3565" lon="3.06028">
        <ele>814.5</ele>
        <time>2000-01-01T05:23:43.000Z</time>
      </trkpt>
      <trkpt lat="44.35644" lon="3.06019">
        <ele>815</ele>
        <time>2000-01-01T05:23:53.000Z</time>
      </trkpt>
      <trkpt lat="44.35639" lon="3.06011">
        <ele>815.4</ele>
        <time>2000-01-01T05:24:03.000Z</time>
      </trkpt>
      <trkpt lat="44.35634" lon="3.06002">
        <ele>815.9</ele>
        <time>2000-01-01T05:24:13.000Z</time>
      </trkpt>
      <trkpt lat="44.3563" lon="3.05993">
        <ele>816.3</ele>
        <time>2000-01-01T05:24:23.000Z</time>
      </trkpt>
      <trkpt lat="44.35623" lon="3.05973">
        <ele>816.9</ele>
        <time>2000-01-01T05:24:33.000Z</time>
      </trkpt>
      <trkpt lat="44.35614" lon="3.05948">
        <ele>817.8</ele>
        <time>2000-01-01T05:24:43.000Z</time>
      </trkpt>
      <trkpt lat="44.35608" lon="3.05935">
        <ele>818.3</ele>
        <time>2000-01-01T05:24:53.000Z</time>
      </trkpt>
      <trkpt lat="44.35602" lon="3.05922">
        <ele>818.8</ele>
        <time>2000-01-01T05:25:03.000Z</time>
      </trkpt>
      <trkpt lat="44.35589" lon="3.05897">
        <ele>819.6</ele>
        <time>2000-01-01T05:25:13.000Z</time>
      </trkpt>
      <trkpt lat="44.35582" lon="3.05882">
        <ele>820.1</ele>
        <time>2000-01-01T05:25:23.000Z</time>
      </trkpt>
      <trkpt lat="44.35577" lon="3.05872">
        <ele>820.5</ele>
        <time>2000-01-01T05:25:33.000Z</time>
      </trkpt>
      <trkpt lat="44.35574" lon="3.05863">
        <ele>820.8</ele>
        <time>2000-01-01T05:25:43.000Z</time>
      </trkpt>
      <trkpt lat="44.35571" lon="3.05855">
        <ele>821</ele>
        <time>2000-01-01T05:25:53.000Z</time>
      </trkpt>
      <trkpt lat="44.35569" lon="3.05846">
        <ele>821.2</ele>
        <time>2000-01-01T05:26:03.000Z</time>
      </trkpt>
      <trkpt lat="44.35567" lon="3.05836">
        <ele>821.4</ele>
        <time>2000-01-01T05:26:13.000Z</time>
      </trkpt>
      <trkpt lat="44.35566" lon="3.05824">
        <ele>821.9</ele>
        <time>2000-01-01T05:26:23.000Z</time>
      </trkpt>
      <trkpt lat="44.35564" lon="3.05812">
        <ele>822.7</ele>
        <time>2000-01-01T05:26:33.000Z</time>
      </trkpt>
      <trkpt lat="44.3556" lon="3.05794">
        <ele>824</ele>
        <time>2000-01-01T05:26:43.000Z</time>
      </trkpt>
      <trkpt lat="44.35559" lon="3.05784">
        <ele>824.6</ele>
        <time>2000-01-01T05:26:53.000Z</time>
      </trkpt>
      <trkpt lat="44.35557" lon="3.05766">
        <ele>825.7</ele>
        <time>2000-01-01T05:27:03.000Z</time>
      </trkpt>
      <trkpt lat="44.35555" lon="3.05749">
        <ele>826.8</ele>
        <time>2000-01-01T05:27:13.000Z</time>
      </trkpt>
      <trkpt lat="44.35553" lon="3.05732">
        <ele>827.6</ele>
        <time>2000-01-01T05:27:23.000Z</time>
      </trkpt>
      <trkpt lat="44.35552" lon="3.05721">
        <ele>828.1</ele>
        <time>2000-01-01T05:27:33.000Z</time>
      </trkpt>
      <trkpt lat="44.3555" lon="3.05712">
        <ele>828.7</ele>
        <time>2000-01-01T05:27:43.000Z</time>
      </trkpt>
      <trkpt lat="44.35548" lon="3.05705">
        <ele>829.1</ele>
        <time>2000-01-01T05:27:53.000Z</time>
      </trkpt>
      <trkpt lat="44.35544" lon="3.05696">
        <ele>829.8</ele>
        <time>2000-01-01T05:28:03.000Z</time>
      </trkpt>
      <trkpt lat="44.35537" lon="3.0568">
        <ele>830.9</ele>
        <time>2000-01-01T05:28:13.000Z</time>
      </trkpt>
      <trkpt lat="44.35524" lon="3.05651">
        <ele>831.6</ele>
        <time>2000-01-01T05:28:23.000Z</time>
      </trkpt>
      <trkpt lat="44.35516" lon="3.05635">
        <ele>831.4</ele>
        <time>2000-01-01T05:28:33.000Z</time>
      </trkpt>
      <trkpt lat="44.35512" lon="3.05629">
        <ele>831.4</ele>
        <time>2000-01-01T05:28:43.000Z</time>
      </trkpt>
      <trkpt lat="44.35507" lon="3.05623">
        <ele>831.4</ele>
        <time>2000-01-01T05:28:53.000Z</time>
      </trkpt>
      <trkpt lat="44.35503" lon="3.05619">
        <ele>831.5</ele>
        <time>2000-01-01T05:29:03.000Z</time>
      </trkpt>
      <trkpt lat="44.35497" lon="3.05615">
        <ele>831.7</ele>
        <time>2000-01-01T05:29:13.000Z</time>
      </trkpt>
      <trkpt lat="44.35472" lon="3.05599">
        <ele>831.9</ele>
        <time>2000-01-01T05:29:23.000Z</time>
      </trkpt>
      <trkpt lat="44.35459" lon="3.05591">
        <ele>831.9</ele>
        <time>2000-01-01T05:29:33.000Z</time>
      </trkpt>
      <trkpt lat="44.35446" lon="3.05585">
        <ele>832</ele>
        <time>2000-01-01T05:29:43.000Z</time>
      </trkpt>
      <trkpt lat="44.35433" lon="3.05579">
        <ele>832.1</ele>
        <time>2000-01-01T05:29:53.000Z</time>
      </trkpt>
      <trkpt lat="44.35427" lon="3.05575">
        <ele>832</ele>
        <time>2000-01-01T05:30:03.000Z</time>
      </trkpt>
      <trkpt lat="44.35422" lon="3.05572">
        <ele>832</ele>
        <time>2000-01-01T05:30:13.000Z</time>
      </trkpt>
      <trkpt lat="44.35416" lon="3.05567">
        <ele>831.9</ele>
        <time>2000-01-01T05:30:23.000Z</time>
      </trkpt>
      <trkpt lat="44.3541" lon="3.0556">
        <ele>831.6</ele>
        <time>2000-01-01T05:30:33.000Z</time>
      </trkpt>
      <trkpt lat="44.35404" lon="3.05552">
        <ele>831.3</ele>
        <time>2000-01-01T05:30:43.000Z</time>
      </trkpt>
      <trkpt lat="44.35397" lon="3.05544">
        <ele>831.1</ele>
        <time>2000-01-01T05:30:53.000Z</time>
      </trkpt>
      <trkpt lat="44.35391" lon="3.05535">
        <ele>830.8</ele>
        <time>2000-01-01T05:31:03.000Z</time>
      </trkpt>
      <trkpt lat="44.3538" lon="3.05518">
        <ele>830.3</ele>
        <time>2000-01-01T05:31:13.000Z</time>
      </trkpt>
      <trkpt lat="44.3536" lon="3.05486">
        <ele>829.6</ele>
        <time>2000-01-01T05:31:23.000Z</time>
      </trkpt>
      <trkpt lat="44.35351" lon="3.0547">
        <ele>829.1</ele>
        <time>2000-01-01T05:31:33.000Z</time>
      </trkpt>
      <trkpt lat="44.35346" lon="3.05461">
        <ele>828.9</ele>
        <time>2000-01-01T05:31:43.000Z</time>
      </trkpt>
      <trkpt lat="44.35342" lon="3.05453">
        <ele>828.7</ele>
        <time>2000-01-01T05:31:53.000Z</time>
      </trkpt>
      <trkpt lat="44.35338" lon="3.05442">
        <ele>828.2</ele>
        <time>2000-01-01T05:32:03.000Z</time>
      </trkpt>
      <trkpt lat="44.35332" lon="3.05421">
        <ele>827.3</ele>
        <time>2000-01-01T05:32:13.000Z</time>
      </trkpt>
      <trkpt lat="44.35314" lon="3.05361">
        <ele>826.2</ele>
        <time>2000-01-01T05:32:23.000Z</time>
      </trkpt>
      <trkpt lat="44.35304" lon="3.05325">
        <ele>825.9</ele>
        <time>2000-01-01T05:32:33.000Z</time>
      </trkpt>
      <trkpt lat="44.35299" lon="3.05304">
        <ele>825.7</ele>
        <time>2000-01-01T05:32:43.000Z</time>
      </trkpt>
      <trkpt lat="44.35294" lon="3.05284">
        <ele>825.3</ele>
        <time>2000-01-01T05:32:53.000Z</time>
      </trkpt>
      <trkpt lat="44.35288" lon="3.0526">
        <ele>824.7</ele>
        <time>2000-01-01T05:33:03.000Z</time>
      </trkpt>
      <trkpt lat="44.35285" lon="3.05242">
        <ele>824.4</ele>
        <time>2000-01-01T05:33:13.000Z</time>
      </trkpt>
      <trkpt lat="44.35283" lon="3.05229">
        <ele>824.2</ele>
        <time>2000-01-01T05:33:23.000Z</time>
      </trkpt>
      <trkpt lat="44.35281" lon="3.05222">
        <ele>824.2</ele>
        <time>2000-01-01T05:33:33.000Z</time>
      </trkpt>
      <trkpt lat="44.3528" lon="3.05213">
        <ele>824.1</ele>
        <time>2000-01-01T05:33:43.000Z</time>
      </trkpt>
      <trkpt lat="44.35272" lon="3.05215">
        <ele>824</ele>
        <time>2000-01-01T05:33:53.000Z</time>
      </trkpt>
      <trkpt lat="44.35261" lon="3.05219">
        <ele>823.8</ele>
        <time>2000-01-01T05:34:03.000Z</time>
      </trkpt>
      <trkpt lat="44.35244" lon="3.05225">
        <ele>823.1</ele>
        <time>2000-01-01T05:34:13.000Z</time>
      </trkpt>
      <trkpt lat="44.35235" lon="3.05228">
        <ele>822.3</ele>
        <time>2000-01-01T05:34:23.000Z</time>
      </trkpt>
      <trkpt lat="44.35221" lon="3.0523">
        <ele>821.1</ele>
        <time>2000-01-01T05:34:33.000Z</time>
      </trkpt>
      <trkpt lat="44.35191" lon="3.0523">
        <ele>818.3</ele>
        <time>2000-01-01T05:34:43.000Z</time>
      </trkpt>
      <trkpt lat="44.35182" lon="3.05232">
        <ele>817.5</ele>
        <time>2000-01-01T05:34:53.000Z</time>
      </trkpt>
      <trkpt lat="44.3517" lon="3.05236">
        <ele>816.6</ele>
        <time>2000-01-01T05:35:03.000Z</time>
      </trkpt>
      <trkpt lat="44.35156" lon="3.05242">
        <ele>814.8</ele>
        <time>2000-01-01T05:35:13.000Z</time>
      </trkpt>
      <trkpt lat="44.35142" lon="3.05248">
        <ele>812.8</ele>
        <time>2000-01-01T05:35:23.000Z</time>
      </trkpt>
      <trkpt lat="44.3513" lon="3.05256">
        <ele>811.2</ele>
        <time>2000-01-01T05:35:33.000Z</time>
      </trkpt>
      <trkpt lat="44.35116" lon="3.05267">
        <ele>809.4</ele>
        <time>2000-01-01T05:35:43.000Z</time>
      </trkpt>
      <trkpt lat="44.35102" lon="3.0528">
        <ele>807.9</ele>
        <time>2000-01-01T05:35:53.000Z</time>
      </trkpt>
      <trkpt lat="44.35087" lon="3.05296">
        <ele>806.4</ele>
        <time>2000-01-01T05:36:03.000Z</time>
      </trkpt>
      <trkpt lat="44.35054" lon="3.05337">
        <ele>802.5</ele>
        <time>2000-01-01T05:36:13.000Z</time>
      </trkpt>
      <trkpt lat="44.35033" lon="3.05362">
        <ele>799.6</ele>
        <time>2000-01-01T05:36:23.000Z</time>
      </trkpt>
      <trkpt lat="44.35017" lon="3.05381">
        <ele>797.4</ele>
        <time>2000-01-01T05:36:33.000Z</time>
      </trkpt>
      <trkpt lat="44.34997" lon="3.05403">
        <ele>794.9</ele>
        <time>2000-01-01T05:36:43.000Z</time>
      </trkpt>
      <trkpt lat="44.34987" lon="3.05415">
        <ele>793.7</ele>
        <time>2000-01-01T05:36:53.000Z</time>
      </trkpt>
      <trkpt lat="44.34978" lon="3.05428">
        <ele>792.1</ele>
        <time>2000-01-01T05:37:03.000Z</time>
      </trkpt>
      <trkpt lat="44.34969" lon="3.05441">
        <ele>790.4</ele>
        <time>2000-01-01T05:37:13.000Z</time>
      </trkpt>
      <trkpt lat="44.34961" lon="3.05456">
        <ele>788.8</ele>
        <time>2000-01-01T05:37:23.000Z</time>
      </trkpt>
      <trkpt lat="44.34953" lon="3.05471">
        <ele>787.1</ele>
        <time>2000-01-01T05:37:33.000Z</time>
      </trkpt>
      <trkpt lat="44.34946" lon="3.05488">
        <ele>785.5</ele>
        <time>2000-01-01T05:37:43.000Z</time>
      </trkpt>
      <trkpt lat="44.3494" lon="3.05502">
        <ele>784.1</ele>
        <time>2000-01-01T05:37:53.000Z</time>
      </trkpt>
      <trkpt lat="44.34936" lon="3.05517">
        <ele>782.9</ele>
        <time>2000-01-01T05:38:03.000Z</time>
      </trkpt>
      <trkpt lat="44.34932" lon="3.05534">
        <ele>781.6</ele>
        <time>2000-01-01T05:38:13.000Z</time>
      </trkpt>
      <trkpt lat="44.34928" lon="3.05554">
        <ele>780.4</ele>
        <time>2000-01-01T05:38:23.000Z</time>
      </trkpt>
      <trkpt lat="44.34922" lon="3.05575">
        <ele>778.9</ele>
        <time>2000-01-01T05:38:33.000Z</time>
      </trkpt>
      <trkpt lat="44.34918" lon="3.0559">
        <ele>777.6</ele>
        <time>2000-01-01T05:38:43.000Z</time>
      </trkpt>
      <trkpt lat="44.34912" lon="3.05605">
        <ele>775.6</ele>
        <time>2000-01-01T05:38:53.000Z</time>
      </trkpt>
      <trkpt lat="44.34905" lon="3.05618">
        <ele>773.7</ele>
        <time>2000-01-01T05:39:03.000Z</time>
      </trkpt>
      <trkpt lat="44.34898" lon="3.0563">
        <ele>772</ele>
        <time>2000-01-01T05:39:13.000Z</time>
      </trkpt>
      <trkpt lat="44.34892" lon="3.05641">
        <ele>770.5</ele>
        <time>2000-01-01T05:39:23.000Z</time>
      </trkpt>
      <trkpt lat="44.34883" lon="3.05653">
        <ele>768.7</ele>
        <time>2000-01-01T05:39:33.000Z</time>
      </trkpt>
      <trkpt lat="44.34875" lon="3.05661">
        <ele>767.4</ele>
        <time>2000-01-01T05:39:43.000Z</time>
      </trkpt>
      <trkpt lat="44.34864" lon="3.05669">
        <ele>765.8</ele>
        <time>2000-01-01T05:39:53.000Z</time>
      </trkpt>
      <trkpt lat="44.34839" lon="3.05689">
        <ele>761.7</ele>
        <time>2000-01-01T05:40:03.000Z</time>
      </trkpt>
      <trkpt lat="44.3482" lon="3.05702">
        <ele>759.4</ele>
        <time>2000-01-01T05:40:13.000Z</time>
      </trkpt>
      <trkpt lat="44.34802" lon="3.05712">
        <ele>758</ele>
        <time>2000-01-01T05:40:23.000Z</time>
      </trkpt>
      <trkpt lat="44.34793" lon="3.05716">
        <ele>757.5</ele>
        <time>2000-01-01T05:40:33.000Z</time>
      </trkpt>
      <trkpt lat="44.34782" lon="3.05721">
        <ele>756.9</ele>
        <time>2000-01-01T05:40:43.000Z</time>
      </trkpt>
      <trkpt lat="44.34765" lon="3.05732">
        <ele>756.3</ele>
        <time>2000-01-01T05:40:53.000Z</time>
      </trkpt>
      <trkpt lat="44.34754" lon="3.05741">
        <ele>756</ele>
        <time>2000-01-01T05:41:03.000Z</time>
      </trkpt>
      <trkpt lat="44.3473" lon="3.05764">
        <ele>754.1</ele>
        <time>2000-01-01T05:41:13.000Z</time>
      </trkpt>
      <trkpt lat="44.34715" lon="3.05778">
        <ele>752.8</ele>
        <time>2000-01-01T05:41:23.000Z</time>
      </trkpt>
      <trkpt lat="44.34711" lon="3.05781">
        <ele>752.5</ele>
        <time>2000-01-01T05:41:33.000Z</time>
      </trkpt>
      <trkpt lat="44.3471" lon="3.05782">
        <ele>752.4</ele>
        <time>2000-01-01T05:41:43.000Z</time>
      </trkpt>
      <trkpt lat="44.34708" lon="3.05782">
        <ele>752.3</ele>
        <time>2000-01-01T05:41:53.000Z</time>
      </trkpt>
      <trkpt lat="44.34706" lon="3.05781">
        <ele>752.3</ele>
        <time>2000-01-01T05:42:03.000Z</time>
      </trkpt>
      <trkpt lat="44.34703" lon="3.05786">
        <ele>752</ele>
        <time>2000-01-01T05:42:13.000Z</time>
      </trkpt>
      <trkpt lat="44.34702" lon="3.05789">
        <ele>751.9</ele>
        <time>2000-01-01T05:42:23.000Z</time>
      </trkpt>
      <trkpt lat="44.34698" lon="3.05794">
        <ele>751.6</ele>
        <time>2000-01-01T05:42:33.000Z</time>
      </trkpt>
      <trkpt lat="44.34688" lon="3.05803">
        <ele>751</ele>
        <time>2000-01-01T05:42:43.000Z</time>
      </trkpt>
      <trkpt lat="44.34677" lon="3.0581">
        <ele>750.5</ele>
        <time>2000-01-01T05:42:53.000Z</time>
      </trkpt>
      <trkpt lat="44.34663" lon="3.05817">
        <ele>750</ele>
        <time>2000-01-01T05:43:03.000Z</time>
      </trkpt>
      <trkpt lat="44.34645" lon="3.05822">
        <ele>749.2</ele>
        <time>2000-01-01T05:43:13.000Z</time>
      </trkpt>
      <trkpt lat="44.34614" lon="3.0583">
        <ele>748</ele>
        <time>2000-01-01T05:43:23.000Z</time>
      </trkpt>
      <trkpt lat="44.34589" lon="3.05838">
        <ele>747.1</ele>
        <time>2000-01-01T05:43:33.000Z</time>
      </trkpt>
      <trkpt lat="44.34586" lon="3.0584">
        <ele>747</ele>
        <time>2000-01-01T05:43:43.000Z</time>
      </trkpt>
      <trkpt lat="44.34585" lon="3.05841">
        <ele>747</ele>
        <time>2000-01-01T05:43:53.000Z</time>
      </trkpt>
      <trkpt lat="44.34581" lon="3.05847">
        <ele>746.8</ele>
        <time>2000-01-01T05:44:03.000Z</time>
      </trkpt>
      <trkpt lat="44.3458" lon="3.05849">
        <ele>746.7</ele>
        <time>2000-01-01T05:44:13.000Z</time>
      </trkpt>
      <trkpt lat="44.34578" lon="3.05854">
        <ele>746.6</ele>
        <time>2000-01-01T05:44:23.000Z</time>
      </trkpt>
      <trkpt lat="44.34573" lon="3.05853">
        <ele>746.5</ele>
        <time>2000-01-01T05:44:33.000Z</time>
      </trkpt>
      <trkpt lat="44.34569" lon="3.05852">
        <ele>746.4</ele>
        <time>2000-01-01T05:44:43.000Z</time>
      </trkpt>
      <trkpt lat="44.34562" lon="3.05854">
        <ele>746.2</ele>
        <time>2000-01-01T05:44:53.000Z</time>
      </trkpt>
      <trkpt lat="44.3455" lon="3.05858">
        <ele>745.9</ele>
        <time>2000-01-01T05:45:03.000Z</time>
      </trkpt>
      <trkpt lat="44.34547" lon="3.0586">
        <ele>745.8</ele>
        <time>2000-01-01T05:45:13.000Z</time>
      </trkpt>
      <trkpt lat="44.34541" lon="3.05869">
        <ele>745.6</ele>
        <time>2000-01-01T05:45:23.000Z</time>
      </trkpt>
      <trkpt lat="44.3454" lon="3.05874">
        <ele>745.5</ele>
        <time>2000-01-01T05:45:33.000Z</time>
      </trkpt>
      <trkpt lat="44.34537" lon="3.05874">
        <ele>745.4</ele>
        <time>2000-01-01T05:45:43.000Z</time>
      </trkpt>
      <trkpt lat="44.34529" lon="3.05874">
        <ele>745.2</ele>
        <time>2000-01-01T05:45:53.000Z</time>
      </trkpt>
      <trkpt lat="44.34511" lon="3.0587">
        <ele>744.8</ele>
        <time>2000-01-01T05:46:03.000Z</time>
      </trkpt>
      <trkpt lat="44.34501" lon="3.05868">
        <ele>744.6</ele>
        <time>2000-01-01T05:46:13.000Z</time>
      </trkpt>
      <trkpt lat="44.34489" lon="3.05865">
        <ele>744.1</ele>
        <time>2000-01-01T05:46:23.000Z</time>
      </trkpt>
      <trkpt lat="44.34479" lon="3.05861">
        <ele>743.7</ele>
        <time>2000-01-01T05:46:33.000Z</time>
      </trkpt>
      <trkpt lat="44.34478" lon="3.0586">
        <ele>743.6</ele>
        <time>2000-01-01T05:46:43.000Z</time>
      </trkpt>
      <trkpt lat="44.34471" lon="3.05857">
        <ele>743.3</ele>
        <time>2000-01-01T05:46:53.000Z</time>
      </trkpt>
      <trkpt lat="44.34466" lon="3.05854">
        <ele>743.1</ele>
        <time>2000-01-01T05:47:03.000Z</time>
      </trkpt>
      <trkpt lat="44.34462" lon="3.0585">
        <ele>743</ele>
        <time>2000-01-01T05:47:13.000Z</time>
      </trkpt>
      <trkpt lat="44.34454" lon="3.05839">
        <ele>742.7</ele>
        <time>2000-01-01T05:47:23.000Z</time>
      </trkpt>
      <trkpt lat="44.34453" lon="3.05838">
        <ele>742.7</ele>
        <time>2000-01-01T05:47:33.000Z</time>
      </trkpt>
      <trkpt lat="44.34441" lon="3.05821">
        <ele>741.8</ele>
        <time>2000-01-01T05:47:43.000Z</time>
      </trkpt>
      <trkpt lat="44.34434" lon="3.05813">
        <ele>741.2</ele>
        <time>2000-01-01T05:47:53.000Z</time>
      </trkpt>
      <trkpt lat="44.3442" lon="3.05794">
        <ele>740.2</ele>
        <time>2000-01-01T05:48:03.000Z</time>
      </trkpt>
      <trkpt lat="44.34399" lon="3.05767">
        <ele>738.3</ele>
        <time>2000-01-01T05:48:13.000Z</time>
      </trkpt>
      <trkpt lat="44.34389" lon="3.05752">
        <ele>737.4</ele>
        <time>2000-01-01T05:48:23.000Z</time>
      </trkpt>
      <trkpt lat="44.3438" lon="3.05764">
        <ele>737</ele>
        <time>2000-01-01T05:48:33.000Z</time>
      </trkpt>
      <trkpt lat="44.34373" lon="3.05771">
        <ele>736.6</ele>
        <time>2000-01-01T05:48:43.000Z</time>
      </trkpt>
      <trkpt lat="44.34366" lon="3.05778">
        <ele>736.2</ele>
        <time>2000-01-01T05:48:53.000Z</time>
      </trkpt>
      <trkpt lat="44.34359" lon="3.05783">
        <ele>735.8</ele>
        <time>2000-01-01T05:49:03.000Z</time>
      </trkpt>
      <trkpt lat="44.3435" lon="3.05788">
        <ele>735.2</ele>
        <time>2000-01-01T05:49:13.000Z</time>
      </trkpt>
      <trkpt lat="44.3434" lon="3.05792">
        <ele>734.5</ele>
        <time>2000-01-01T05:49:23.000Z</time>
      </trkpt>
      <trkpt lat="44.34331" lon="3.05796">
        <ele>733.9</ele>
        <time>2000-01-01T05:49:33.000Z</time>
      </trkpt>
      <trkpt lat="44.34331" lon="3.05796">
        <ele>733.9</ele>
        <time>2000-01-01T05:49:43.000Z</time>
      </trkpt>
      <trkpt lat="44.34331" lon="3.05796">
        <ele>733.9</ele>
        <time>2000-01-01T05:49:53.000Z</time>
      </trkpt>
      <trkpt lat="44.34322" lon="3.05802">
        <ele>733.3</ele>
        <time>2000-01-01T05:50:03.000Z</time>
      </trkpt>
      <trkpt lat="44.34312" lon="3.05811">
        <ele>732.5</ele>
        <time>2000-01-01T05:50:13.000Z</time>
      </trkpt>
      <trkpt lat="44.34298" lon="3.05822">
        <ele>731.3</ele>
        <time>2000-01-01T05:50:23.000Z</time>
      </trkpt>
      <trkpt lat="44.34296" lon="3.05823">
        <ele>731.1</ele>
        <time>2000-01-01T05:50:33.000Z</time>
      </trkpt>
      <trkpt lat="44.34289" lon="3.05827">
        <ele>730.4</ele>
        <time>2000-01-01T05:50:43.000Z</time>
      </trkpt>
      <trkpt lat="44.34272" lon="3.05834">
        <ele>728.8</ele>
        <time>2000-01-01T05:50:53.000Z</time>
      </trkpt>
      <trkpt lat="44.34238" lon="3.05847">
        <ele>725.7</ele>
        <time>2000-01-01T05:51:03.000Z</time>
      </trkpt>
      <trkpt lat="44.34212" lon="3.05858">
        <ele>724.2</ele>
        <time>2000-01-01T05:51:13.000Z</time>
      </trkpt>
      <trkpt lat="44.34195" lon="3.05864">
        <ele>723.3</ele>
        <time>2000-01-01T05:51:23.000Z</time>
      </trkpt>
      <trkpt lat="44.34178" lon="3.05869">
        <ele>722.4</ele>
        <time>2000-01-01T05:51:33.000Z</time>
      </trkpt>
      <trkpt lat="44.34162" lon="3.05873">
        <ele>721.7</ele>
        <time>2000-01-01T05:51:43.000Z</time>
      </trkpt>
      <trkpt lat="44.3415" lon="3.05876">
        <ele>721.4</ele>
        <time>2000-01-01T05:51:53.000Z</time>
      </trkpt>
      <trkpt lat="44.34137" lon="3.05882">
        <ele>720.8</ele>
        <time>2000-01-01T05:52:03.000Z</time>
      </trkpt>
      <trkpt lat="44.34124" lon="3.05888">
        <ele>720.3</ele>
        <time>2000-01-01T05:52:13.000Z</time>
      </trkpt>
      <trkpt lat="44.34113" lon="3.05896">
        <ele>719.6</ele>
        <time>2000-01-01T05:52:23.000Z</time>
      </trkpt>
      <trkpt lat="44.34099" lon="3.05907">
        <ele>718.7</ele>
        <time>2000-01-01T05:52:33.000Z</time>
      </trkpt>
      <trkpt lat="44.34086" lon="3.05915">
        <ele>718.1</ele>
        <time>2000-01-01T05:52:43.000Z</time>
      </trkpt>
      <trkpt lat="44.34071" lon="3.05922">
        <ele>717.8</ele>
        <time>2000-01-01T05:52:53.000Z</time>
      </trkpt>
      <trkpt lat="44.34057" lon="3.05928">
        <ele>717.6</ele>
        <time>2000-01-01T05:53:03.000Z</time>
      </trkpt>
      <trkpt lat="44.34043" lon="3.05935">
        <ele>717.3</ele>
        <time>2000-01-01T05:53:13.000Z</time>
      </trkpt>
      <trkpt lat="44.34023" lon="3.05947">
        <ele>716.6</ele>
        <time>2000-01-01T05:53:23.000Z</time>
      </trkpt>
      <trkpt lat="44.34002" lon="3.05956">
        <ele>716.2</ele>
        <time>2000-01-01T05:53:33.000Z</time>
      </trkpt>
      <trkpt lat="44.33986" lon="3.05961">
        <ele>715.5</ele>
        <time>2000-01-01T05:53:43.000Z</time>
      </trkpt>
      <trkpt lat="44.33969" lon="3.05965">
        <ele>714.9</ele>
        <time>2000-01-01T05:53:53.000Z</time>
      </trkpt>
      <trkpt lat="44.33956" lon="3.05966">
        <ele>714.6</ele>
        <time>2000-01-01T05:54:03.000Z</time>
      </trkpt>
      <trkpt lat="44.33942" lon="3.05966">
        <ele>714.3</ele>
        <time>2000-01-01T05:54:13.000Z</time>
      </trkpt>
      <trkpt lat="44.33928" lon="3.05964">
        <ele>714.1</ele>
        <time>2000-01-01T05:54:23.000Z</time>
      </trkpt>
      <trkpt lat="44.33906" lon="3.0596">
        <ele>713.3</ele>
        <time>2000-01-01T05:54:33.000Z</time>
      </trkpt>
      <trkpt lat="44.33897" lon="3.0596">
        <ele>712.8</ele>
        <time>2000-01-01T05:54:43.000Z</time>
      </trkpt>
      <trkpt lat="44.33882" lon="3.05963">
        <ele>711.8</ele>
        <time>2000-01-01T05:54:53.000Z</time>
      </trkpt>
      <trkpt lat="44.33869" lon="3.05965">
        <ele>711</ele>
        <time>2000-01-01T05:55:03.000Z</time>
      </trkpt>
      <trkpt lat="44.33858" lon="3.05966">
        <ele>710.3</ele>
        <time>2000-01-01T05:55:13.000Z</time>
      </trkpt>
      <trkpt lat="44.33841" lon="3.05964">
        <ele>709.3</ele>
        <time>2000-01-01T05:55:23.000Z</time>
      </trkpt>
      <trkpt lat="44.33825" lon="3.05962">
        <ele>708.7</ele>
        <time>2000-01-01T05:55:33.000Z</time>
      </trkpt>
      <trkpt lat="44.33805" lon="3.05961">
        <ele>708.1</ele>
        <time>2000-01-01T05:55:43.000Z</time>
      </trkpt>
      <trkpt lat="44.33781" lon="3.05963">
        <ele>707.4</ele>
        <time>2000-01-01T05:55:53.000Z</time>
      </trkpt>
      <trkpt lat="44.33761" lon="3.05964">
        <ele>706.8</ele>
        <time>2000-01-01T05:56:03.000Z</time>
      </trkpt>
      <trkpt lat="44.33748" lon="3.05966">
        <ele>706.3</ele>
        <time>2000-01-01T05:56:13.000Z</time>
      </trkpt>
      <trkpt lat="44.33738" lon="3.05968">
        <ele>705.8</ele>
        <time>2000-01-01T05:56:23.000Z</time>
      </trkpt>
      <trkpt lat="44.3373" lon="3.05972">
        <ele>705.4</ele>
        <time>2000-01-01T05:56:33.000Z</time>
      </trkpt>
      <trkpt lat="44.33722" lon="3.05978">
        <ele>704.9</ele>
        <time>2000-01-01T05:56:43.000Z</time>
      </trkpt>
      <trkpt lat="44.33715" lon="3.05983">
        <ele>704.5</ele>
        <time>2000-01-01T05:56:53.000Z</time>
      </trkpt>
      <trkpt lat="44.33709" lon="3.05985">
        <ele>704.2</ele>
        <time>2000-01-01T05:57:03.000Z</time>
      </trkpt>
      <trkpt lat="44.33697" lon="3.05986">
        <ele>703.6</ele>
        <time>2000-01-01T05:57:13.000Z</time>
      </trkpt>
      <trkpt lat="44.3366" lon="3.0599">
        <ele>701.7</ele>
        <time>2000-01-01T05:57:23.000Z</time>
      </trkpt>
      <trkpt lat="44.33646" lon="3.05991">
        <ele>700.9</ele>
        <time>2000-01-01T05:57:33.000Z</time>
      </trkpt>
      <trkpt lat="44.33637" lon="3.05991">
        <ele>700.4</ele>
        <time>2000-01-01T05:57:43.000Z</time>
      </trkpt>
      <trkpt lat="44.33629" lon="3.05988">
        <ele>700</ele>
        <time>2000-01-01T05:57:53.000Z</time>
      </trkpt>
      <trkpt lat="44.33618" lon="3.05984">
        <ele>699.5</ele>
        <time>2000-01-01T05:58:03.000Z</time>
      </trkpt>
      <trkpt lat="44.33608" lon="3.05979">
        <ele>699.1</ele>
        <time>2000-01-01T05:58:13.000Z</time>
      </trkpt>
      <trkpt lat="44.336" lon="3.05976">
        <ele>698.7</ele>
        <time>2000-01-01T05:58:23.000Z</time>
      </trkpt>
      <trkpt lat="44.33595" lon="3.05975">
        <ele>698.5</ele>
        <time>2000-01-01T05:58:33.000Z</time>
      </trkpt>
      <trkpt lat="44.33588" lon="3.05976">
        <ele>698.1</ele>
        <time>2000-01-01T05:58:43.000Z</time>
      </trkpt>
      <trkpt lat="44.33584" lon="3.05978">
        <ele>697.8</ele>
        <time>2000-01-01T05:58:53.000Z</time>
      </trkpt>
      <trkpt lat="44.3358" lon="3.05982">
        <ele>697.4</ele>
        <time>2000-01-01T05:59:03.000Z</time>
      </trkpt>
      <trkpt lat="44.33577" lon="3.05988">
        <ele>697</ele>
        <time>2000-01-01T05:59:13.000Z</time>
      </trkpt>
      <trkpt lat="44.33573" lon="3.05998">
        <ele>696.3</ele>
        <time>2000-01-01T05:59:23.000Z</time>
      </trkpt>
      <trkpt lat="44.33571" lon="3.06002">
        <ele>696.2</ele>
        <time>2000-01-01T05:59:33.000Z</time>
      </trkpt>
      <trkpt lat="44.33567" lon="3.06014">
        <ele>696.2</ele>
        <time>2000-01-01T05:59:43.000Z</time>
      </trkpt>
      <trkpt lat="44.33564" lon="3.06023">
        <ele>696.2</ele>
        <time>2000-01-01T05:59:53.000Z</time>
      </trkpt>
      <trkpt lat="44.33559" lon="3.06021">
        <ele>695.8</ele>
        <time>2000-01-01T06:00:03.000Z</time>
      </trkpt>
      <trkpt lat="44.33553" lon="3.0602">
        <ele>695.3</ele>
        <time>2000-01-01T06:00:13.000Z</time>
      </trkpt>
      <trkpt lat="44.33543" lon="3.06019">
        <ele>694.4</ele>
        <time>2000-01-01T06:00:23.000Z</time>
      </trkpt>
      <trkpt lat="44.3353" lon="3.06022">
        <ele>693.4</ele>
        <time>2000-01-01T06:00:33.000Z</time>
      </trkpt>
      <trkpt lat="44.33516" lon="3.06025">
        <ele>692.3</ele>
        <time>2000-01-01T06:00:43.000Z</time>
      </trkpt>
      <trkpt lat="44.33505" lon="3.0603">
        <ele>691.4</ele>
        <time>2000-01-01T06:00:53.000Z</time>
      </trkpt>
      <trkpt lat="44.33493" lon="3.06037">
        <ele>690</ele>
        <time>2000-01-01T06:01:03.000Z</time>
      </trkpt>
      <trkpt lat="44.3348" lon="3.06046">
        <ele>688.3</ele>
        <time>2000-01-01T06:01:13.000Z</time>
      </trkpt>
      <trkpt lat="44.33469" lon="3.06056">
        <ele>686.8</ele>
        <time>2000-01-01T06:01:23.000Z</time>
      </trkpt>
      <trkpt lat="44.33463" lon="3.06064">
        <ele>686</ele>
        <time>2000-01-01T06:01:33.000Z</time>
      </trkpt>
      <trkpt lat="44.3346" lon="3.06071">
        <ele>685.6</ele>
        <time>2000-01-01T06:01:43.000Z</time>
      </trkpt>
      <trkpt lat="44.33457" lon="3.06079">
        <ele>685.3</ele>
        <time>2000-01-01T06:01:53.000Z</time>
      </trkpt>
      <trkpt lat="44.33455" lon="3.06091">
        <ele>684.9</ele>
        <time>2000-01-01T06:02:03.000Z</time>
      </trkpt>
      <trkpt lat="44.33454" lon="3.06103">
        <ele>684.6</ele>
        <time>2000-01-01T06:02:13.000Z</time>
      </trkpt>
      <trkpt lat="44.33455" lon="3.06122">
        <ele>684.5</ele>
        <time>2000-01-01T06:02:23.000Z</time>
      </trkpt>
      <trkpt lat="44.33456" lon="3.06137">
        <ele>684.3</ele>
        <time>2000-01-01T06:02:33.000Z</time>
      </trkpt>
      <trkpt lat="44.33457" lon="3.06139">
        <ele>684.4</ele>
        <time>2000-01-01T06:02:43.000Z</time>
      </trkpt>
      <trkpt lat="44.33459" lon="3.06152">
        <ele>684.3</ele>
        <time>2000-01-01T06:02:53.000Z</time>
      </trkpt>
      <trkpt lat="44.33451" lon="3.06153">
        <ele>683.6</ele>
        <time>2000-01-01T06:03:03.000Z</time>
      </trkpt>
      <trkpt lat="44.3344" lon="3.06146">
        <ele>682.8</ele>
        <time>2000-01-01T06:03:13.000Z</time>
      </trkpt>
      <trkpt lat="44.33431" lon="3.06111">
        <ele>681.9</ele>
        <time>2000-01-01T06:03:23.000Z</time>
      </trkpt>
      <trkpt lat="44.33409" lon="3.06075">
        <ele>680.6</ele>
        <time>2000-01-01T06:03:33.000Z</time>
      </trkpt>
      <trkpt lat="44.33391" lon="3.06045">
        <ele>681.3</ele>
        <time>2000-01-01T06:03:43.000Z</time>
      </trkpt>
      <trkpt lat="44.33383" lon="3.06036">
        <ele>681.5</ele>
        <time>2000-01-01T06:03:53.000Z</time>
      </trkpt>
      <trkpt lat="44.33378" lon="3.06034">
        <ele>681.7</ele>
        <time>2000-01-01T06:04:03.000Z</time>
      </trkpt>
      <trkpt lat="44.33377" lon="3.06034">
        <ele>681.8</ele>
        <time>2000-01-01T06:04:13.000Z</time>
      </trkpt>
      <trkpt lat="44.33373" lon="3.06038">
        <ele>682.2</ele>
        <time>2000-01-01T06:04:23.000Z</time>
      </trkpt>
      <trkpt lat="44.33371" lon="3.06043">
        <ele>682.6</ele>
        <time>2000-01-01T06:04:33.000Z</time>
      </trkpt>
      <trkpt lat="44.3337" lon="3.06055">
        <ele>683.2</ele>
        <time>2000-01-01T06:04:43.000Z</time>
      </trkpt>
      <trkpt lat="44.33369" lon="3.06069">
        <ele>683.9</ele>
        <time>2000-01-01T06:04:53.000Z</time>
      </trkpt>
      <trkpt lat="44.33367" lon="3.06077">
        <ele>684.5</ele>
        <time>2000-01-01T06:05:03.000Z</time>
      </trkpt>
      <trkpt lat="44.33364" lon="3.06084">
        <ele>685.1</ele>
        <time>2000-01-01T06:05:13.000Z</time>
      </trkpt>
      <trkpt lat="44.33361" lon="3.06087">
        <ele>685.5</ele>
        <time>2000-01-01T06:05:23.000Z</time>
      </trkpt>
      <trkpt lat="44.33357" lon="3.06086">
        <ele>685.9</ele>
        <time>2000-01-01T06:05:33.000Z</time>
      </trkpt>
      <trkpt lat="44.33352" lon="3.06081">
        <ele>686.1</ele>
        <time>2000-01-01T06:05:43.000Z</time>
      </trkpt>
      <trkpt lat="44.33338" lon="3.06064">
        <ele>686.2</ele>
        <time>2000-01-01T06:05:53.000Z</time>
      </trkpt>
      <trkpt lat="44.33333" lon="3.06058">
        <ele>686.2</ele>
        <time>2000-01-01T06:06:03.000Z</time>
      </trkpt>
      <trkpt lat="44.33328" lon="3.06056">
        <ele>686.4</ele>
        <time>2000-01-01T06:06:13.000Z</time>
      </trkpt>
      <trkpt lat="44.33322" lon="3.06055">
        <ele>686.7</ele>
        <time>2000-01-01T06:06:23.000Z</time>
      </trkpt>
      <trkpt lat="44.33316" lon="3.06056">
        <ele>687.1</ele>
        <time>2000-01-01T06:06:33.000Z</time>
      </trkpt>
      <trkpt lat="44.3331" lon="3.06059">
        <ele>687.7</ele>
        <time>2000-01-01T06:06:43.000Z</time>
      </trkpt>
      <trkpt lat="44.33305" lon="3.06065">
        <ele>688.3</ele>
        <time>2000-01-01T06:06:53.000Z</time>
      </trkpt>
      <trkpt lat="44.333" lon="3.06072">
        <ele>689</ele>
        <time>2000-01-01T06:07:03.000Z</time>
      </trkpt>
      <trkpt lat="44.33295" lon="3.06082">
        <ele>689.8</ele>
        <time>2000-01-01T06:07:13.000Z</time>
      </trkpt>
      <trkpt lat="44.3331" lon="3.06099">
        <ele>689.9</ele>
        <time>2000-01-01T06:07:23.000Z</time>
      </trkpt>
      <trkpt lat="44.33317" lon="3.06112">
        <ele>690.3</ele>
        <time>2000-01-01T06:07:33.000Z</time>
      </trkpt>
      <trkpt lat="44.33321" lon="3.0612">
        <ele>690.6</ele>
        <time>2000-01-01T06:07:43.000Z</time>
      </trkpt>
      <trkpt lat="44.33325" lon="3.06129">
        <ele>691</ele>
        <time>2000-01-01T06:07:53.000Z</time>
      </trkpt>
      <trkpt lat="44.33332" lon="3.06148">
        <ele>691.9</ele>
        <time>2000-01-01T06:08:03.000Z</time>
      </trkpt>
      <trkpt lat="44.33336" lon="3.0617">
        <ele>692.8</ele>
        <time>2000-01-01T06:08:13.000Z</time>
      </trkpt>
      <trkpt lat="44.33339" lon="3.06188">
        <ele>693.4</ele>
        <time>2000-01-01T06:08:23.000Z</time>
      </trkpt>
      <trkpt lat="44.33339" lon="3.06201">
        <ele>694.1</ele>
        <time>2000-01-01T06:08:33.000Z</time>
      </trkpt>
      <trkpt lat="44.33337" lon="3.06212">
        <ele>695.1</ele>
        <time>2000-01-01T06:08:43.000Z</time>
      </trkpt>
      <trkpt lat="44.33333" lon="3.06225">
        <ele>696.5</ele>
        <time>2000-01-01T06:08:53.000Z</time>
      </trkpt>
      <trkpt lat="44.33326" lon="3.0624">
        <ele>697.3</ele>
        <time>2000-01-01T06:09:03.000Z</time>
      </trkpt>
      <trkpt lat="44.33314" lon="3.06265">
        <ele>697.2</ele>
        <time>2000-01-01T06:09:13.000Z</time>
      </trkpt>
      <trkpt lat="44.33298" lon="3.06295">
        <ele>696.4</ele>
        <time>2000-01-01T06:09:23.000Z</time>
      </trkpt>
      <trkpt lat="44.33294" lon="3.06303">
        <ele>696.3</ele>
        <time>2000-01-01T06:09:33.000Z</time>
      </trkpt>
      <trkpt lat="44.33291" lon="3.06309">
        <ele>696.3</ele>
        <time>2000-01-01T06:09:43.000Z</time>
      </trkpt>
      <trkpt lat="44.33286" lon="3.06326">
        <ele>696.2</ele>
        <time>2000-01-01T06:09:53.000Z</time>
      </trkpt>
      <trkpt lat="44.33282" lon="3.06338">
        <ele>696.1</ele>
        <time>2000-01-01T06:10:03.000Z</time>
      </trkpt>
      <trkpt lat="44.33279" lon="3.0635">
        <ele>695.8</ele>
        <time>2000-01-01T06:10:13.000Z</time>
      </trkpt>
      <trkpt lat="44.33275" lon="3.06365">
        <ele>695.6</ele>
        <time>2000-01-01T06:10:23.000Z</time>
      </trkpt>
      <trkpt lat="44.33265" lon="3.06361">
        <ele>696.2</ele>
        <time>2000-01-01T06:10:33.000Z</time>
      </trkpt>
      <trkpt lat="44.33265" lon="3.06361">
        <ele>696.2</ele>
        <time>2000-01-01T06:10:43.000Z</time>
      </trkpt>
      <trkpt lat="44.3325" lon="3.06354">
        <ele>697</ele>
        <time>2000-01-01T06:10:53.000Z</time>
      </trkpt>
      <trkpt lat="44.33237" lon="3.0635">
        <ele>696.5</ele>
        <time>2000-01-01T06:11:03.000Z</time>
      </trkpt>
      <trkpt lat="44.33222" lon="3.06349">
        <ele>696</ele>
        <time>2000-01-01T06:11:13.000Z</time>
      </trkpt>
      <trkpt lat="44.33222" lon="3.06348">
        <ele>696</ele>
        <time>2000-01-01T06:11:23.000Z</time>
      </trkpt>
      <trkpt lat="44.33222" lon="3.06348">
        <ele>696</ele>
        <time>2000-01-01T06:11:33.000Z</time>
      </trkpt>
      <trkpt lat="44.33218" lon="3.06348">
        <ele>695.8</ele>
        <time>2000-01-01T06:11:43.000Z</time>
      </trkpt>
      <trkpt lat="44.33212" lon="3.06347">
        <ele>695.6</ele>
        <time>2000-01-01T06:11:53.000Z</time>
      </trkpt>
      <trkpt lat="44.33201" lon="3.06342">
        <ele>695.2</ele>
        <time>2000-01-01T06:12:03.000Z</time>
      </trkpt>
      <trkpt lat="44.33192" lon="3.06335">
        <ele>694.9</ele>
        <time>2000-01-01T06:12:13.000Z</time>
      </trkpt>
      <trkpt lat="44.3317" lon="3.06319">
        <ele>693.6</ele>
        <time>2000-01-01T06:12:23.000Z</time>
      </trkpt>
      <trkpt lat="44.33156" lon="3.0631">
        <ele>692.4</ele>
        <time>2000-01-01T06:12:33.000Z</time>
      </trkpt>
      <trkpt lat="44.33151" lon="3.06307">
        <ele>692</ele>
        <time>2000-01-01T06:12:43.000Z</time>
      </trkpt>
      <trkpt lat="44.33145" lon="3.06306">
        <ele>691.5</ele>
        <time>2000-01-01T06:12:53.000Z</time>
      </trkpt>
      <trkpt lat="44.33139" lon="3.06307">
        <ele>691.2</ele>
        <time>2000-01-01T06:13:03.000Z</time>
      </trkpt>
      <trkpt lat="44.33133" lon="3.06308">
        <ele>690.8</ele>
        <time>2000-01-01T06:13:13.000Z</time>
      </trkpt>
      <trkpt lat="44.33131" lon="3.06307">
        <ele>690.6</ele>
        <time>2000-01-01T06:13:23.000Z</time>
      </trkpt>
      <trkpt lat="44.33127" lon="3.06307">
        <ele>690.3</ele>
        <time>2000-01-01T06:13:33.000Z</time>
      </trkpt>
      <trkpt lat="44.33114" lon="3.06315">
        <ele>689.7</ele>
        <time>2000-01-01T06:13:43.000Z</time>
      </trkpt>
      <trkpt lat="44.33104" lon="3.06321">
        <ele>689.2</ele>
        <time>2000-01-01T06:13:53.000Z</time>
      </trkpt>
      <trkpt lat="44.33101" lon="3.06323">
        <ele>689</ele>
        <time>2000-01-01T06:14:03.000Z</time>
      </trkpt>
      <trkpt lat="44.33086" lon="3.06331">
        <ele>688.1</ele>
        <time>2000-01-01T06:14:13.000Z</time>
      </trkpt>
      <trkpt lat="44.33081" lon="3.06336">
        <ele>688</ele>
        <time>2000-01-01T06:14:23.000Z</time>
      </trkpt>
      <trkpt lat="44.33078" lon="3.0634">
        <ele>688</ele>
        <time>2000-01-01T06:14:33.000Z</time>
      </trkpt>
      <trkpt lat="44.33073" lon="3.06347">
        <ele>688.1</ele>
        <time>2000-01-01T06:14:43.000Z</time>
      </trkpt>
      <trkpt lat="44.33066" lon="3.06357">
        <ele>688.1</ele>
        <time>2000-01-01T06:14:53.000Z</time>
      </trkpt>
      <trkpt lat="44.33063" lon="3.0636">
        <ele>688.1</ele>
        <time>2000-01-01T06:15:03.000Z</time>
      </trkpt>
      <trkpt lat="44.33057" lon="3.06364">
        <ele>688</ele>
        <time>2000-01-01T06:15:13.000Z</time>
      </trkpt>
      <trkpt lat="44.33046" lon="3.06368">
        <ele>687.7</ele>
        <time>2000-01-01T06:15:23.000Z</time>
      </trkpt>
      <trkpt lat="44.33024" lon="3.06373">
        <ele>687.2</ele>
        <time>2000-01-01T06:15:33.000Z</time>
      </trkpt>
      <trkpt lat="44.33" lon="3.06379">
        <ele>686.5</ele>
        <time>2000-01-01T06:15:43.000Z</time>
      </trkpt>
      <trkpt lat="44.32976" lon="3.06385">
        <ele>686.4</ele>
        <time>2000-01-01T06:15:53.000Z</time>
      </trkpt>
      <trkpt lat="44.32955" lon="3.06389">
        <ele>686.3</ele>
        <time>2000-01-01T06:16:03.000Z</time>
      </trkpt>
      <trkpt lat="44.32941" lon="3.06394">
        <ele>686.2</ele>
        <time>2000-01-01T06:16:13.000Z</time>
      </trkpt>
      <trkpt lat="44.32928" lon="3.064">
        <ele>686.1</ele>
        <time>2000-01-01T06:16:23.000Z</time>
      </trkpt>
      <trkpt lat="44.32927" lon="3.064">
        <ele>686.1</ele>
        <time>2000-01-01T06:16:33.000Z</time>
      </trkpt>
      <trkpt lat="44.32923" lon="3.06402">
        <ele>686.1</ele>
        <time>2000-01-01T06:16:43.000Z</time>
      </trkpt>
      <trkpt lat="44.32917" lon="3.06408">
        <ele>686</ele>
        <time>2000-01-01T06:16:53.000Z</time>
      </trkpt>
      <trkpt lat="44.32901" lon="3.06422">
        <ele>686.2</ele>
        <time>2000-01-01T06:17:03.000Z</time>
      </trkpt>
      <trkpt lat="44.32884" lon="3.06438">
        <ele>686.5</ele>
        <time>2000-01-01T06:17:13.000Z</time>
      </trkpt>
      <trkpt lat="44.32867" lon="3.06455">
        <ele>687.2</ele>
        <time>2000-01-01T06:17:23.000Z</time>
      </trkpt>
      <trkpt lat="44.32858" lon="3.06463">
        <ele>687.7</ele>
        <time>2000-01-01T06:17:33.000Z</time>
      </trkpt>
      <trkpt lat="44.32851" lon="3.06472">
        <ele>688.2</ele>
        <time>2000-01-01T06:17:43.000Z</time>
      </trkpt>
      <trkpt lat="44.32848" lon="3.06478">
        <ele>688.5</ele>
        <time>2000-01-01T06:17:53.000Z</time>
      </trkpt>
      <trkpt lat="44.32844" lon="3.06486">
        <ele>688.9</ele>
        <time>2000-01-01T06:18:03.000Z</time>
      </trkpt>
      <trkpt lat="44.3284" lon="3.06496">
        <ele>689.5</ele>
        <time>2000-01-01T06:18:13.000Z</time>
      </trkpt>
      <trkpt lat="44.32836" lon="3.06502">
        <ele>689.9</ele>
        <time>2000-01-01T06:18:23.000Z</time>
      </trkpt>
      <trkpt lat="44.3283" lon="3.06511">
        <ele>690.7</ele>
        <time>2000-01-01T06:18:33.000Z</time>
      </trkpt>
      <trkpt lat="44.32821" lon="3.0652">
        <ele>691.6</ele>
        <time>2000-01-01T06:18:43.000Z</time>
      </trkpt>
      <trkpt lat="44.3281" lon="3.06533">
        <ele>692.8</ele>
        <time>2000-01-01T06:18:53.000Z</time>
      </trkpt>
      <trkpt lat="44.32793" lon="3.06555">
        <ele>694.4</ele>
        <time>2000-01-01T06:19:03.000Z</time>
      </trkpt>
      <trkpt lat="44.32779" lon="3.06573">
        <ele>695.6</ele>
        <time>2000-01-01T06:19:13.000Z</time>
      </trkpt>
      <trkpt lat="44.3277" lon="3.06586">
        <ele>696.5</ele>
        <time>2000-01-01T06:19:23.000Z</time>
      </trkpt>
      <trkpt lat="44.32764" lon="3.06594">
        <ele>697.3</ele>
        <time>2000-01-01T06:19:33.000Z</time>
      </trkpt>
      <trkpt lat="44.32759" lon="3.06603">
        <ele>698.2</ele>
        <time>2000-01-01T06:19:43.000Z</time>
      </trkpt>
      <trkpt lat="44.32756" lon="3.06609">
        <ele>698.8</ele>
        <time>2000-01-01T06:19:53.000Z</time>
      </trkpt>
      <trkpt lat="44.32754" lon="3.06615">
        <ele>699.4</ele>
        <time>2000-01-01T06:20:03.000Z</time>
      </trkpt>
      <trkpt lat="44.32751" lon="3.0662">
        <ele>700</ele>
        <time>2000-01-01T06:20:13.000Z</time>
      </trkpt>
      <trkpt lat="44.32745" lon="3.06625">
        <ele>700.9</ele>
        <time>2000-01-01T06:20:23.000Z</time>
      </trkpt>
      <trkpt lat="44.32742" lon="3.06627">
        <ele>701.3</ele>
        <time>2000-01-01T06:20:33.000Z</time>
      </trkpt>
      <trkpt lat="44.32739" lon="3.06631">
        <ele>701.9</ele>
        <time>2000-01-01T06:20:43.000Z</time>
      </trkpt>
      <trkpt lat="44.32734" lon="3.06639">
        <ele>702.9</ele>
        <time>2000-01-01T06:20:53.000Z</time>
      </trkpt>
      <trkpt lat="44.3273" lon="3.06645">
        <ele>703.7</ele>
        <time>2000-01-01T06:21:03.000Z</time>
      </trkpt>
      <trkpt lat="44.32727" lon="3.06651">
        <ele>704.4</ele>
        <time>2000-01-01T06:21:13.000Z</time>
      </trkpt>
      <trkpt lat="44.32724" lon="3.06662">
        <ele>705.5</ele>
        <time>2000-01-01T06:21:23.000Z</time>
      </trkpt>
      <trkpt lat="44.3272" lon="3.06673">
        <ele>706.6</ele>
        <time>2000-01-01T06:21:33.000Z</time>
      </trkpt>
      <trkpt lat="44.32714" lon="3.06686">
        <ele>708</ele>
        <time>2000-01-01T06:21:43.000Z</time>
      </trkpt>
      <trkpt lat="44.32706" lon="3.06699">
        <ele>709.5</ele>
        <time>2000-01-01T06:21:53.000Z</time>
      </trkpt>
      <trkpt lat="44.32701" lon="3.06709">
        <ele>710.7</ele>
        <time>2000-01-01T06:22:03.000Z</time>
      </trkpt>
      <trkpt lat="44.32695" lon="3.06719">
        <ele>711.9</ele>
        <time>2000-01-01T06:22:13.000Z</time>
      </trkpt>
      <trkpt lat="44.32682" lon="3.06735">
        <ele>714.3</ele>
        <time>2000-01-01T06:22:23.000Z</time>
      </trkpt>
      <trkpt lat="44.32673" lon="3.06748">
        <ele>716.2</ele>
        <time>2000-01-01T06:22:33.000Z</time>
      </trkpt>
      <trkpt lat="44.32669" lon="3.06753">
        <ele>716.7</ele>
        <time>2000-01-01T06:22:43.000Z</time>
      </trkpt>
      <trkpt lat="44.32667" lon="3.06758">
        <ele>716.9</ele>
        <time>2000-01-01T06:22:53.000Z</time>
      </trkpt>
      <trkpt lat="44.32666" lon="3.06764">
        <ele>716.9</ele>
        <time>2000-01-01T06:23:03.000Z</time>
      </trkpt>
      <trkpt lat="44.32666" lon="3.06766">
        <ele>716.9</ele>
        <time>2000-01-01T06:23:13.000Z</time>
      </trkpt>
      <trkpt lat="44.32661" lon="3.06765">
        <ele>717.6</ele>
        <time>2000-01-01T06:23:23.000Z</time>
      </trkpt>
      <trkpt lat="44.32656" lon="3.06766">
        <ele>718.3</ele>
        <time>2000-01-01T06:23:33.000Z</time>
      </trkpt>
      <trkpt lat="44.32653" lon="3.06769">
        <ele>718.7</ele>
        <time>2000-01-01T06:23:43.000Z</time>
      </trkpt>
      <trkpt lat="44.32648" lon="3.06775">
        <ele>719.4</ele>
        <time>2000-01-01T06:23:53.000Z</time>
      </trkpt>
      <trkpt lat="44.32641" lon="3.06786">
        <ele>720.5</ele>
        <time>2000-01-01T06:24:03.000Z</time>
      </trkpt>
      <trkpt lat="44.32637" lon="3.06791">
        <ele>721.1</ele>
        <time>2000-01-01T06:24:13.000Z</time>
      </trkpt>
      <trkpt lat="44.32632" lon="3.06795">
        <ele>721.9</ele>
        <time>2000-01-01T06:24:23.000Z</time>
      </trkpt>
      <trkpt lat="44.32624" lon="3.06799">
        <ele>723.2</ele>
        <time>2000-01-01T06:24:33.000Z</time>
      </trkpt>
      <trkpt lat="44.32615" lon="3.06801">
        <ele>724.7</ele>
        <time>2000-01-01T06:24:43.000Z</time>
      </trkpt>
      <trkpt lat="44.32599" lon="3.06805">
        <ele>727.4</ele>
        <time>2000-01-01T06:24:53.000Z</time>
      </trkpt>
      <trkpt lat="44.32586" lon="3.0681">
        <ele>729.7</ele>
        <time>2000-01-01T06:25:03.000Z</time>
      </trkpt>
      <trkpt lat="44.32576" lon="3.06817">
        <ele>731.3</ele>
        <time>2000-01-01T06:25:13.000Z</time>
      </trkpt>
      <trkpt lat="44.32562" lon="3.06828">
        <ele>733.6</ele>
        <time>2000-01-01T06:25:23.000Z</time>
      </trkpt>
      <trkpt lat="44.32552" lon="3.06833">
        <ele>735.1</ele>
        <time>2000-01-01T06:25:33.000Z</time>
      </trkpt>
      <trkpt lat="44.32544" lon="3.06836">
        <ele>736.1</ele>
        <time>2000-01-01T06:25:43.000Z</time>
      </trkpt>
      <trkpt lat="44.32535" lon="3.06838">
        <ele>737.3</ele>
        <time>2000-01-01T06:25:53.000Z</time>
      </trkpt>
      <trkpt lat="44.3253" lon="3.0684">
        <ele>737.9</ele>
        <time>2000-01-01T06:26:03.000Z</time>
      </trkpt>
      <trkpt lat="44.32524" lon="3.06844">
        <ele>738.7</ele>
        <time>2000-01-01T06:26:13.000Z</time>
      </trkpt>
      <trkpt lat="44.32519" lon="3.0685">
        <ele>739.2</ele>
        <time>2000-01-01T06:26:23.000Z</time>
      </trkpt>
      <trkpt lat="44.32511" lon="3.06861">
        <ele>740.2</ele>
        <time>2000-01-01T06:26:33.000Z</time>
      </trkpt>
      <trkpt lat="44.325" lon="3.06875">
        <ele>741.5</ele>
        <time>2000-01-01T06:26:43.000Z</time>
      </trkpt>
      <trkpt lat="44.3249" lon="3.06889">
        <ele>744.1</ele>
        <time>2000-01-01T06:26:53.000Z</time>
      </trkpt>
      <trkpt lat="44.32478" lon="3.06902">
        <ele>747.1</ele>
        <time>2000-01-01T06:27:03.000Z</time>
      </trkpt>
      <trkpt lat="44.32466" lon="3.06912">
        <ele>750.1</ele>
        <time>2000-01-01T06:27:13.000Z</time>
      </trkpt>
      <trkpt lat="44.32455" lon="3.06921">
        <ele>752.4</ele>
        <time>2000-01-01T06:27:23.000Z</time>
      </trkpt>
      <trkpt lat="44.32445" lon="3.06927">
        <ele>754.3</ele>
        <time>2000-01-01T06:27:33.000Z</time>
      </trkpt>
      <trkpt lat="44.32434" lon="3.06931">
        <ele>756.7</ele>
        <time>2000-01-01T06:27:43.000Z</time>
      </trkpt>
      <trkpt lat="44.32424" lon="3.06938">
        <ele>758.3</ele>
        <time>2000-01-01T06:27:53.000Z</time>
      </trkpt>
      <trkpt lat="44.32418" lon="3.06943">
        <ele>759.2</ele>
        <time>2000-01-01T06:28:03.000Z</time>
      </trkpt>
      <trkpt lat="44.32414" lon="3.0695">
        <ele>759.2</ele>
        <time>2000-01-01T06:28:13.000Z</time>
      </trkpt>
      <trkpt lat="44.32411" lon="3.06957">
        <ele>759</ele>
        <time>2000-01-01T06:28:23.000Z</time>
      </trkpt>
      <trkpt lat="44.32408" lon="3.06961">
        <ele>759.2</ele>
        <time>2000-01-01T06:28:33.000Z</time>
      </trkpt>
      <trkpt lat="44.32404" lon="3.06965">
        <ele>759.6</ele>
        <time>2000-01-01T06:28:43.000Z</time>
      </trkpt>
      <trkpt lat="44.32397" lon="3.06969">
        <ele>760.8</ele>
        <time>2000-01-01T06:28:53.000Z</time>
      </trkpt>
      <trkpt lat="44.3239" lon="3.06973">
        <ele>761.9</ele>
        <time>2000-01-01T06:29:03.000Z</time>
      </trkpt>
      <trkpt lat="44.32377" lon="3.06979">
        <ele>764.1</ele>
        <time>2000-01-01T06:29:13.000Z</time>
      </trkpt>
      <trkpt lat="44.32368" lon="3.06987">
        <ele>765</ele>
        <time>2000-01-01T06:29:23.000Z</time>
      </trkpt>
      <trkpt lat="44.32361" lon="3.06993">
        <ele>765.7</ele>
        <time>2000-01-01T06:29:33.000Z</time>
      </trkpt>
      <trkpt lat="44.32354" lon="3.06996">
        <ele>766.9</ele>
        <time>2000-01-01T06:29:43.000Z</time>
      </trkpt>
      <trkpt lat="44.32349" lon="3.06996">
        <ele>768</ele>
        <time>2000-01-01T06:29:53.000Z</time>
      </trkpt>
      <trkpt lat="44.32345" lon="3.06995">
        <ele>769.1</ele>
        <time>2000-01-01T06:30:03.000Z</time>
      </trkpt>
      <trkpt lat="44.32339" lon="3.06994">
        <ele>770.6</ele>
        <time>2000-01-01T06:30:13.000Z</time>
      </trkpt>
      <trkpt lat="44.32334" lon="3.06995">
        <ele>771.6</ele>
        <time>2000-01-01T06:30:23.000Z</time>
      </trkpt>
      <trkpt lat="44.3233" lon="3.06999">
        <ele>771.2</ele>
        <time>2000-01-01T06:30:33.000Z</time>
      </trkpt>
      <trkpt lat="44.32329" lon="3.07">
        <ele>771</ele>
        <time>2000-01-01T06:30:43.000Z</time>
      </trkpt>
      <trkpt lat="44.32323" lon="3.07009">
        <ele>769.3</ele>
        <time>2000-01-01T06:30:53.000Z</time>
      </trkpt>
      <trkpt lat="44.32323" lon="3.07019">
        <ele>767.4</ele>
        <time>2000-01-01T06:31:03.000Z</time>
      </trkpt>
      <trkpt lat="44.32323" lon="3.07021">
        <ele>767.1</ele>
        <time>2000-01-01T06:31:13.000Z</time>
      </trkpt>
      <trkpt lat="44.32322" lon="3.07024">
        <ele>766.5</ele>
        <time>2000-01-01T06:31:23.000Z</time>
      </trkpt>
      <trkpt lat="44.32319" lon="3.07031">
        <ele>765.2</ele>
        <time>2000-01-01T06:31:33.000Z</time>
      </trkpt>
      <trkpt lat="44.32313" lon="3.07044">
        <ele>762.9</ele>
        <time>2000-01-01T06:31:43.000Z</time>
      </trkpt>
      <trkpt lat="44.3231" lon="3.07055">
        <ele>761</ele>
        <time>2000-01-01T06:31:53.000Z</time>
      </trkpt>
      <trkpt lat="44.32308" lon="3.07067">
        <ele>758.9</ele>
        <time>2000-01-01T06:32:03.000Z</time>
      </trkpt>
      <trkpt lat="44.32309" lon="3.07069">
        <ele>758.5</ele>
        <time>2000-01-01T06:32:13.000Z</time>
      </trkpt>
      <trkpt lat="44.32309" lon="3.07072">
        <ele>757.9</ele>
        <time>2000-01-01T06:32:23.000Z</time>
      </trkpt>
      <trkpt lat="44.32309" lon="3.07076">
        <ele>757.2</ele>
        <time>2000-01-01T06:32:33.000Z</time>
      </trkpt>
      <trkpt lat="44.32307" lon="3.07079">
        <ele>756.7</ele>
        <time>2000-01-01T06:32:43.000Z</time>
      </trkpt>
      <trkpt lat="44.32303" lon="3.07084">
        <ele>756</ele>
        <time>2000-01-01T06:32:53.000Z</time>
      </trkpt>
      <trkpt lat="44.32301" lon="3.07085">
        <ele>756</ele>
        <time>2000-01-01T06:33:03.000Z</time>
      </trkpt>
      <trkpt lat="44.32294" lon="3.07092">
        <ele>755.5</ele>
        <time>2000-01-01T06:33:13.000Z</time>
      </trkpt>
      <trkpt lat="44.3229" lon="3.07097">
        <ele>755.1</ele>
        <time>2000-01-01T06:33:23.000Z</time>
      </trkpt>
      <trkpt lat="44.32287" lon="3.07104">
        <ele>754.4</ele>
        <time>2000-01-01T06:33:33.000Z</time>
      </trkpt>
      <trkpt lat="44.32284" lon="3.07105">
        <ele>754.4</ele>
        <time>2000-01-01T06:33:43.000Z</time>
      </trkpt>
      <trkpt lat="44.32282" lon="3.07105">
        <ele>754.5</ele>
        <time>2000-01-01T06:33:53.000Z</time>
      </trkpt>
      <trkpt lat="44.32276" lon="3.07109">
        <ele>754.3</ele>
        <time>2000-01-01T06:34:03.000Z</time>
      </trkpt>
      <trkpt lat="44.32271" lon="3.07114">
        <ele>753.9</ele>
        <time>2000-01-01T06:34:13.000Z</time>
      </trkpt>
      <trkpt lat="44.32267" lon="3.07123">
        <ele>753.1</ele>
        <time>2000-01-01T06:34:23.000Z</time>
      </trkpt>
      <trkpt lat="44.32265" lon="3.07127">
        <ele>752.7</ele>
        <time>2000-01-01T06:34:33.000Z</time>
      </trkpt>
      <trkpt lat="44.32262" lon="3.07133">
        <ele>752.2</ele>
        <time>2000-01-01T06:34:43.000Z</time>
      </trkpt>
      <trkpt lat="44.3225" lon="3.07124">
        <ele>753.6</ele>
        <time>2000-01-01T06:34:53.000Z</time>
      </trkpt>
      <trkpt lat="44.32246" lon="3.07121">
        <ele>753.4</ele>
        <time>2000-01-01T06:35:03.000Z</time>
      </trkpt>
      <trkpt lat="44.32249" lon="3.07127">
        <ele>753.2</ele>
        <time>2000-01-01T06:35:13.000Z</time>
      </trkpt>
    </trkseg>
  </trk>
</gpx>